<?xml version="1.0" encoding="utf-8"?>
<gpx xmlns:xsi="http://www.w3.org/2001/XMLSchema-instance" xmlns:xsd="http://www.w3.org/2001/XMLSchema" version="1.1" creator="Shapelink.com" xmlns="http://www.topografix.com/GPX/1/1" xmlns:gpxtpx="http://www.garmin.com/xmlschemas/TrackPointExtension/v1">
  <metadata>
    <name>Løping 4.15 km, 2013-04-18</name>
    <desc></desc>
    <author><name>Stefan Östlund</name></author> 
    <time>2013-04-18T21:00:06Z</time>
  </metadata>
  <trk>
    <name>Løping 4.15 km, 2013-04-18</name>
    <trkseg>
      <trkpt lat="59.9843265" lon="15.8277405">
        <ele>119.8</ele>
        <time>2013-04-18T21:00:06Z</time>
      </trkpt>
      <trkpt lat="59.9843376" lon="15.8277316">
        <ele>120</ele>
        <time>2013-04-18T21:00:07Z</time>
      </trkpt>
      <trkpt lat="59.9843542" lon="15.8276919">
        <ele>120</ele>
        <time>2013-04-18T21:00:08Z</time>
      </trkpt>
      <trkpt lat="59.9843576" lon="15.8276624">
        <ele>120</ele>
        <time>2013-04-18T21:00:09Z</time>
      </trkpt>
      <trkpt lat="59.9843638" lon="15.8276104">
        <ele>120</ele>
        <time>2013-04-18T21:00:10Z</time>
      </trkpt>
      <trkpt lat="59.9843675" lon="15.8275859">
        <ele>120</ele>
        <time>2013-04-18T21:00:11Z</time>
      </trkpt>
      <trkpt lat="59.9843751" lon="15.827533">
        <ele>120</ele>
        <time>2013-04-18T21:00:12Z</time>
      </trkpt>
      <trkpt lat="59.9843786" lon="15.8275043">
        <ele>120</ele>
        <time>2013-04-18T21:00:13Z</time>
      </trkpt>
      <trkpt lat="59.9843868" lon="15.8274508">
        <ele>119.8</ele>
        <time>2013-04-18T21:00:14Z</time>
      </trkpt>
      <trkpt lat="59.984392" lon="15.8274173">
        <ele>119.8</ele>
        <time>2013-04-18T21:00:15Z</time>
      </trkpt>
      <trkpt lat="59.9843914" lon="15.8273596">
        <ele>119.8</ele>
        <time>2013-04-18T21:00:16Z</time>
      </trkpt>
      <trkpt lat="59.9843862" lon="15.8273377">
        <ele>117.8</ele>
        <time>2013-04-18T21:00:17Z</time>
      </trkpt>
      <trkpt lat="59.9843843" lon="15.8272916">
        <ele>117.8</ele>
        <time>2013-04-18T21:00:18Z</time>
      </trkpt>
      <trkpt lat="59.9843793" lon="15.8272564">
        <ele>117.8</ele>
        <time>2013-04-18T21:00:19Z</time>
      </trkpt>
      <trkpt lat="59.98436" lon="15.8271979">
        <ele>117.8</ele>
        <time>2013-04-18T21:00:20Z</time>
      </trkpt>
      <trkpt lat="59.98435" lon="15.8271823">
        <ele>117.8</ele>
        <time>2013-04-18T21:00:21Z</time>
      </trkpt>
      <trkpt lat="59.984325" lon="15.8271457">
        <ele>117.8</ele>
        <time>2013-04-18T21:00:22Z</time>
      </trkpt>
      <trkpt lat="59.9843078" lon="15.8271296">
        <ele>117.8</ele>
        <time>2013-04-18T21:00:23Z</time>
      </trkpt>
      <trkpt lat="59.9842813" lon="15.827107">
        <ele>117.8</ele>
        <time>2013-04-18T21:00:24Z</time>
      </trkpt>
      <trkpt lat="59.9842597" lon="15.8270899">
        <ele>117.8</ele>
        <time>2013-04-18T21:00:25Z</time>
      </trkpt>
      <trkpt lat="59.9841837" lon="15.8270269">
        <ele>117.8</ele>
        <time>2013-04-18T21:00:28Z</time>
      </trkpt>
      <trkpt lat="59.9841153" lon="15.8270018">
        <ele>117.8</ele>
        <time>2013-04-18T21:00:31Z</time>
      </trkpt>
      <trkpt lat="59.9840835" lon="15.8269805">
        <ele>116.4</ele>
        <time>2013-04-18T21:00:32Z</time>
      </trkpt>
      <trkpt lat="59.984069" lon="15.8269676">
        <ele>115.2</ele>
        <time>2013-04-18T21:00:33Z</time>
      </trkpt>
      <trkpt lat="59.9840405" lon="15.8269428">
        <ele>115.2</ele>
        <time>2013-04-18T21:00:34Z</time>
      </trkpt>
      <trkpt lat="59.9840259" lon="15.8269245">
        <ele>115</ele>
        <time>2013-04-18T21:00:35Z</time>
      </trkpt>
      <trkpt lat="59.9839856" lon="15.8268837">
        <ele>114.6</ele>
        <time>2013-04-18T21:00:37Z</time>
      </trkpt>
      <trkpt lat="59.9839427" lon="15.826798">
        <ele>113.8</ele>
        <time>2013-04-18T21:00:39Z</time>
      </trkpt>
      <trkpt lat="59.9839186" lon="15.8267495">
        <ele>114</ele>
        <time>2013-04-18T21:00:40Z</time>
      </trkpt>
      <trkpt lat="59.9839066" lon="15.8267312">
        <ele>114</ele>
        <time>2013-04-18T21:00:41Z</time>
      </trkpt>
      <trkpt lat="59.983884" lon="15.8266887">
        <ele>114</ele>
        <time>2013-04-18T21:00:42Z</time>
      </trkpt>
      <trkpt lat="59.9838306" lon="15.8266127">
        <ele>114</ele>
        <time>2013-04-18T21:00:44Z</time>
      </trkpt>
      <trkpt lat="59.9838157" lon="15.8265905">
        <ele>114</ele>
        <time>2013-04-18T21:00:45Z</time>
      </trkpt>
      <trkpt lat="59.9837848" lon="15.8265442">
        <ele>114</ele>
        <time>2013-04-18T21:00:46Z</time>
      </trkpt>
      <trkpt lat="59.9837698" lon="15.8265235">
        <ele>114</ele>
        <time>2013-04-18T21:00:47Z</time>
      </trkpt>
      <trkpt lat="59.9837519" lon="15.8264916">
        <ele>114</ele>
        <time>2013-04-18T21:00:48Z</time>
      </trkpt>
      <trkpt lat="59.9837446" lon="15.8264531">
        <ele>114</ele>
        <time>2013-04-18T21:00:49Z</time>
      </trkpt>
      <trkpt lat="59.9837461" lon="15.8263847">
        <ele>114</ele>
        <time>2013-04-18T21:00:50Z</time>
      </trkpt>
      <trkpt lat="59.9837538" lon="15.8263501">
        <ele>114</ele>
        <time>2013-04-18T21:00:51Z</time>
      </trkpt>
      <trkpt lat="59.9837634" lon="15.8262735">
        <ele>114</ele>
        <time>2013-04-18T21:00:52Z</time>
      </trkpt>
      <trkpt lat="59.9837764" lon="15.8262497">
        <ele>114</ele>
        <time>2013-04-18T21:00:53Z</time>
      </trkpt>
      <trkpt lat="59.9837911" lon="15.826211">
        <ele>114</ele>
        <time>2013-04-18T21:00:54Z</time>
      </trkpt>
      <trkpt lat="59.9838276" lon="15.8261854">
        <ele>114</ele>
        <time>2013-04-18T21:00:55Z</time>
      </trkpt>
      <trkpt lat="59.9838617" lon="15.8261419">
        <ele>114</ele>
        <time>2013-04-18T21:00:56Z</time>
      </trkpt>
      <trkpt lat="59.9838836" lon="15.8261165">
        <ele>114</ele>
        <time>2013-04-18T21:00:57Z</time>
      </trkpt>
      <trkpt lat="59.9839127" lon="15.8260715">
        <ele>114</ele>
        <time>2013-04-18T21:00:58Z</time>
      </trkpt>
      <trkpt lat="59.9839331" lon="15.8260456">
        <ele>112.8</ele>
        <time>2013-04-18T21:00:59Z</time>
      </trkpt>
      <trkpt lat="59.983967" lon="15.8260031">
        <ele>112.8</ele>
        <time>2013-04-18T21:01:00Z</time>
      </trkpt>
      <trkpt lat="59.9839825" lon="15.8259828">
        <ele>112.8</ele>
        <time>2013-04-18T21:01:01Z</time>
      </trkpt>
      <trkpt lat="59.9840157" lon="15.8259384">
        <ele>112.8</ele>
        <time>2013-04-18T21:01:02Z</time>
      </trkpt>
      <trkpt lat="59.9840346" lon="15.8259135">
        <ele>112.8</ele>
        <time>2013-04-18T21:01:03Z</time>
      </trkpt>
      <trkpt lat="59.9840662" lon="15.8258724">
        <ele>112.8</ele>
        <time>2013-04-18T21:01:04Z</time>
      </trkpt>
      <trkpt lat="59.9840857" lon="15.8258508">
        <ele>112.8</ele>
        <time>2013-04-18T21:01:05Z</time>
      </trkpt>
      <trkpt lat="59.984208" lon="15.8256913">
        <ele>112.8</ele>
        <time>2013-04-18T21:01:08Z</time>
      </trkpt>
      <trkpt lat="59.9842378" lon="15.8256514">
        <ele>112.8</ele>
        <time>2013-04-18T21:01:09Z</time>
      </trkpt>
      <trkpt lat="59.9842754" lon="15.8255975">
        <ele>112.8</ele>
        <time>2013-04-18T21:01:10Z</time>
      </trkpt>
      <trkpt lat="59.9843021" lon="15.8255643">
        <ele>112.8</ele>
        <time>2013-04-18T21:01:11Z</time>
      </trkpt>
      <trkpt lat="59.9843415" lon="15.8255057">
        <ele>112.8</ele>
        <time>2013-04-18T21:01:12Z</time>
      </trkpt>
      <trkpt lat="59.984367" lon="15.8254673">
        <ele>112.8</ele>
        <time>2013-04-18T21:01:13Z</time>
      </trkpt>
      <trkpt lat="59.9844701" lon="15.8253186">
        <ele>112.8</ele>
        <time>2013-04-18T21:01:16Z</time>
      </trkpt>
      <trkpt lat="59.9845865" lon="15.8251482">
        <ele>112.8</ele>
        <time>2013-04-18T21:01:20Z</time>
      </trkpt>
      <trkpt lat="59.9846038" lon="15.8251183">
        <ele>112.8</ele>
        <time>2013-04-18T21:01:21Z</time>
      </trkpt>
      <trkpt lat="59.9846339" lon="15.825068">
        <ele>112.8</ele>
        <time>2013-04-18T21:01:22Z</time>
      </trkpt>
      <trkpt lat="59.9846533" lon="15.8250402">
        <ele>112.8</ele>
        <time>2013-04-18T21:01:23Z</time>
      </trkpt>
      <trkpt lat="59.9847105" lon="15.824972">
        <ele>112.8</ele>
        <time>2013-04-18T21:01:25Z</time>
      </trkpt>
      <trkpt lat="59.9847704" lon="15.8248942">
        <ele>112.8</ele>
        <time>2013-04-18T21:01:27Z</time>
      </trkpt>
      <trkpt lat="59.9848025" lon="15.8248464">
        <ele>112.8</ele>
        <time>2013-04-18T21:01:28Z</time>
      </trkpt>
      <trkpt lat="59.9848184" lon="15.824828">
        <ele>112.8</ele>
        <time>2013-04-18T21:01:29Z</time>
      </trkpt>
      <trkpt lat="59.9848506" lon="15.824772">
        <ele>112.8</ele>
        <time>2013-04-18T21:01:30Z</time>
      </trkpt>
      <trkpt lat="59.9848642" lon="15.8247552">
        <ele>112.8</ele>
        <time>2013-04-18T21:01:31Z</time>
      </trkpt>
      <trkpt lat="59.9848937" lon="15.8247115">
        <ele>112.8</ele>
        <time>2013-04-18T21:01:32Z</time>
      </trkpt>
      <trkpt lat="59.9849134" lon="15.8246779">
        <ele>112.8</ele>
        <time>2013-04-18T21:01:33Z</time>
      </trkpt>
      <trkpt lat="59.9849414" lon="15.8246217">
        <ele>112.8</ele>
        <time>2013-04-18T21:01:34Z</time>
      </trkpt>
      <trkpt lat="59.9849626" lon="15.8245889">
        <ele>112.8</ele>
        <time>2013-04-18T21:01:35Z</time>
      </trkpt>
      <trkpt lat="59.9849873" lon="15.8245414">
        <ele>112.8</ele>
        <time>2013-04-18T21:01:36Z</time>
      </trkpt>
      <trkpt lat="59.9850056" lon="15.8245104">
        <ele>112.8</ele>
        <time>2013-04-18T21:01:37Z</time>
      </trkpt>
      <trkpt lat="59.9850372" lon="15.8244526">
        <ele>112.8</ele>
        <time>2013-04-18T21:01:38Z</time>
      </trkpt>
      <trkpt lat="59.9850486" lon="15.8244311">
        <ele>112.8</ele>
        <time>2013-04-18T21:01:39Z</time>
      </trkpt>
      <trkpt lat="59.9850814" lon="15.8243734">
        <ele>112.8</ele>
        <time>2013-04-18T21:01:40Z</time>
      </trkpt>
      <trkpt lat="59.9850943" lon="15.824351">
        <ele>112.8</ele>
        <time>2013-04-18T21:01:41Z</time>
      </trkpt>
      <trkpt lat="59.9851241" lon="15.8242931">
        <ele>112.8</ele>
        <time>2013-04-18T21:01:42Z</time>
      </trkpt>
      <trkpt lat="59.9851437" lon="15.8242651">
        <ele>112.8</ele>
        <time>2013-04-18T21:01:43Z</time>
      </trkpt>
      <trkpt lat="59.9851759" lon="15.8242128">
        <ele>112.8</ele>
        <time>2013-04-18T21:01:44Z</time>
      </trkpt>
      <trkpt lat="59.9851937" lon="15.8241861">
        <ele>112.6</ele>
        <time>2013-04-18T21:01:45Z</time>
      </trkpt>
      <trkpt lat="59.9852255" lon="15.8241442">
        <ele>112.8</ele>
        <time>2013-04-18T21:01:46Z</time>
      </trkpt>
      <trkpt lat="59.9852467" lon="15.8241307">
        <ele>112.8</ele>
        <time>2013-04-18T21:01:47Z</time>
      </trkpt>
      <trkpt lat="59.9852795" lon="15.8241068">
        <ele>112.8</ele>
        <time>2013-04-18T21:01:48Z</time>
      </trkpt>
      <trkpt lat="59.9853046" lon="15.8240955">
        <ele>112.8</ele>
        <time>2013-04-18T21:01:49Z</time>
      </trkpt>
      <trkpt lat="59.9853458" lon="15.8240864">
        <ele>112.8</ele>
        <time>2013-04-18T21:01:50Z</time>
      </trkpt>
      <trkpt lat="59.985363" lon="15.8240896">
        <ele>112.8</ele>
        <time>2013-04-18T21:01:51Z</time>
      </trkpt>
      <trkpt lat="59.9853968" lon="15.8241006">
        <ele>112.8</ele>
        <time>2013-04-18T21:01:52Z</time>
      </trkpt>
      <trkpt lat="59.9854174" lon="15.8241072">
        <ele>112.8</ele>
        <time>2013-04-18T21:01:53Z</time>
      </trkpt>
      <trkpt lat="59.985494" lon="15.8241289">
        <ele>112.8</ele>
        <time>2013-04-18T21:01:56Z</time>
      </trkpt>
      <trkpt lat="59.9854965" lon="15.8241531">
        <ele>112.8</ele>
        <time>2013-04-18T21:01:57Z</time>
      </trkpt>
      <trkpt lat="59.9855631" lon="15.8241887">
        <ele>112.8</ele>
        <time>2013-04-18T21:01:58Z</time>
      </trkpt>
      <trkpt lat="59.9855894" lon="15.8241998">
        <ele>111.8</ele>
        <time>2013-04-18T21:01:59Z</time>
      </trkpt>
      <trkpt lat="59.9857487" lon="15.8242658">
        <ele>111.8</ele>
        <time>2013-04-18T21:02:04Z</time>
      </trkpt>
      <trkpt lat="59.9858001" lon="15.8242849">
        <ele>110.6</ele>
        <time>2013-04-18T21:02:06Z</time>
      </trkpt>
      <trkpt lat="59.9858215" lon="15.8242953">
        <ele>110.6</ele>
        <time>2013-04-18T21:02:07Z</time>
      </trkpt>
      <trkpt lat="59.9858512" lon="15.824312">
        <ele>110.6</ele>
        <time>2013-04-18T21:02:08Z</time>
      </trkpt>
      <trkpt lat="59.9858716" lon="15.8243254">
        <ele>110.6</ele>
        <time>2013-04-18T21:02:09Z</time>
      </trkpt>
      <trkpt lat="59.9860266" lon="15.8244283">
        <ele>110.6</ele>
        <time>2013-04-18T21:02:15Z</time>
      </trkpt>
      <trkpt lat="59.9860825" lon="15.8244437">
        <ele>110.6</ele>
        <time>2013-04-18T21:02:17Z</time>
      </trkpt>
      <trkpt lat="59.9861182" lon="15.8244598">
        <ele>110.6</ele>
        <time>2013-04-18T21:02:18Z</time>
      </trkpt>
      <trkpt lat="59.986139" lon="15.8244713">
        <ele>110.6</ele>
        <time>2013-04-18T21:02:19Z</time>
      </trkpt>
      <trkpt lat="59.9861726" lon="15.8244847">
        <ele>110.6</ele>
        <time>2013-04-18T21:02:20Z</time>
      </trkpt>
      <trkpt lat="59.9861929" lon="15.8244905">
        <ele>110.6</ele>
        <time>2013-04-18T21:02:21Z</time>
      </trkpt>
      <trkpt lat="59.9862328" lon="15.8245081">
        <ele>110.6</ele>
        <time>2013-04-18T21:02:22Z</time>
      </trkpt>
      <trkpt lat="59.9862525" lon="15.8245164">
        <ele>110.6</ele>
        <time>2013-04-18T21:02:23Z</time>
      </trkpt>
      <trkpt lat="59.9862853" lon="15.8245295">
        <ele>110.6</ele>
        <time>2013-04-18T21:02:24Z</time>
      </trkpt>
      <trkpt lat="59.9863063" lon="15.8245364">
        <ele>110.6</ele>
        <time>2013-04-18T21:02:25Z</time>
      </trkpt>
      <trkpt lat="59.9863391" lon="15.8245497">
        <ele>110.6</ele>
        <time>2013-04-18T21:02:26Z</time>
      </trkpt>
      <trkpt lat="59.9863603" lon="15.824561">
        <ele>110.6</ele>
        <time>2013-04-18T21:02:27Z</time>
      </trkpt>
      <trkpt lat="59.9864053" lon="15.8245736">
        <ele>110.6</ele>
        <time>2013-04-18T21:02:28Z</time>
      </trkpt>
      <trkpt lat="59.9864232" lon="15.8245816">
        <ele>110.6</ele>
        <time>2013-04-18T21:02:29Z</time>
      </trkpt>
      <trkpt lat="59.9864541" lon="15.8245992">
        <ele>110.6</ele>
        <time>2013-04-18T21:02:30Z</time>
      </trkpt>
      <trkpt lat="59.9864733" lon="15.8246081">
        <ele>110.6</ele>
        <time>2013-04-18T21:02:31Z</time>
      </trkpt>
      <trkpt lat="59.9865155" lon="15.8246271">
        <ele>110.6</ele>
        <time>2013-04-18T21:02:32Z</time>
      </trkpt>
      <trkpt lat="59.9865344" lon="15.8246346">
        <ele>110.6</ele>
        <time>2013-04-18T21:02:33Z</time>
      </trkpt>
      <trkpt lat="59.9865767" lon="15.8246486">
        <ele>110.6</ele>
        <time>2013-04-18T21:02:34Z</time>
      </trkpt>
      <trkpt lat="59.9865928" lon="15.8246651">
        <ele>110.6</ele>
        <time>2013-04-18T21:02:35Z</time>
      </trkpt>
      <trkpt lat="59.9866243" lon="15.8246852">
        <ele>110.6</ele>
        <time>2013-04-18T21:02:36Z</time>
      </trkpt>
      <trkpt lat="59.9866519" lon="15.8246874">
        <ele>110.6</ele>
        <time>2013-04-18T21:02:37Z</time>
      </trkpt>
      <trkpt lat="59.9866901" lon="15.8247023">
        <ele>110.6</ele>
        <time>2013-04-18T21:02:38Z</time>
      </trkpt>
      <trkpt lat="59.9867068" lon="15.8247066">
        <ele>110.6</ele>
        <time>2013-04-18T21:02:39Z</time>
      </trkpt>
      <trkpt lat="59.9867417" lon="15.8247126">
        <ele>110.6</ele>
        <time>2013-04-18T21:02:40Z</time>
      </trkpt>
      <trkpt lat="59.9867591" lon="15.8247183">
        <ele>110.6</ele>
        <time>2013-04-18T21:02:41Z</time>
      </trkpt>
      <trkpt lat="59.9867948" lon="15.8247256">
        <ele>110.6</ele>
        <time>2013-04-18T21:02:42Z</time>
      </trkpt>
      <trkpt lat="59.9868137" lon="15.8247328">
        <ele>110.6</ele>
        <time>2013-04-18T21:02:43Z</time>
      </trkpt>
      <trkpt lat="59.9868421" lon="15.8247396">
        <ele>110.6</ele>
        <time>2013-04-18T21:02:44Z</time>
      </trkpt>
      <trkpt lat="59.986862" lon="15.8247474">
        <ele>110.6</ele>
        <time>2013-04-18T21:02:45Z</time>
      </trkpt>
      <trkpt lat="59.9868901" lon="15.8247564">
        <ele>110.6</ele>
        <time>2013-04-18T21:02:46Z</time>
      </trkpt>
      <trkpt lat="59.9870136" lon="15.8248017">
        <ele>110.6</ele>
        <time>2013-04-18T21:02:51Z</time>
      </trkpt>
      <trkpt lat="59.9870518" lon="15.824813">
        <ele>110.6</ele>
        <time>2013-04-18T21:02:52Z</time>
      </trkpt>
      <trkpt lat="59.987072" lon="15.8248268">
        <ele>110.6</ele>
        <time>2013-04-18T21:02:53Z</time>
      </trkpt>
      <trkpt lat="59.9871089" lon="15.8248383">
        <ele>110.6</ele>
        <time>2013-04-18T21:02:54Z</time>
      </trkpt>
      <trkpt lat="59.9871876" lon="15.8248778">
        <ele>110.6</ele>
        <time>2013-04-18T21:02:57Z</time>
      </trkpt>
      <trkpt lat="59.9872232" lon="15.8248967">
        <ele>110.6</ele>
        <time>2013-04-18T21:02:58Z</time>
      </trkpt>
      <trkpt lat="59.9872409" lon="15.8249095">
        <ele>110.6</ele>
        <time>2013-04-18T21:02:59Z</time>
      </trkpt>
      <trkpt lat="59.9872734" lon="15.8249269">
        <ele>110.6</ele>
        <time>2013-04-18T21:03:00Z</time>
      </trkpt>
      <trkpt lat="59.987291" lon="15.8249361">
        <ele>110.6</ele>
        <time>2013-04-18T21:03:01Z</time>
      </trkpt>
      <trkpt lat="59.9873247" lon="15.8249529">
        <ele>113.8</ele>
        <time>2013-04-18T21:03:02Z</time>
      </trkpt>
      <trkpt lat="59.9873399" lon="15.8249613">
        <ele>113.8</ele>
        <time>2013-04-18T21:03:03Z</time>
      </trkpt>
      <trkpt lat="59.9873773" lon="15.8249741">
        <ele>113.8</ele>
        <time>2013-04-18T21:03:04Z</time>
      </trkpt>
      <trkpt lat="59.9873941" lon="15.8249848">
        <ele>113.8</ele>
        <time>2013-04-18T21:03:05Z</time>
      </trkpt>
      <trkpt lat="59.9874228" lon="15.8249998">
        <ele>113.8</ele>
        <time>2013-04-18T21:03:06Z</time>
      </trkpt>
      <trkpt lat="59.9874459" lon="15.8250035">
        <ele>113.8</ele>
        <time>2013-04-18T21:03:07Z</time>
      </trkpt>
      <trkpt lat="59.987479" lon="15.8250114">
        <ele>113.8</ele>
        <time>2013-04-18T21:03:08Z</time>
      </trkpt>
      <trkpt lat="59.9874948" lon="15.8250195">
        <ele>113.8</ele>
        <time>2013-04-18T21:03:09Z</time>
      </trkpt>
      <trkpt lat="59.9875292" lon="15.8250317">
        <ele>113.8</ele>
        <time>2013-04-18T21:03:10Z</time>
      </trkpt>
      <trkpt lat="59.9875455" lon="15.8250401">
        <ele>113.8</ele>
        <time>2013-04-18T21:03:11Z</time>
      </trkpt>
      <trkpt lat="59.9875771" lon="15.8250528">
        <ele>113.8</ele>
        <time>2013-04-18T21:03:12Z</time>
      </trkpt>
      <trkpt lat="59.9875995" lon="15.8250568">
        <ele>113.8</ele>
        <time>2013-04-18T21:03:13Z</time>
      </trkpt>
      <trkpt lat="59.9876395" lon="15.8250644">
        <ele>113.8</ele>
        <time>2013-04-18T21:03:14Z</time>
      </trkpt>
      <trkpt lat="59.9876562" lon="15.8250705">
        <ele>113.8</ele>
        <time>2013-04-18T21:03:15Z</time>
      </trkpt>
      <trkpt lat="59.9876863" lon="15.8250817">
        <ele>114.8</ele>
        <time>2013-04-18T21:03:16Z</time>
      </trkpt>
      <trkpt lat="59.9877098" lon="15.8250826">
        <ele>114.8</ele>
        <time>2013-04-18T21:03:17Z</time>
      </trkpt>
      <trkpt lat="59.9877457" lon="15.8250847">
        <ele>114.8</ele>
        <time>2013-04-18T21:03:18Z</time>
      </trkpt>
      <trkpt lat="59.9877648" lon="15.8250898">
        <ele>114.8</ele>
        <time>2013-04-18T21:03:19Z</time>
      </trkpt>
      <trkpt lat="59.9878034" lon="15.8250931">
        <ele>114.8</ele>
        <time>2013-04-18T21:03:20Z</time>
      </trkpt>
      <trkpt lat="59.9878171" lon="15.8250984">
        <ele>114.8</ele>
        <time>2013-04-18T21:03:21Z</time>
      </trkpt>
      <trkpt lat="59.9878599" lon="15.8250997">
        <ele>114.8</ele>
        <time>2013-04-18T21:03:22Z</time>
      </trkpt>
      <trkpt lat="59.9878753" lon="15.8251023">
        <ele>115.8</ele>
        <time>2013-04-18T21:03:23Z</time>
        <extensions><gpxtpx:TrackPointExtension><gpxtpx:hr>105</gpxtpx:hr></gpxtpx:TrackPointExtension></extensions>
      </trkpt>
      <trkpt lat="59.9879088" lon="15.8251061">
        <ele>115.8</ele>
        <time>2013-04-18T21:03:24Z</time>
        <extensions><gpxtpx:TrackPointExtension><gpxtpx:hr>78</gpxtpx:hr></gpxtpx:TrackPointExtension></extensions>
      </trkpt>
      <trkpt lat="59.9879267" lon="15.825104">
        <ele>115.8</ele>
        <time>2013-04-18T21:03:25Z</time>
        <extensions><gpxtpx:TrackPointExtension><gpxtpx:hr>89</gpxtpx:hr></gpxtpx:TrackPointExtension></extensions>
      </trkpt>
      <trkpt lat="59.9879563" lon="15.8251028">
        <ele>115.8</ele>
        <time>2013-04-18T21:03:26Z</time>
        <extensions><gpxtpx:TrackPointExtension><gpxtpx:hr>106</gpxtpx:hr></gpxtpx:TrackPointExtension></extensions>
      </trkpt>
      <trkpt lat="59.9879765" lon="15.8251009">
        <ele>115.8</ele>
        <time>2013-04-18T21:03:27Z</time>
        <extensions><gpxtpx:TrackPointExtension><gpxtpx:hr>119</gpxtpx:hr></gpxtpx:TrackPointExtension></extensions>
      </trkpt>
      <trkpt lat="59.9880092" lon="15.8251">
        <ele>115.8</ele>
        <time>2013-04-18T21:03:28Z</time>
        <extensions><gpxtpx:TrackPointExtension><gpxtpx:hr>119</gpxtpx:hr></gpxtpx:TrackPointExtension></extensions>
      </trkpt>
      <trkpt lat="59.9880238" lon="15.8251035">
        <ele>115.8</ele>
        <time>2013-04-18T21:03:29Z</time>
        <extensions><gpxtpx:TrackPointExtension><gpxtpx:hr>124</gpxtpx:hr></gpxtpx:TrackPointExtension></extensions>
      </trkpt>
      <trkpt lat="59.988061" lon="15.8251073">
        <ele>115.8</ele>
        <time>2013-04-18T21:03:30Z</time>
        <extensions><gpxtpx:TrackPointExtension><gpxtpx:hr>124</gpxtpx:hr></gpxtpx:TrackPointExtension></extensions>
      </trkpt>
      <trkpt lat="59.9880774" lon="15.8251104">
        <ele>115.8</ele>
        <time>2013-04-18T21:03:31Z</time>
        <extensions><gpxtpx:TrackPointExtension><gpxtpx:hr>129</gpxtpx:hr></gpxtpx:TrackPointExtension></extensions>
      </trkpt>
      <trkpt lat="59.9881126" lon="15.8251165">
        <ele>115.8</ele>
        <time>2013-04-18T21:03:32Z</time>
        <extensions><gpxtpx:TrackPointExtension><gpxtpx:hr>133</gpxtpx:hr></gpxtpx:TrackPointExtension></extensions>
      </trkpt>
      <trkpt lat="59.988132" lon="15.8251128">
        <ele>115.8</ele>
        <time>2013-04-18T21:03:33Z</time>
        <extensions><gpxtpx:TrackPointExtension><gpxtpx:hr>133</gpxtpx:hr></gpxtpx:TrackPointExtension></extensions>
      </trkpt>
      <trkpt lat="59.9881672" lon="15.8251083">
        <ele>115.8</ele>
        <time>2013-04-18T21:03:34Z</time>
        <extensions><gpxtpx:TrackPointExtension><gpxtpx:hr>133</gpxtpx:hr></gpxtpx:TrackPointExtension></extensions>
      </trkpt>
      <trkpt lat="59.9881811" lon="15.8251068">
        <ele>115.8</ele>
        <time>2013-04-18T21:03:35Z</time>
        <extensions><gpxtpx:TrackPointExtension><gpxtpx:hr>133</gpxtpx:hr></gpxtpx:TrackPointExtension></extensions>
      </trkpt>
      <trkpt lat="59.9882129" lon="15.8251044">
        <ele>115.8</ele>
        <time>2013-04-18T21:03:36Z</time>
        <extensions><gpxtpx:TrackPointExtension><gpxtpx:hr>135</gpxtpx:hr></gpxtpx:TrackPointExtension></extensions>
      </trkpt>
      <trkpt lat="59.9882327" lon="15.8250971">
        <ele>115.8</ele>
        <time>2013-04-18T21:03:37Z</time>
        <extensions><gpxtpx:TrackPointExtension><gpxtpx:hr>135</gpxtpx:hr></gpxtpx:TrackPointExtension></extensions>
      </trkpt>
      <trkpt lat="59.9882545" lon="15.8250864">
        <ele>115.8</ele>
        <time>2013-04-18T21:03:38Z</time>
        <extensions><gpxtpx:TrackPointExtension><gpxtpx:hr>138</gpxtpx:hr></gpxtpx:TrackPointExtension></extensions>
      </trkpt>
      <trkpt lat="59.9882732" lon="15.8250872">
        <ele>115.8</ele>
        <time>2013-04-18T21:03:39Z</time>
        <extensions><gpxtpx:TrackPointExtension><gpxtpx:hr>142</gpxtpx:hr></gpxtpx:TrackPointExtension></extensions>
      </trkpt>
      <trkpt lat="59.9883102" lon="15.825081">
        <ele>115.8</ele>
        <time>2013-04-18T21:03:40Z</time>
        <extensions><gpxtpx:TrackPointExtension><gpxtpx:hr>142</gpxtpx:hr></gpxtpx:TrackPointExtension></extensions>
      </trkpt>
      <trkpt lat="59.9883271" lon="15.8250806">
        <ele>115.8</ele>
        <time>2013-04-18T21:03:41Z</time>
        <extensions><gpxtpx:TrackPointExtension><gpxtpx:hr>142</gpxtpx:hr></gpxtpx:TrackPointExtension></extensions>
      </trkpt>
      <trkpt lat="59.9883602" lon="15.8250792">
        <ele>115.8</ele>
        <time>2013-04-18T21:03:42Z</time>
        <extensions><gpxtpx:TrackPointExtension><gpxtpx:hr>144</gpxtpx:hr></gpxtpx:TrackPointExtension></extensions>
      </trkpt>
      <trkpt lat="59.9883831" lon="15.8250734">
        <ele>115.8</ele>
        <time>2013-04-18T21:03:43Z</time>
        <extensions><gpxtpx:TrackPointExtension><gpxtpx:hr>144</gpxtpx:hr></gpxtpx:TrackPointExtension></extensions>
      </trkpt>
      <trkpt lat="59.9884205" lon="15.8250621">
        <ele>115.8</ele>
        <time>2013-04-18T21:03:44Z</time>
        <extensions><gpxtpx:TrackPointExtension><gpxtpx:hr>144</gpxtpx:hr></gpxtpx:TrackPointExtension></extensions>
      </trkpt>
      <trkpt lat="59.9884385" lon="15.8250595">
        <ele>115.8</ele>
        <time>2013-04-18T21:03:45Z</time>
        <extensions><gpxtpx:TrackPointExtension><gpxtpx:hr>147</gpxtpx:hr></gpxtpx:TrackPointExtension></extensions>
      </trkpt>
      <trkpt lat="59.9884765" lon="15.8250541">
        <ele>115.8</ele>
        <time>2013-04-18T21:03:46Z</time>
        <extensions><gpxtpx:TrackPointExtension><gpxtpx:hr>149</gpxtpx:hr></gpxtpx:TrackPointExtension></extensions>
      </trkpt>
      <trkpt lat="59.9884949" lon="15.8250505">
        <ele>115.8</ele>
        <time>2013-04-18T21:03:47Z</time>
        <extensions><gpxtpx:TrackPointExtension><gpxtpx:hr>150</gpxtpx:hr></gpxtpx:TrackPointExtension></extensions>
      </trkpt>
      <trkpt lat="59.9885281" lon="15.8250441">
        <ele>115.8</ele>
        <time>2013-04-18T21:03:48Z</time>
        <extensions><gpxtpx:TrackPointExtension><gpxtpx:hr>151</gpxtpx:hr></gpxtpx:TrackPointExtension></extensions>
      </trkpt>
      <trkpt lat="59.9885458" lon="15.8250436">
        <ele>115.8</ele>
        <time>2013-04-18T21:03:49Z</time>
        <extensions><gpxtpx:TrackPointExtension><gpxtpx:hr>151</gpxtpx:hr></gpxtpx:TrackPointExtension></extensions>
      </trkpt>
      <trkpt lat="59.9885773" lon="15.8250348">
        <ele>115.8</ele>
        <time>2013-04-18T21:03:50Z</time>
        <extensions><gpxtpx:TrackPointExtension><gpxtpx:hr>151</gpxtpx:hr></gpxtpx:TrackPointExtension></extensions>
      </trkpt>
      <trkpt lat="59.9885907" lon="15.8250315">
        <ele>115.8</ele>
        <time>2013-04-18T21:03:51Z</time>
        <extensions><gpxtpx:TrackPointExtension><gpxtpx:hr>152</gpxtpx:hr></gpxtpx:TrackPointExtension></extensions>
      </trkpt>
      <trkpt lat="59.9886185" lon="15.8250273">
        <ele>115.8</ele>
        <time>2013-04-18T21:03:52Z</time>
        <extensions><gpxtpx:TrackPointExtension><gpxtpx:hr>152</gpxtpx:hr></gpxtpx:TrackPointExtension></extensions>
      </trkpt>
      <trkpt lat="59.9886381" lon="15.8250229">
        <ele>115.8</ele>
        <time>2013-04-18T21:03:53Z</time>
        <extensions><gpxtpx:TrackPointExtension><gpxtpx:hr>152</gpxtpx:hr></gpxtpx:TrackPointExtension></extensions>
      </trkpt>
      <trkpt lat="59.9886647" lon="15.825021">
        <ele>115.8</ele>
        <time>2013-04-18T21:03:54Z</time>
        <extensions><gpxtpx:TrackPointExtension><gpxtpx:hr>152</gpxtpx:hr></gpxtpx:TrackPointExtension></extensions>
      </trkpt>
      <trkpt lat="59.9886802" lon="15.8250179">
        <ele>115.8</ele>
        <time>2013-04-18T21:03:55Z</time>
        <extensions><gpxtpx:TrackPointExtension><gpxtpx:hr>152</gpxtpx:hr></gpxtpx:TrackPointExtension></extensions>
      </trkpt>
      <trkpt lat="59.9887128" lon="15.8250143">
        <ele>115.8</ele>
        <time>2013-04-18T21:03:56Z</time>
        <extensions><gpxtpx:TrackPointExtension><gpxtpx:hr>152</gpxtpx:hr></gpxtpx:TrackPointExtension></extensions>
      </trkpt>
      <trkpt lat="59.9887374" lon="15.8250114">
        <ele>115.8</ele>
        <time>2013-04-18T21:03:57Z</time>
        <extensions><gpxtpx:TrackPointExtension><gpxtpx:hr>152</gpxtpx:hr></gpxtpx:TrackPointExtension></extensions>
      </trkpt>
      <trkpt lat="59.9887643" lon="15.8250056">
        <ele>115.8</ele>
        <time>2013-04-18T21:03:58Z</time>
        <extensions><gpxtpx:TrackPointExtension><gpxtpx:hr>154</gpxtpx:hr></gpxtpx:TrackPointExtension></extensions>
      </trkpt>
      <trkpt lat="59.9887829" lon="15.8250018">
        <ele>115.8</ele>
        <time>2013-04-18T21:03:59Z</time>
        <extensions><gpxtpx:TrackPointExtension><gpxtpx:hr>154</gpxtpx:hr></gpxtpx:TrackPointExtension></extensions>
      </trkpt>
      <trkpt lat="59.988818" lon="15.8249951">
        <ele>115.8</ele>
        <time>2013-04-18T21:04:00Z</time>
        <extensions><gpxtpx:TrackPointExtension><gpxtpx:hr>153</gpxtpx:hr></gpxtpx:TrackPointExtension></extensions>
      </trkpt>
      <trkpt lat="59.9888313" lon="15.824992">
        <ele>115.8</ele>
        <time>2013-04-18T21:04:01Z</time>
        <extensions><gpxtpx:TrackPointExtension><gpxtpx:hr>153</gpxtpx:hr></gpxtpx:TrackPointExtension></extensions>
      </trkpt>
      <trkpt lat="59.9888628" lon="15.8249852">
        <ele>115.8</ele>
        <time>2013-04-18T21:04:02Z</time>
        <extensions><gpxtpx:TrackPointExtension><gpxtpx:hr>153</gpxtpx:hr></gpxtpx:TrackPointExtension></extensions>
      </trkpt>
      <trkpt lat="59.988872" lon="15.8249765">
        <ele>115.8</ele>
        <time>2013-04-18T21:04:03Z</time>
        <extensions><gpxtpx:TrackPointExtension><gpxtpx:hr>153</gpxtpx:hr></gpxtpx:TrackPointExtension></extensions>
      </trkpt>
      <trkpt lat="59.9888982" lon="15.8249613">
        <ele>115.8</ele>
        <time>2013-04-18T21:04:04Z</time>
        <extensions><gpxtpx:TrackPointExtension><gpxtpx:hr>149</gpxtpx:hr></gpxtpx:TrackPointExtension></extensions>
      </trkpt>
      <trkpt lat="59.988915" lon="15.8249591">
        <ele>115.8</ele>
        <time>2013-04-18T21:04:05Z</time>
        <extensions><gpxtpx:TrackPointExtension><gpxtpx:hr>149</gpxtpx:hr></gpxtpx:TrackPointExtension></extensions>
      </trkpt>
      <trkpt lat="59.98895" lon="15.8249479">
        <ele>115.8</ele>
        <time>2013-04-18T21:04:06Z</time>
        <extensions><gpxtpx:TrackPointExtension><gpxtpx:hr>151</gpxtpx:hr></gpxtpx:TrackPointExtension></extensions>
      </trkpt>
      <trkpt lat="59.9890088" lon="15.8249384">
        <ele>115.8</ele>
        <time>2013-04-18T21:04:08Z</time>
        <extensions><gpxtpx:TrackPointExtension><gpxtpx:hr>151</gpxtpx:hr></gpxtpx:TrackPointExtension></extensions>
      </trkpt>
      <trkpt lat="59.9890601" lon="15.8249261">
        <ele>115.8</ele>
        <time>2013-04-18T21:04:10Z</time>
        <extensions><gpxtpx:TrackPointExtension><gpxtpx:hr>153</gpxtpx:hr></gpxtpx:TrackPointExtension></extensions>
      </trkpt>
      <trkpt lat="59.9890673" lon="15.8249184">
        <ele>115.8</ele>
        <time>2013-04-18T21:04:11Z</time>
        <extensions><gpxtpx:TrackPointExtension><gpxtpx:hr>154</gpxtpx:hr></gpxtpx:TrackPointExtension></extensions>
      </trkpt>
      <trkpt lat="59.9890938" lon="15.8249057">
        <ele>115.8</ele>
        <time>2013-04-18T21:04:12Z</time>
        <extensions><gpxtpx:TrackPointExtension><gpxtpx:hr>152</gpxtpx:hr></gpxtpx:TrackPointExtension></extensions>
      </trkpt>
      <trkpt lat="59.9891162" lon="15.8248998">
        <ele>115.8</ele>
        <time>2013-04-18T21:04:13Z</time>
        <extensions><gpxtpx:TrackPointExtension><gpxtpx:hr>154</gpxtpx:hr></gpxtpx:TrackPointExtension></extensions>
      </trkpt>
      <trkpt lat="59.9891435" lon="15.8248825">
        <ele>115.8</ele>
        <time>2013-04-18T21:04:14Z</time>
        <extensions><gpxtpx:TrackPointExtension><gpxtpx:hr>154</gpxtpx:hr></gpxtpx:TrackPointExtension></extensions>
      </trkpt>
      <trkpt lat="59.9891594" lon="15.8248761">
        <ele>115.8</ele>
        <time>2013-04-18T21:04:15Z</time>
        <extensions><gpxtpx:TrackPointExtension><gpxtpx:hr>154</gpxtpx:hr></gpxtpx:TrackPointExtension></extensions>
      </trkpt>
      <trkpt lat="59.9891928" lon="15.8248661">
        <ele>115.8</ele>
        <time>2013-04-18T21:04:16Z</time>
        <extensions><gpxtpx:TrackPointExtension><gpxtpx:hr>154</gpxtpx:hr></gpxtpx:TrackPointExtension></extensions>
      </trkpt>
      <trkpt lat="59.9892127" lon="15.8248559">
        <ele>115.8</ele>
        <time>2013-04-18T21:04:17Z</time>
        <extensions><gpxtpx:TrackPointExtension><gpxtpx:hr>155</gpxtpx:hr></gpxtpx:TrackPointExtension></extensions>
      </trkpt>
      <trkpt lat="59.989245" lon="15.824842">
        <ele>115.8</ele>
        <time>2013-04-18T21:04:18Z</time>
        <extensions><gpxtpx:TrackPointExtension><gpxtpx:hr>154</gpxtpx:hr></gpxtpx:TrackPointExtension></extensions>
      </trkpt>
      <trkpt lat="59.9892609" lon="15.8248342">
        <ele>115.8</ele>
        <time>2013-04-18T21:04:19Z</time>
        <extensions><gpxtpx:TrackPointExtension><gpxtpx:hr>154</gpxtpx:hr></gpxtpx:TrackPointExtension></extensions>
      </trkpt>
      <trkpt lat="59.9892995" lon="15.8248225">
        <ele>115.8</ele>
        <time>2013-04-18T21:04:20Z</time>
        <extensions><gpxtpx:TrackPointExtension><gpxtpx:hr>153</gpxtpx:hr></gpxtpx:TrackPointExtension></extensions>
      </trkpt>
      <trkpt lat="59.989339" lon="15.8248593">
        <ele>115.8</ele>
        <time>2013-04-18T21:04:22Z</time>
        <extensions><gpxtpx:TrackPointExtension><gpxtpx:hr>151</gpxtpx:hr></gpxtpx:TrackPointExtension></extensions>
      </trkpt>
      <trkpt lat="59.989348" lon="15.8249419">
        <ele>115.8</ele>
        <time>2013-04-18T21:04:24Z</time>
        <extensions><gpxtpx:TrackPointExtension><gpxtpx:hr>151</gpxtpx:hr></gpxtpx:TrackPointExtension></extensions>
      </trkpt>
      <trkpt lat="59.9893199" lon="15.8251836">
        <ele>115.8</ele>
        <time>2013-04-18T21:04:29Z</time>
        <extensions><gpxtpx:TrackPointExtension><gpxtpx:hr>151</gpxtpx:hr></gpxtpx:TrackPointExtension></extensions>
      </trkpt>
      <trkpt lat="59.9893116" lon="15.8252522">
        <ele>115.8</ele>
        <time>2013-04-18T21:04:30Z</time>
        <extensions><gpxtpx:TrackPointExtension><gpxtpx:hr>151</gpxtpx:hr></gpxtpx:TrackPointExtension></extensions>
      </trkpt>
      <trkpt lat="59.9892838" lon="15.825509">
        <ele>116</ele>
        <time>2013-04-18T21:04:35Z</time>
        <extensions><gpxtpx:TrackPointExtension><gpxtpx:hr>152</gpxtpx:hr></gpxtpx:TrackPointExtension></extensions>
      </trkpt>
      <trkpt lat="59.9892756" lon="15.8255766">
        <ele>115.8</ele>
        <time>2013-04-18T21:04:36Z</time>
        <extensions><gpxtpx:TrackPointExtension><gpxtpx:hr>153</gpxtpx:hr></gpxtpx:TrackPointExtension></extensions>
      </trkpt>
      <trkpt lat="59.9892756" lon="15.8256111">
        <ele>115.8</ele>
        <time>2013-04-18T21:04:37Z</time>
        <extensions><gpxtpx:TrackPointExtension><gpxtpx:hr>153</gpxtpx:hr></gpxtpx:TrackPointExtension></extensions>
      </trkpt>
      <trkpt lat="59.9892693" lon="15.8256805">
        <ele>115.8</ele>
        <time>2013-04-18T21:04:38Z</time>
        <extensions><gpxtpx:TrackPointExtension><gpxtpx:hr>153</gpxtpx:hr></gpxtpx:TrackPointExtension></extensions>
      </trkpt>
      <trkpt lat="59.9892705" lon="15.8257062">
        <ele>115.8</ele>
        <time>2013-04-18T21:04:39Z</time>
        <extensions><gpxtpx:TrackPointExtension><gpxtpx:hr>153</gpxtpx:hr></gpxtpx:TrackPointExtension></extensions>
      </trkpt>
      <trkpt lat="59.9892678" lon="15.8257697">
        <ele>115.8</ele>
        <time>2013-04-18T21:04:40Z</time>
        <extensions><gpxtpx:TrackPointExtension><gpxtpx:hr>153</gpxtpx:hr></gpxtpx:TrackPointExtension></extensions>
      </trkpt>
      <trkpt lat="59.9892624" lon="15.8258041">
        <ele>115.8</ele>
        <time>2013-04-18T21:04:41Z</time>
        <extensions><gpxtpx:TrackPointExtension><gpxtpx:hr>155</gpxtpx:hr></gpxtpx:TrackPointExtension></extensions>
      </trkpt>
      <trkpt lat="59.989254" lon="15.8258753">
        <ele>115.8</ele>
        <time>2013-04-18T21:04:42Z</time>
        <extensions><gpxtpx:TrackPointExtension><gpxtpx:hr>154</gpxtpx:hr></gpxtpx:TrackPointExtension></extensions>
      </trkpt>
      <trkpt lat="59.9892561" lon="15.8259101">
        <ele>115.8</ele>
        <time>2013-04-18T21:04:43Z</time>
        <extensions><gpxtpx:TrackPointExtension><gpxtpx:hr>153</gpxtpx:hr></gpxtpx:TrackPointExtension></extensions>
      </trkpt>
      <trkpt lat="59.9892587" lon="15.8260175">
        <ele>115.8</ele>
        <time>2013-04-18T21:04:45Z</time>
        <extensions><gpxtpx:TrackPointExtension><gpxtpx:hr>153</gpxtpx:hr></gpxtpx:TrackPointExtension></extensions>
      </trkpt>
      <trkpt lat="59.9892551" lon="15.8260815">
        <ele>115.8</ele>
        <time>2013-04-18T21:04:46Z</time>
        <extensions><gpxtpx:TrackPointExtension><gpxtpx:hr>154</gpxtpx:hr></gpxtpx:TrackPointExtension></extensions>
      </trkpt>
      <trkpt lat="59.9892501" lon="15.8261233">
        <ele>115.8</ele>
        <time>2013-04-18T21:04:47Z</time>
        <extensions><gpxtpx:TrackPointExtension><gpxtpx:hr>154</gpxtpx:hr></gpxtpx:TrackPointExtension></extensions>
      </trkpt>
      <trkpt lat="59.9892444" lon="15.8261976">
        <ele>115.8</ele>
        <time>2013-04-18T21:04:48Z</time>
        <extensions><gpxtpx:TrackPointExtension><gpxtpx:hr>154</gpxtpx:hr></gpxtpx:TrackPointExtension></extensions>
      </trkpt>
      <trkpt lat="59.9892413" lon="15.8262331">
        <ele>115.8</ele>
        <time>2013-04-18T21:04:49Z</time>
        <extensions><gpxtpx:TrackPointExtension><gpxtpx:hr>154</gpxtpx:hr></gpxtpx:TrackPointExtension></extensions>
      </trkpt>
      <trkpt lat="59.9892341" lon="15.8262994">
        <ele>115.8</ele>
        <time>2013-04-18T21:04:50Z</time>
        <extensions><gpxtpx:TrackPointExtension><gpxtpx:hr>154</gpxtpx:hr></gpxtpx:TrackPointExtension></extensions>
      </trkpt>
      <trkpt lat="59.9892332" lon="15.8263334">
        <ele>115.8</ele>
        <time>2013-04-18T21:04:51Z</time>
        <extensions><gpxtpx:TrackPointExtension><gpxtpx:hr>154</gpxtpx:hr></gpxtpx:TrackPointExtension></extensions>
      </trkpt>
      <trkpt lat="59.9892294" lon="15.8264103">
        <ele>115.8</ele>
        <time>2013-04-18T21:04:52Z</time>
        <extensions><gpxtpx:TrackPointExtension><gpxtpx:hr>154</gpxtpx:hr></gpxtpx:TrackPointExtension></extensions>
      </trkpt>
      <trkpt lat="59.9892202" lon="15.8264484">
        <ele>115.8</ele>
        <time>2013-04-18T21:04:53Z</time>
        <extensions><gpxtpx:TrackPointExtension><gpxtpx:hr>154</gpxtpx:hr></gpxtpx:TrackPointExtension></extensions>
      </trkpt>
      <trkpt lat="59.9892076" lon="15.8265166">
        <ele>115.8</ele>
        <time>2013-04-18T21:04:54Z</time>
        <extensions><gpxtpx:TrackPointExtension><gpxtpx:hr>155</gpxtpx:hr></gpxtpx:TrackPointExtension></extensions>
      </trkpt>
      <trkpt lat="59.9892023" lon="15.8265541">
        <ele>115.8</ele>
        <time>2013-04-18T21:04:55Z</time>
        <extensions><gpxtpx:TrackPointExtension><gpxtpx:hr>155</gpxtpx:hr></gpxtpx:TrackPointExtension></extensions>
      </trkpt>
      <trkpt lat="59.9891889" lon="15.8266238">
        <ele>115.8</ele>
        <time>2013-04-18T21:04:56Z</time>
        <extensions><gpxtpx:TrackPointExtension><gpxtpx:hr>155</gpxtpx:hr></gpxtpx:TrackPointExtension></extensions>
      </trkpt>
      <trkpt lat="59.9891859" lon="15.8266578">
        <ele>115.8</ele>
        <time>2013-04-18T21:04:57Z</time>
        <extensions><gpxtpx:TrackPointExtension><gpxtpx:hr>155</gpxtpx:hr></gpxtpx:TrackPointExtension></extensions>
      </trkpt>
      <trkpt lat="59.9891787" lon="15.8267264">
        <ele>115.8</ele>
        <time>2013-04-18T21:04:58Z</time>
        <extensions><gpxtpx:TrackPointExtension><gpxtpx:hr>156</gpxtpx:hr></gpxtpx:TrackPointExtension></extensions>
      </trkpt>
      <trkpt lat="59.9891737" lon="15.8267638">
        <ele>115.8</ele>
        <time>2013-04-18T21:04:59Z</time>
        <extensions><gpxtpx:TrackPointExtension><gpxtpx:hr>155</gpxtpx:hr></gpxtpx:TrackPointExtension></extensions>
      </trkpt>
      <trkpt lat="59.9891614" lon="15.8268347">
        <ele>115.8</ele>
        <time>2013-04-18T21:05:00Z</time>
        <extensions><gpxtpx:TrackPointExtension><gpxtpx:hr>155</gpxtpx:hr></gpxtpx:TrackPointExtension></extensions>
      </trkpt>
      <trkpt lat="59.989158" lon="15.8268611">
        <ele>115.8</ele>
        <time>2013-04-18T21:05:01Z</time>
        <extensions><gpxtpx:TrackPointExtension><gpxtpx:hr>155</gpxtpx:hr></gpxtpx:TrackPointExtension></extensions>
      </trkpt>
      <trkpt lat="59.9891466" lon="15.8269282">
        <ele>115.8</ele>
        <time>2013-04-18T21:05:02Z</time>
        <extensions><gpxtpx:TrackPointExtension><gpxtpx:hr>155</gpxtpx:hr></gpxtpx:TrackPointExtension></extensions>
      </trkpt>
      <trkpt lat="59.9891431" lon="15.8269607">
        <ele>115.8</ele>
        <time>2013-04-18T21:05:03Z</time>
        <extensions><gpxtpx:TrackPointExtension><gpxtpx:hr>155</gpxtpx:hr></gpxtpx:TrackPointExtension></extensions>
      </trkpt>
      <trkpt lat="59.9891308" lon="15.8270248">
        <ele>115.8</ele>
        <time>2013-04-18T21:05:04Z</time>
        <extensions><gpxtpx:TrackPointExtension><gpxtpx:hr>155</gpxtpx:hr></gpxtpx:TrackPointExtension></extensions>
      </trkpt>
      <trkpt lat="59.9891252" lon="15.8270618">
        <ele>115.8</ele>
        <time>2013-04-18T21:05:05Z</time>
        <extensions><gpxtpx:TrackPointExtension><gpxtpx:hr>155</gpxtpx:hr></gpxtpx:TrackPointExtension></extensions>
      </trkpt>
      <trkpt lat="59.989114" lon="15.8271243">
        <ele>115.8</ele>
        <time>2013-04-18T21:05:06Z</time>
        <extensions><gpxtpx:TrackPointExtension><gpxtpx:hr>154</gpxtpx:hr></gpxtpx:TrackPointExtension></extensions>
      </trkpt>
      <trkpt lat="59.9891056" lon="15.8271617">
        <ele>115.8</ele>
        <time>2013-04-18T21:05:07Z</time>
        <extensions><gpxtpx:TrackPointExtension><gpxtpx:hr>154</gpxtpx:hr></gpxtpx:TrackPointExtension></extensions>
      </trkpt>
      <trkpt lat="59.9890678" lon="15.8273638">
        <ele>115.8</ele>
        <time>2013-04-18T21:05:11Z</time>
        <extensions><gpxtpx:TrackPointExtension><gpxtpx:hr>154</gpxtpx:hr></gpxtpx:TrackPointExtension></extensions>
      </trkpt>
      <trkpt lat="59.98906" lon="15.8274282">
        <ele>115.8</ele>
        <time>2013-04-18T21:05:12Z</time>
        <extensions><gpxtpx:TrackPointExtension><gpxtpx:hr>154</gpxtpx:hr></gpxtpx:TrackPointExtension></extensions>
      </trkpt>
      <trkpt lat="59.9890513" lon="15.8274686">
        <ele>115.8</ele>
        <time>2013-04-18T21:05:13Z</time>
        <extensions><gpxtpx:TrackPointExtension><gpxtpx:hr>154</gpxtpx:hr></gpxtpx:TrackPointExtension></extensions>
      </trkpt>
      <trkpt lat="59.9890399" lon="15.8275473">
        <ele>115.8</ele>
        <time>2013-04-18T21:05:14Z</time>
        <extensions><gpxtpx:TrackPointExtension><gpxtpx:hr>154</gpxtpx:hr></gpxtpx:TrackPointExtension></extensions>
      </trkpt>
      <trkpt lat="59.9890288" lon="15.827592">
        <ele>115.8</ele>
        <time>2013-04-18T21:05:15Z</time>
        <extensions><gpxtpx:TrackPointExtension><gpxtpx:hr>161</gpxtpx:hr></gpxtpx:TrackPointExtension></extensions>
      </trkpt>
      <trkpt lat="59.9890137" lon="15.8276776">
        <ele>115.8</ele>
        <time>2013-04-18T21:05:16Z</time>
        <extensions><gpxtpx:TrackPointExtension><gpxtpx:hr>166</gpxtpx:hr></gpxtpx:TrackPointExtension></extensions>
      </trkpt>
      <trkpt lat="59.9889972" lon="15.8277366">
        <ele>116</ele>
        <time>2013-04-18T21:05:17Z</time>
        <extensions><gpxtpx:TrackPointExtension><gpxtpx:hr>165</gpxtpx:hr></gpxtpx:TrackPointExtension></extensions>
      </trkpt>
      <trkpt lat="59.9889785" lon="15.8278223">
        <ele>115.8</ele>
        <time>2013-04-18T21:05:18Z</time>
        <extensions><gpxtpx:TrackPointExtension><gpxtpx:hr>164</gpxtpx:hr></gpxtpx:TrackPointExtension></extensions>
      </trkpt>
      <trkpt lat="59.9889713" lon="15.8278626">
        <ele>115.8</ele>
        <time>2013-04-18T21:05:19Z</time>
        <extensions><gpxtpx:TrackPointExtension><gpxtpx:hr>164</gpxtpx:hr></gpxtpx:TrackPointExtension></extensions>
      </trkpt>
      <trkpt lat="59.9889529" lon="15.8279476">
        <ele>115.8</ele>
        <time>2013-04-18T21:05:20Z</time>
        <extensions><gpxtpx:TrackPointExtension><gpxtpx:hr>164</gpxtpx:hr></gpxtpx:TrackPointExtension></extensions>
      </trkpt>
      <trkpt lat="59.9889469" lon="15.8279823">
        <ele>117.2</ele>
        <time>2013-04-18T21:05:21Z</time>
        <extensions><gpxtpx:TrackPointExtension><gpxtpx:hr>162</gpxtpx:hr></gpxtpx:TrackPointExtension></extensions>
      </trkpt>
      <trkpt lat="59.9889266" lon="15.8280686">
        <ele>118.4</ele>
        <time>2013-04-18T21:05:22Z</time>
        <extensions><gpxtpx:TrackPointExtension><gpxtpx:hr>167</gpxtpx:hr></gpxtpx:TrackPointExtension></extensions>
      </trkpt>
      <trkpt lat="59.9889176" lon="15.8281075">
        <ele>118.4</ele>
        <time>2013-04-18T21:05:23Z</time>
        <extensions><gpxtpx:TrackPointExtension><gpxtpx:hr>167</gpxtpx:hr></gpxtpx:TrackPointExtension></extensions>
      </trkpt>
      <trkpt lat="59.9888998" lon="15.8281821">
        <ele>118.4</ele>
        <time>2013-04-18T21:05:24Z</time>
        <extensions><gpxtpx:TrackPointExtension><gpxtpx:hr>167</gpxtpx:hr></gpxtpx:TrackPointExtension></extensions>
      </trkpt>
      <trkpt lat="59.9888828" lon="15.8282301">
        <ele>119.6</ele>
        <time>2013-04-18T21:05:25Z</time>
        <extensions><gpxtpx:TrackPointExtension><gpxtpx:hr>166</gpxtpx:hr></gpxtpx:TrackPointExtension></extensions>
      </trkpt>
      <trkpt lat="59.9888575" lon="15.8283168">
        <ele>119.6</ele>
        <time>2013-04-18T21:05:26Z</time>
        <extensions><gpxtpx:TrackPointExtension><gpxtpx:hr>165</gpxtpx:hr></gpxtpx:TrackPointExtension></extensions>
      </trkpt>
      <trkpt lat="59.9888516" lon="15.8283528">
        <ele>121</ele>
        <time>2013-04-18T21:05:27Z</time>
        <extensions><gpxtpx:TrackPointExtension><gpxtpx:hr>165</gpxtpx:hr></gpxtpx:TrackPointExtension></extensions>
      </trkpt>
      <trkpt lat="59.9888296" lon="15.8284379">
        <ele>120.8</ele>
        <time>2013-04-18T21:05:28Z</time>
        <extensions><gpxtpx:TrackPointExtension><gpxtpx:hr>164</gpxtpx:hr></gpxtpx:TrackPointExtension></extensions>
      </trkpt>
      <trkpt lat="59.9888227" lon="15.8284787">
        <ele>120.8</ele>
        <time>2013-04-18T21:05:29Z</time>
        <extensions><gpxtpx:TrackPointExtension><gpxtpx:hr>164</gpxtpx:hr></gpxtpx:TrackPointExtension></extensions>
      </trkpt>
      <trkpt lat="59.9888113" lon="15.8285455">
        <ele>120.8</ele>
        <time>2013-04-18T21:05:30Z</time>
        <extensions><gpxtpx:TrackPointExtension><gpxtpx:hr>164</gpxtpx:hr></gpxtpx:TrackPointExtension></extensions>
      </trkpt>
      <trkpt lat="59.9888041" lon="15.8285843">
        <ele>120.8</ele>
        <time>2013-04-18T21:05:31Z</time>
        <extensions><gpxtpx:TrackPointExtension><gpxtpx:hr>165</gpxtpx:hr></gpxtpx:TrackPointExtension></extensions>
      </trkpt>
      <trkpt lat="59.9887847" lon="15.82867">
        <ele>122.2</ele>
        <time>2013-04-18T21:05:32Z</time>
        <extensions><gpxtpx:TrackPointExtension><gpxtpx:hr>170</gpxtpx:hr></gpxtpx:TrackPointExtension></extensions>
      </trkpt>
      <trkpt lat="59.9887741" lon="15.8287158">
        <ele>122.2</ele>
        <time>2013-04-18T21:05:33Z</time>
        <extensions><gpxtpx:TrackPointExtension><gpxtpx:hr>170</gpxtpx:hr></gpxtpx:TrackPointExtension></extensions>
      </trkpt>
      <trkpt lat="59.988756" lon="15.828788">
        <ele>122.2</ele>
        <time>2013-04-18T21:05:34Z</time>
        <extensions><gpxtpx:TrackPointExtension><gpxtpx:hr>169</gpxtpx:hr></gpxtpx:TrackPointExtension></extensions>
      </trkpt>
      <trkpt lat="59.9887477" lon="15.8288208">
        <ele>122.2</ele>
        <time>2013-04-18T21:05:35Z</time>
        <extensions><gpxtpx:TrackPointExtension><gpxtpx:hr>168</gpxtpx:hr></gpxtpx:TrackPointExtension></extensions>
      </trkpt>
      <trkpt lat="59.9887259" lon="15.8289029">
        <ele>123.6</ele>
        <time>2013-04-18T21:05:36Z</time>
        <extensions><gpxtpx:TrackPointExtension><gpxtpx:hr>168</gpxtpx:hr></gpxtpx:TrackPointExtension></extensions>
      </trkpt>
      <trkpt lat="59.9887144" lon="15.8289464">
        <ele>124.8</ele>
        <time>2013-04-18T21:05:37Z</time>
        <extensions><gpxtpx:TrackPointExtension><gpxtpx:hr>168</gpxtpx:hr></gpxtpx:TrackPointExtension></extensions>
      </trkpt>
      <trkpt lat="59.9886918" lon="15.8290271">
        <ele>124.8</ele>
        <time>2013-04-18T21:05:38Z</time>
        <extensions><gpxtpx:TrackPointExtension><gpxtpx:hr>170</gpxtpx:hr></gpxtpx:TrackPointExtension></extensions>
      </trkpt>
      <trkpt lat="59.9886828" lon="15.8290596">
        <ele>124.6</ele>
        <time>2013-04-18T21:05:39Z</time>
        <extensions><gpxtpx:TrackPointExtension><gpxtpx:hr>170</gpxtpx:hr></gpxtpx:TrackPointExtension></extensions>
      </trkpt>
      <trkpt lat="59.9886608" lon="15.8291318">
        <ele>124.8</ele>
        <time>2013-04-18T21:05:40Z</time>
        <extensions><gpxtpx:TrackPointExtension><gpxtpx:hr>169</gpxtpx:hr></gpxtpx:TrackPointExtension></extensions>
      </trkpt>
      <trkpt lat="59.9886521" lon="15.8291554">
        <ele>124.6</ele>
        <time>2013-04-18T21:05:41Z</time>
        <extensions><gpxtpx:TrackPointExtension><gpxtpx:hr>169</gpxtpx:hr></gpxtpx:TrackPointExtension></extensions>
      </trkpt>
      <trkpt lat="59.988635" lon="15.8292003">
        <ele>124.8</ele>
        <time>2013-04-18T21:05:42Z</time>
        <extensions><gpxtpx:TrackPointExtension><gpxtpx:hr>169</gpxtpx:hr></gpxtpx:TrackPointExtension></extensions>
      </trkpt>
      <trkpt lat="59.9886345" lon="15.8291931">
        <ele>125.8</ele>
        <time>2013-04-18T21:05:43Z</time>
        <extensions><gpxtpx:TrackPointExtension><gpxtpx:hr>168</gpxtpx:hr></gpxtpx:TrackPointExtension></extensions>
      </trkpt>
      <trkpt lat="59.9886319" lon="15.8291931">
        <ele>125.6</ele>
        <time>2013-04-18T21:05:44Z</time>
        <extensions><gpxtpx:TrackPointExtension><gpxtpx:hr>168</gpxtpx:hr></gpxtpx:TrackPointExtension></extensions>
      </trkpt>
      <trkpt lat="59.9886368" lon="15.8291733">
        <ele>125.6</ele>
        <time>2013-04-18T21:05:45Z</time>
        <extensions><gpxtpx:TrackPointExtension><gpxtpx:hr>168</gpxtpx:hr></gpxtpx:TrackPointExtension></extensions>
      </trkpt>
      <trkpt lat="59.9886456" lon="15.8291453">
        <ele>125.6</ele>
        <time>2013-04-18T21:05:46Z</time>
        <extensions><gpxtpx:TrackPointExtension><gpxtpx:hr>167</gpxtpx:hr></gpxtpx:TrackPointExtension></extensions>
      </trkpt>
      <trkpt lat="59.9886569" lon="15.82912">
        <ele>125.6</ele>
        <time>2013-04-18T21:05:47Z</time>
        <extensions><gpxtpx:TrackPointExtension><gpxtpx:hr>167</gpxtpx:hr></gpxtpx:TrackPointExtension></extensions>
      </trkpt>
      <trkpt lat="59.9886977" lon="15.8290154">
        <ele>125.6</ele>
        <time>2013-04-18T21:05:50Z</time>
        <extensions><gpxtpx:TrackPointExtension><gpxtpx:hr>165</gpxtpx:hr></gpxtpx:TrackPointExtension></extensions>
      </trkpt>
      <trkpt lat="59.98871" lon="15.8289836">
        <ele>125.6</ele>
        <time>2013-04-18T21:05:51Z</time>
        <extensions><gpxtpx:TrackPointExtension><gpxtpx:hr>165</gpxtpx:hr></gpxtpx:TrackPointExtension></extensions>
      </trkpt>
      <trkpt lat="59.988728" lon="15.8289242">
        <ele>125.6</ele>
        <time>2013-04-18T21:05:52Z</time>
        <extensions><gpxtpx:TrackPointExtension><gpxtpx:hr>164</gpxtpx:hr></gpxtpx:TrackPointExtension></extensions>
      </trkpt>
      <trkpt lat="59.9887344" lon="15.8289019">
        <ele>125.6</ele>
        <time>2013-04-18T21:05:53Z</time>
        <extensions><gpxtpx:TrackPointExtension><gpxtpx:hr>162</gpxtpx:hr></gpxtpx:TrackPointExtension></extensions>
      </trkpt>
      <trkpt lat="59.9887555" lon="15.8288418">
        <ele>125.6</ele>
        <time>2013-04-18T21:05:54Z</time>
        <extensions><gpxtpx:TrackPointExtension><gpxtpx:hr>161</gpxtpx:hr></gpxtpx:TrackPointExtension></extensions>
      </trkpt>
      <trkpt lat="59.9887658" lon="15.828815">
        <ele>125.6</ele>
        <time>2013-04-18T21:05:55Z</time>
        <extensions><gpxtpx:TrackPointExtension><gpxtpx:hr>160</gpxtpx:hr></gpxtpx:TrackPointExtension></extensions>
      </trkpt>
      <trkpt lat="59.9887845" lon="15.8287685">
        <ele>122.6</ele>
        <time>2013-04-18T21:05:56Z</time>
        <extensions><gpxtpx:TrackPointExtension><gpxtpx:hr>160</gpxtpx:hr></gpxtpx:TrackPointExtension></extensions>
      </trkpt>
      <trkpt lat="59.9887949" lon="15.8287392">
        <ele>122.6</ele>
        <time>2013-04-18T21:05:57Z</time>
        <extensions><gpxtpx:TrackPointExtension><gpxtpx:hr>160</gpxtpx:hr></gpxtpx:TrackPointExtension></extensions>
      </trkpt>
      <trkpt lat="59.9888106" lon="15.8286874">
        <ele>122.6</ele>
        <time>2013-04-18T21:05:58Z</time>
        <extensions><gpxtpx:TrackPointExtension><gpxtpx:hr>160</gpxtpx:hr></gpxtpx:TrackPointExtension></extensions>
      </trkpt>
      <trkpt lat="59.9888332" lon="15.828615">
        <ele>122.6</ele>
        <time>2013-04-18T21:06:00Z</time>
        <extensions><gpxtpx:TrackPointExtension><gpxtpx:hr>158</gpxtpx:hr></gpxtpx:TrackPointExtension></extensions>
      </trkpt>
      <trkpt lat="59.9888393" lon="15.8285887">
        <ele>121.4</ele>
        <time>2013-04-18T21:06:01Z</time>
        <extensions><gpxtpx:TrackPointExtension><gpxtpx:hr>158</gpxtpx:hr></gpxtpx:TrackPointExtension></extensions>
      </trkpt>
      <trkpt lat="59.9888528" lon="15.8285361">
        <ele>121.4</ele>
        <time>2013-04-18T21:06:02Z</time>
        <extensions><gpxtpx:TrackPointExtension><gpxtpx:hr>157</gpxtpx:hr></gpxtpx:TrackPointExtension></extensions>
      </trkpt>
      <trkpt lat="59.9888746" lon="15.8284631">
        <ele>121.4</ele>
        <time>2013-04-18T21:06:04Z</time>
        <extensions><gpxtpx:TrackPointExtension><gpxtpx:hr>157</gpxtpx:hr></gpxtpx:TrackPointExtension></extensions>
      </trkpt>
      <trkpt lat="59.9888819" lon="15.8284321">
        <ele>121.4</ele>
        <time>2013-04-18T21:06:05Z</time>
        <extensions><gpxtpx:TrackPointExtension><gpxtpx:hr>157</gpxtpx:hr></gpxtpx:TrackPointExtension></extensions>
      </trkpt>
      <trkpt lat="59.9888941" lon="15.8283805">
        <ele>120.2</ele>
        <time>2013-04-18T21:06:06Z</time>
        <extensions><gpxtpx:TrackPointExtension><gpxtpx:hr>157</gpxtpx:hr></gpxtpx:TrackPointExtension></extensions>
      </trkpt>
      <trkpt lat="59.988904" lon="15.8283475">
        <ele>120.2</ele>
        <time>2013-04-18T21:06:07Z</time>
        <extensions><gpxtpx:TrackPointExtension><gpxtpx:hr>156</gpxtpx:hr></gpxtpx:TrackPointExtension></extensions>
      </trkpt>
      <trkpt lat="59.9889166" lon="15.8283047">
        <ele>120.2</ele>
        <time>2013-04-18T21:06:08Z</time>
        <extensions><gpxtpx:TrackPointExtension><gpxtpx:hr>156</gpxtpx:hr></gpxtpx:TrackPointExtension></extensions>
      </trkpt>
      <trkpt lat="59.9889245" lon="15.8282759">
        <ele>120.2</ele>
        <time>2013-04-18T21:06:09Z</time>
        <extensions><gpxtpx:TrackPointExtension><gpxtpx:hr>155</gpxtpx:hr></gpxtpx:TrackPointExtension></extensions>
      </trkpt>
      <trkpt lat="59.9889388" lon="15.8282215">
        <ele>120.2</ele>
        <time>2013-04-18T21:06:10Z</time>
        <extensions><gpxtpx:TrackPointExtension><gpxtpx:hr>155</gpxtpx:hr></gpxtpx:TrackPointExtension></extensions>
      </trkpt>
      <trkpt lat="59.9889466" lon="15.8281973">
        <ele>119</ele>
        <time>2013-04-18T21:06:11Z</time>
        <extensions><gpxtpx:TrackPointExtension><gpxtpx:hr>154</gpxtpx:hr></gpxtpx:TrackPointExtension></extensions>
      </trkpt>
      <trkpt lat="59.9889632" lon="15.8281487">
        <ele>119</ele>
        <time>2013-04-18T21:06:12Z</time>
        <extensions><gpxtpx:TrackPointExtension><gpxtpx:hr>154</gpxtpx:hr></gpxtpx:TrackPointExtension></extensions>
      </trkpt>
      <trkpt lat="59.988971" lon="15.8281236">
        <ele>119.2</ele>
        <time>2013-04-18T21:06:13Z</time>
        <extensions><gpxtpx:TrackPointExtension><gpxtpx:hr>154</gpxtpx:hr></gpxtpx:TrackPointExtension></extensions>
      </trkpt>
      <trkpt lat="59.9889844" lon="15.82808">
        <ele>118</ele>
        <time>2013-04-18T21:06:14Z</time>
        <extensions><gpxtpx:TrackPointExtension><gpxtpx:hr>154</gpxtpx:hr></gpxtpx:TrackPointExtension></extensions>
      </trkpt>
      <trkpt lat="59.9889907" lon="15.8280555">
        <ele>118</ele>
        <time>2013-04-18T21:06:15Z</time>
        <extensions><gpxtpx:TrackPointExtension><gpxtpx:hr>153</gpxtpx:hr></gpxtpx:TrackPointExtension></extensions>
      </trkpt>
      <trkpt lat="59.9890047" lon="15.8280073">
        <ele>118</ele>
        <time>2013-04-18T21:06:16Z</time>
        <extensions><gpxtpx:TrackPointExtension><gpxtpx:hr>153</gpxtpx:hr></gpxtpx:TrackPointExtension></extensions>
      </trkpt>
      <trkpt lat="59.9890094" lon="15.8279824">
        <ele>118</ele>
        <time>2013-04-18T21:06:17Z</time>
        <extensions><gpxtpx:TrackPointExtension><gpxtpx:hr>153</gpxtpx:hr></gpxtpx:TrackPointExtension></extensions>
      </trkpt>
      <trkpt lat="59.9890222" lon="15.8279309">
        <ele>117</ele>
        <time>2013-04-18T21:06:18Z</time>
        <extensions><gpxtpx:TrackPointExtension><gpxtpx:hr>152</gpxtpx:hr></gpxtpx:TrackPointExtension></extensions>
      </trkpt>
      <trkpt lat="59.989028" lon="15.8279008">
        <ele>117</ele>
        <time>2013-04-18T21:06:19Z</time>
        <extensions><gpxtpx:TrackPointExtension><gpxtpx:hr>152</gpxtpx:hr></gpxtpx:TrackPointExtension></extensions>
      </trkpt>
      <trkpt lat="59.9890402" lon="15.8278467">
        <ele>117</ele>
        <time>2013-04-18T21:06:20Z</time>
        <extensions><gpxtpx:TrackPointExtension><gpxtpx:hr>152</gpxtpx:hr></gpxtpx:TrackPointExtension></extensions>
      </trkpt>
      <trkpt lat="59.9890463" lon="15.8278263">
        <ele>117</ele>
        <time>2013-04-18T21:06:21Z</time>
        <extensions><gpxtpx:TrackPointExtension><gpxtpx:hr>152</gpxtpx:hr></gpxtpx:TrackPointExtension></extensions>
      </trkpt>
      <trkpt lat="59.9890621" lon="15.8277691">
        <ele>117</ele>
        <time>2013-04-18T21:06:22Z</time>
        <extensions><gpxtpx:TrackPointExtension><gpxtpx:hr>152</gpxtpx:hr></gpxtpx:TrackPointExtension></extensions>
      </trkpt>
      <trkpt lat="59.9890671" lon="15.8277415">
        <ele>116</ele>
        <time>2013-04-18T21:06:23Z</time>
        <extensions><gpxtpx:TrackPointExtension><gpxtpx:hr>152</gpxtpx:hr></gpxtpx:TrackPointExtension></extensions>
      </trkpt>
      <trkpt lat="59.9890797" lon="15.8276849">
        <ele>116</ele>
        <time>2013-04-18T21:06:24Z</time>
        <extensions><gpxtpx:TrackPointExtension><gpxtpx:hr>152</gpxtpx:hr></gpxtpx:TrackPointExtension></extensions>
      </trkpt>
      <trkpt lat="59.9890865" lon="15.8276577">
        <ele>116</ele>
        <time>2013-04-18T21:06:25Z</time>
        <extensions><gpxtpx:TrackPointExtension><gpxtpx:hr>154</gpxtpx:hr></gpxtpx:TrackPointExtension></extensions>
      </trkpt>
      <trkpt lat="59.9890992" lon="15.8276074">
        <ele>116</ele>
        <time>2013-04-18T21:06:26Z</time>
        <extensions><gpxtpx:TrackPointExtension><gpxtpx:hr>154</gpxtpx:hr></gpxtpx:TrackPointExtension></extensions>
      </trkpt>
      <trkpt lat="59.9891079" lon="15.8275765">
        <ele>116</ele>
        <time>2013-04-18T21:06:27Z</time>
        <extensions><gpxtpx:TrackPointExtension><gpxtpx:hr>154</gpxtpx:hr></gpxtpx:TrackPointExtension></extensions>
      </trkpt>
      <trkpt lat="59.9891219" lon="15.8275203">
        <ele>116</ele>
        <time>2013-04-18T21:06:28Z</time>
        <extensions><gpxtpx:TrackPointExtension><gpxtpx:hr>154</gpxtpx:hr></gpxtpx:TrackPointExtension></extensions>
      </trkpt>
      <trkpt lat="59.9891273" lon="15.827493">
        <ele>116</ele>
        <time>2013-04-18T21:06:29Z</time>
        <extensions><gpxtpx:TrackPointExtension><gpxtpx:hr>153</gpxtpx:hr></gpxtpx:TrackPointExtension></extensions>
      </trkpt>
      <trkpt lat="59.9891402" lon="15.8274406">
        <ele>116</ele>
        <time>2013-04-18T21:06:30Z</time>
        <extensions><gpxtpx:TrackPointExtension><gpxtpx:hr>153</gpxtpx:hr></gpxtpx:TrackPointExtension></extensions>
      </trkpt>
      <trkpt lat="59.9891462" lon="15.8274115">
        <ele>116</ele>
        <time>2013-04-18T21:06:31Z</time>
        <extensions><gpxtpx:TrackPointExtension><gpxtpx:hr>152</gpxtpx:hr></gpxtpx:TrackPointExtension></extensions>
      </trkpt>
      <trkpt lat="59.9891592" lon="15.8273481">
        <ele>116</ele>
        <time>2013-04-18T21:06:32Z</time>
        <extensions><gpxtpx:TrackPointExtension><gpxtpx:hr>152</gpxtpx:hr></gpxtpx:TrackPointExtension></extensions>
      </trkpt>
      <trkpt lat="59.9891643" lon="15.8273185">
        <ele>114.8</ele>
        <time>2013-04-18T21:06:33Z</time>
        <extensions><gpxtpx:TrackPointExtension><gpxtpx:hr>151</gpxtpx:hr></gpxtpx:TrackPointExtension></extensions>
      </trkpt>
      <trkpt lat="59.9891762" lon="15.8272659">
        <ele>114.8</ele>
        <time>2013-04-18T21:06:34Z</time>
        <extensions><gpxtpx:TrackPointExtension><gpxtpx:hr>151</gpxtpx:hr></gpxtpx:TrackPointExtension></extensions>
      </trkpt>
      <trkpt lat="59.9891834" lon="15.8272477">
        <ele>114.8</ele>
        <time>2013-04-18T21:06:35Z</time>
        <extensions><gpxtpx:TrackPointExtension><gpxtpx:hr>151</gpxtpx:hr></gpxtpx:TrackPointExtension></extensions>
      </trkpt>
      <trkpt lat="59.9891918" lon="15.8272408">
        <ele>113.6</ele>
        <time>2013-04-18T21:06:36Z</time>
        <extensions><gpxtpx:TrackPointExtension><gpxtpx:hr>151</gpxtpx:hr></gpxtpx:TrackPointExtension></extensions>
      </trkpt>
      <trkpt lat="59.9891883" lon="15.8272731">
        <ele>113.8</ele>
        <time>2013-04-18T21:06:37Z</time>
        <extensions><gpxtpx:TrackPointExtension><gpxtpx:hr>151</gpxtpx:hr></gpxtpx:TrackPointExtension></extensions>
      </trkpt>
      <trkpt lat="59.9891689" lon="15.827353">
        <ele>113.6</ele>
        <time>2013-04-18T21:06:38Z</time>
        <extensions><gpxtpx:TrackPointExtension><gpxtpx:hr>151</gpxtpx:hr></gpxtpx:TrackPointExtension></extensions>
      </trkpt>
      <trkpt lat="59.9891533" lon="15.8274052">
        <ele>113.8</ele>
        <time>2013-04-18T21:06:39Z</time>
        <extensions><gpxtpx:TrackPointExtension><gpxtpx:hr>151</gpxtpx:hr></gpxtpx:TrackPointExtension></extensions>
      </trkpt>
      <trkpt lat="59.9891073" lon="15.8275581">
        <ele>113.8</ele>
        <time>2013-04-18T21:06:41Z</time>
        <extensions><gpxtpx:TrackPointExtension><gpxtpx:hr>151</gpxtpx:hr></gpxtpx:TrackPointExtension></extensions>
      </trkpt>
      <trkpt lat="59.9890797" lon="15.8276591">
        <ele>113.8</ele>
        <time>2013-04-18T21:06:42Z</time>
        <extensions><gpxtpx:TrackPointExtension><gpxtpx:hr>155</gpxtpx:hr></gpxtpx:TrackPointExtension></extensions>
      </trkpt>
      <trkpt lat="59.9890073" lon="15.8279558">
        <ele>113.8</ele>
        <time>2013-04-18T21:06:46Z</time>
        <extensions><gpxtpx:TrackPointExtension><gpxtpx:hr>155</gpxtpx:hr></gpxtpx:TrackPointExtension></extensions>
      </trkpt>
      <trkpt lat="59.9889954" lon="15.8280052">
        <ele>116.8</ele>
        <time>2013-04-18T21:06:47Z</time>
        <extensions><gpxtpx:TrackPointExtension><gpxtpx:hr>155</gpxtpx:hr></gpxtpx:TrackPointExtension></extensions>
      </trkpt>
      <trkpt lat="59.9889767" lon="15.8280791">
        <ele>116.8</ele>
        <time>2013-04-18T21:06:48Z</time>
        <extensions><gpxtpx:TrackPointExtension><gpxtpx:hr>155</gpxtpx:hr></gpxtpx:TrackPointExtension></extensions>
      </trkpt>
      <trkpt lat="59.9889265" lon="15.8282753">
        <ele>118</ele>
        <time>2013-04-18T21:06:51Z</time>
        <extensions><gpxtpx:TrackPointExtension><gpxtpx:hr>158</gpxtpx:hr></gpxtpx:TrackPointExtension></extensions>
      </trkpt>
      <trkpt lat="59.9888589" lon="15.8285157">
        <ele>118</ele>
        <time>2013-04-18T21:06:54Z</time>
        <extensions><gpxtpx:TrackPointExtension><gpxtpx:hr>160</gpxtpx:hr></gpxtpx:TrackPointExtension></extensions>
      </trkpt>
      <trkpt lat="59.988847" lon="15.8285637">
        <ele>119</ele>
        <time>2013-04-18T21:06:55Z</time>
        <extensions><gpxtpx:TrackPointExtension><gpxtpx:hr>161</gpxtpx:hr></gpxtpx:TrackPointExtension></extensions>
      </trkpt>
      <trkpt lat="59.9888259" lon="15.8286518">
        <ele>120.2</ele>
        <time>2013-04-18T21:06:56Z</time>
        <extensions><gpxtpx:TrackPointExtension><gpxtpx:hr>161</gpxtpx:hr></gpxtpx:TrackPointExtension></extensions>
      </trkpt>
      <trkpt lat="59.9887841" lon="15.8287865">
        <ele>121.4</ele>
        <time>2013-04-18T21:06:58Z</time>
        <extensions><gpxtpx:TrackPointExtension><gpxtpx:hr>163</gpxtpx:hr></gpxtpx:TrackPointExtension></extensions>
      </trkpt>
      <trkpt lat="59.9887707" lon="15.828831">
        <ele>121.6</ele>
        <time>2013-04-18T21:06:59Z</time>
        <extensions><gpxtpx:TrackPointExtension><gpxtpx:hr>164</gpxtpx:hr></gpxtpx:TrackPointExtension></extensions>
      </trkpt>
      <trkpt lat="59.9887502" lon="15.8289175">
        <ele>121.6</ele>
        <time>2013-04-18T21:07:00Z</time>
        <extensions><gpxtpx:TrackPointExtension><gpxtpx:hr>165</gpxtpx:hr></gpxtpx:TrackPointExtension></extensions>
      </trkpt>
      <trkpt lat="59.9887368" lon="15.8289584">
        <ele>121.6</ele>
        <time>2013-04-18T21:07:01Z</time>
        <extensions><gpxtpx:TrackPointExtension><gpxtpx:hr>165</gpxtpx:hr></gpxtpx:TrackPointExtension></extensions>
      </trkpt>
      <trkpt lat="59.9887097" lon="15.8290528">
        <ele>121.4</ele>
        <time>2013-04-18T21:07:02Z</time>
        <extensions><gpxtpx:TrackPointExtension><gpxtpx:hr>166</gpxtpx:hr></gpxtpx:TrackPointExtension></extensions>
      </trkpt>
      <trkpt lat="59.9886638" lon="15.8292089">
        <ele>121.4</ele>
        <time>2013-04-18T21:07:05Z</time>
        <extensions><gpxtpx:TrackPointExtension><gpxtpx:hr>166</gpxtpx:hr></gpxtpx:TrackPointExtension></extensions>
      </trkpt>
      <trkpt lat="59.9886486" lon="15.8292469">
        <ele>121.4</ele>
        <time>2013-04-18T21:07:06Z</time>
        <extensions><gpxtpx:TrackPointExtension><gpxtpx:hr>168</gpxtpx:hr></gpxtpx:TrackPointExtension></extensions>
      </trkpt>
      <trkpt lat="59.9886436" lon="15.8292458">
        <ele>121.4</ele>
        <time>2013-04-18T21:07:07Z</time>
        <extensions><gpxtpx:TrackPointExtension><gpxtpx:hr>169</gpxtpx:hr></gpxtpx:TrackPointExtension></extensions>
      </trkpt>
      <trkpt lat="59.9886396" lon="15.8292356">
        <ele>121.4</ele>
        <time>2013-04-18T21:07:08Z</time>
        <extensions><gpxtpx:TrackPointExtension><gpxtpx:hr>169</gpxtpx:hr></gpxtpx:TrackPointExtension></extensions>
      </trkpt>
      <trkpt lat="59.9886395" lon="15.8292241">
        <ele>121.4</ele>
        <time>2013-04-18T21:07:09Z</time>
        <extensions><gpxtpx:TrackPointExtension><gpxtpx:hr>170</gpxtpx:hr></gpxtpx:TrackPointExtension></extensions>
      </trkpt>
      <trkpt lat="59.9886393" lon="15.8292033">
        <ele>121.4</ele>
        <time>2013-04-18T21:07:10Z</time>
        <extensions><gpxtpx:TrackPointExtension><gpxtpx:hr>169</gpxtpx:hr></gpxtpx:TrackPointExtension></extensions>
      </trkpt>
      <trkpt lat="59.9886415" lon="15.829194">
        <ele>121.4</ele>
        <time>2013-04-18T21:07:11Z</time>
        <extensions><gpxtpx:TrackPointExtension><gpxtpx:hr>169</gpxtpx:hr></gpxtpx:TrackPointExtension></extensions>
      </trkpt>
      <trkpt lat="59.9886477" lon="15.8291753">
        <ele>121.4</ele>
        <time>2013-04-18T21:07:12Z</time>
        <extensions><gpxtpx:TrackPointExtension><gpxtpx:hr>169</gpxtpx:hr></gpxtpx:TrackPointExtension></extensions>
      </trkpt>
      <trkpt lat="59.9886537" lon="15.8291657">
        <ele>121.4</ele>
        <time>2013-04-18T21:07:13Z</time>
        <extensions><gpxtpx:TrackPointExtension><gpxtpx:hr>168</gpxtpx:hr></gpxtpx:TrackPointExtension></extensions>
      </trkpt>
      <trkpt lat="59.9886643" lon="15.8291517">
        <ele>121.4</ele>
        <time>2013-04-18T21:07:14Z</time>
        <extensions><gpxtpx:TrackPointExtension><gpxtpx:hr>167</gpxtpx:hr></gpxtpx:TrackPointExtension></extensions>
      </trkpt>
      <trkpt lat="59.98867" lon="15.8291379">
        <ele>121.4</ele>
        <time>2013-04-18T21:07:15Z</time>
        <extensions><gpxtpx:TrackPointExtension><gpxtpx:hr>166</gpxtpx:hr></gpxtpx:TrackPointExtension></extensions>
      </trkpt>
      <trkpt lat="59.9886802" lon="15.8291123">
        <ele>121.4</ele>
        <time>2013-04-18T21:07:16Z</time>
        <extensions><gpxtpx:TrackPointExtension><gpxtpx:hr>165</gpxtpx:hr></gpxtpx:TrackPointExtension></extensions>
      </trkpt>
      <trkpt lat="59.9886863" lon="15.8290947">
        <ele>121.4</ele>
        <time>2013-04-18T21:07:17Z</time>
        <extensions><gpxtpx:TrackPointExtension><gpxtpx:hr>164</gpxtpx:hr></gpxtpx:TrackPointExtension></extensions>
      </trkpt>
      <trkpt lat="59.9887154" lon="15.8289909">
        <ele>121.4</ele>
        <time>2013-04-18T21:07:21Z</time>
        <extensions><gpxtpx:TrackPointExtension><gpxtpx:hr>161</gpxtpx:hr></gpxtpx:TrackPointExtension></extensions>
      </trkpt>
      <trkpt lat="59.9887266" lon="15.8289563">
        <ele>121.4</ele>
        <time>2013-04-18T21:07:22Z</time>
        <extensions><gpxtpx:TrackPointExtension><gpxtpx:hr>161</gpxtpx:hr></gpxtpx:TrackPointExtension></extensions>
      </trkpt>
      <trkpt lat="59.9887267" lon="15.8289558">
        <ele>121.4</ele>
        <time>2013-04-18T21:07:23Z</time>
        <extensions><gpxtpx:TrackPointExtension><gpxtpx:hr>160</gpxtpx:hr></gpxtpx:TrackPointExtension></extensions>
      </trkpt>
      <trkpt lat="59.9887414" lon="15.8289074">
        <ele>121.4</ele>
        <time>2013-04-18T21:07:24Z</time>
        <extensions><gpxtpx:TrackPointExtension><gpxtpx:hr>159</gpxtpx:hr></gpxtpx:TrackPointExtension></extensions>
      </trkpt>
      <trkpt lat="59.9887487" lon="15.8288784">
        <ele>121.4</ele>
        <time>2013-04-18T21:07:25Z</time>
        <extensions><gpxtpx:TrackPointExtension><gpxtpx:hr>159</gpxtpx:hr></gpxtpx:TrackPointExtension></extensions>
      </trkpt>
      <trkpt lat="59.9887974" lon="15.8287026">
        <ele>121.4</ele>
        <time>2013-04-18T21:07:31Z</time>
        <extensions><gpxtpx:TrackPointExtension><gpxtpx:hr>157</gpxtpx:hr></gpxtpx:TrackPointExtension></extensions>
      </trkpt>
      <trkpt lat="59.9888094" lon="15.8286561">
        <ele>121.4</ele>
        <time>2013-04-18T21:07:32Z</time>
        <extensions><gpxtpx:TrackPointExtension><gpxtpx:hr>157</gpxtpx:hr></gpxtpx:TrackPointExtension></extensions>
      </trkpt>
      <trkpt lat="59.9888296" lon="15.8285705">
        <ele>121.4</ele>
        <time>2013-04-18T21:07:35Z</time>
        <extensions><gpxtpx:TrackPointExtension><gpxtpx:hr>157</gpxtpx:hr></gpxtpx:TrackPointExtension></extensions>
      </trkpt>
      <trkpt lat="59.9888405" lon="15.8285336">
        <ele>121.4</ele>
        <time>2013-04-18T21:07:36Z</time>
        <extensions><gpxtpx:TrackPointExtension><gpxtpx:hr>156</gpxtpx:hr></gpxtpx:TrackPointExtension></extensions>
      </trkpt>
      <trkpt lat="59.9888464" lon="15.8285084">
        <ele>121.4</ele>
        <time>2013-04-18T21:07:37Z</time>
        <extensions><gpxtpx:TrackPointExtension><gpxtpx:hr>156</gpxtpx:hr></gpxtpx:TrackPointExtension></extensions>
      </trkpt>
      <trkpt lat="59.9888586" lon="15.8284652">
        <ele>121.4</ele>
        <time>2013-04-18T21:07:38Z</time>
        <extensions><gpxtpx:TrackPointExtension><gpxtpx:hr>155</gpxtpx:hr></gpxtpx:TrackPointExtension></extensions>
      </trkpt>
      <trkpt lat="59.9888645" lon="15.828448">
        <ele>121.4</ele>
        <time>2013-04-18T21:07:39Z</time>
        <extensions><gpxtpx:TrackPointExtension><gpxtpx:hr>155</gpxtpx:hr></gpxtpx:TrackPointExtension></extensions>
      </trkpt>
      <trkpt lat="59.9888758" lon="15.8284035">
        <ele>119.4</ele>
        <time>2013-04-18T21:07:40Z</time>
        <extensions><gpxtpx:TrackPointExtension><gpxtpx:hr>155</gpxtpx:hr></gpxtpx:TrackPointExtension></extensions>
      </trkpt>
      <trkpt lat="59.9888813" lon="15.8283826">
        <ele>119.4</ele>
        <time>2013-04-18T21:07:41Z</time>
        <extensions><gpxtpx:TrackPointExtension><gpxtpx:hr>155</gpxtpx:hr></gpxtpx:TrackPointExtension></extensions>
      </trkpt>
      <trkpt lat="59.9888922" lon="15.8283352">
        <ele>119.4</ele>
        <time>2013-04-18T21:07:42Z</time>
        <extensions><gpxtpx:TrackPointExtension><gpxtpx:hr>154</gpxtpx:hr></gpxtpx:TrackPointExtension></extensions>
      </trkpt>
      <trkpt lat="59.9888983" lon="15.8283104">
        <ele>119.4</ele>
        <time>2013-04-18T21:07:43Z</time>
        <extensions><gpxtpx:TrackPointExtension><gpxtpx:hr>154</gpxtpx:hr></gpxtpx:TrackPointExtension></extensions>
      </trkpt>
      <trkpt lat="59.9889102" lon="15.8282659">
        <ele>119.4</ele>
        <time>2013-04-18T21:07:44Z</time>
        <extensions><gpxtpx:TrackPointExtension><gpxtpx:hr>153</gpxtpx:hr></gpxtpx:TrackPointExtension></extensions>
      </trkpt>
      <trkpt lat="59.9889202" lon="15.8282447">
        <ele>119.4</ele>
        <time>2013-04-18T21:07:45Z</time>
        <extensions><gpxtpx:TrackPointExtension><gpxtpx:hr>152</gpxtpx:hr></gpxtpx:TrackPointExtension></extensions>
      </trkpt>
      <trkpt lat="59.9889325" lon="15.8281993">
        <ele>119.4</ele>
        <time>2013-04-18T21:07:46Z</time>
        <extensions><gpxtpx:TrackPointExtension><gpxtpx:hr>152</gpxtpx:hr></gpxtpx:TrackPointExtension></extensions>
      </trkpt>
      <trkpt lat="59.988939" lon="15.8281661">
        <ele>119.4</ele>
        <time>2013-04-18T21:07:47Z</time>
        <extensions><gpxtpx:TrackPointExtension><gpxtpx:hr>151</gpxtpx:hr></gpxtpx:TrackPointExtension></extensions>
      </trkpt>
      <trkpt lat="59.9889521" lon="15.8281163">
        <ele>119.4</ele>
        <time>2013-04-18T21:07:48Z</time>
        <extensions><gpxtpx:TrackPointExtension><gpxtpx:hr>152</gpxtpx:hr></gpxtpx:TrackPointExtension></extensions>
      </trkpt>
      <trkpt lat="59.9889597" lon="15.8280905">
        <ele>119.4</ele>
        <time>2013-04-18T21:07:49Z</time>
        <extensions><gpxtpx:TrackPointExtension><gpxtpx:hr>151</gpxtpx:hr></gpxtpx:TrackPointExtension></extensions>
      </trkpt>
      <trkpt lat="59.9889719" lon="15.8280461">
        <ele>119.4</ele>
        <time>2013-04-18T21:07:50Z</time>
        <extensions><gpxtpx:TrackPointExtension><gpxtpx:hr>152</gpxtpx:hr></gpxtpx:TrackPointExtension></extensions>
      </trkpt>
      <trkpt lat="59.9889776" lon="15.8280219">
        <ele>119.4</ele>
        <time>2013-04-18T21:07:51Z</time>
        <extensions><gpxtpx:TrackPointExtension><gpxtpx:hr>151</gpxtpx:hr></gpxtpx:TrackPointExtension></extensions>
      </trkpt>
      <trkpt lat="59.988989" lon="15.8279645">
        <ele>119.4</ele>
        <time>2013-04-18T21:07:52Z</time>
        <extensions><gpxtpx:TrackPointExtension><gpxtpx:hr>151</gpxtpx:hr></gpxtpx:TrackPointExtension></extensions>
      </trkpt>
      <trkpt lat="59.9889961" lon="15.8279373">
        <ele>119.4</ele>
        <time>2013-04-18T21:07:53Z</time>
        <extensions><gpxtpx:TrackPointExtension><gpxtpx:hr>151</gpxtpx:hr></gpxtpx:TrackPointExtension></extensions>
      </trkpt>
      <trkpt lat="59.9890046" lon="15.8279">
        <ele>119.4</ele>
        <time>2013-04-18T21:07:54Z</time>
        <extensions><gpxtpx:TrackPointExtension><gpxtpx:hr>150</gpxtpx:hr></gpxtpx:TrackPointExtension></extensions>
      </trkpt>
      <trkpt lat="59.9890148" lon="15.8278586">
        <ele>119.4</ele>
        <time>2013-04-18T21:07:55Z</time>
        <extensions><gpxtpx:TrackPointExtension><gpxtpx:hr>150</gpxtpx:hr></gpxtpx:TrackPointExtension></extensions>
      </trkpt>
      <trkpt lat="59.9890286" lon="15.8278102">
        <ele>117.2</ele>
        <time>2013-04-18T21:07:56Z</time>
        <extensions><gpxtpx:TrackPointExtension><gpxtpx:hr>150</gpxtpx:hr></gpxtpx:TrackPointExtension></extensions>
      </trkpt>
      <trkpt lat="59.9890369" lon="15.8277804">
        <ele>117.2</ele>
        <time>2013-04-18T21:07:57Z</time>
        <extensions><gpxtpx:TrackPointExtension><gpxtpx:hr>149</gpxtpx:hr></gpxtpx:TrackPointExtension></extensions>
      </trkpt>
      <trkpt lat="59.9890481" lon="15.8277288">
        <ele>117.2</ele>
        <time>2013-04-18T21:07:58Z</time>
        <extensions><gpxtpx:TrackPointExtension><gpxtpx:hr>150</gpxtpx:hr></gpxtpx:TrackPointExtension></extensions>
      </trkpt>
      <trkpt lat="59.9890547" lon="15.8277095">
        <ele>116.2</ele>
        <time>2013-04-18T21:07:59Z</time>
        <extensions><gpxtpx:TrackPointExtension><gpxtpx:hr>150</gpxtpx:hr></gpxtpx:TrackPointExtension></extensions>
      </trkpt>
      <trkpt lat="59.9890692" lon="15.8276687">
        <ele>116</ele>
        <time>2013-04-18T21:08:00Z</time>
        <extensions><gpxtpx:TrackPointExtension><gpxtpx:hr>149</gpxtpx:hr></gpxtpx:TrackPointExtension></extensions>
      </trkpt>
      <trkpt lat="59.9890753" lon="15.8276421">
        <ele>116.2</ele>
        <time>2013-04-18T21:08:01Z</time>
        <extensions><gpxtpx:TrackPointExtension><gpxtpx:hr>149</gpxtpx:hr></gpxtpx:TrackPointExtension></extensions>
      </trkpt>
      <trkpt lat="59.9890835" lon="15.8275886">
        <ele>116</ele>
        <time>2013-04-18T21:08:02Z</time>
        <extensions><gpxtpx:TrackPointExtension><gpxtpx:hr>149</gpxtpx:hr></gpxtpx:TrackPointExtension></extensions>
      </trkpt>
      <trkpt lat="59.9890896" lon="15.8275631">
        <ele>116</ele>
        <time>2013-04-18T21:08:03Z</time>
        <extensions><gpxtpx:TrackPointExtension><gpxtpx:hr>148</gpxtpx:hr></gpxtpx:TrackPointExtension></extensions>
      </trkpt>
      <trkpt lat="59.9891011" lon="15.827511">
        <ele>115</ele>
        <time>2013-04-18T21:08:04Z</time>
        <extensions><gpxtpx:TrackPointExtension><gpxtpx:hr>148</gpxtpx:hr></gpxtpx:TrackPointExtension></extensions>
      </trkpt>
      <trkpt lat="59.9891089" lon="15.8274808">
        <ele>115</ele>
        <time>2013-04-18T21:08:05Z</time>
        <extensions><gpxtpx:TrackPointExtension><gpxtpx:hr>149</gpxtpx:hr></gpxtpx:TrackPointExtension></extensions>
      </trkpt>
      <trkpt lat="59.9891183" lon="15.8274269">
        <ele>115</ele>
        <time>2013-04-18T21:08:06Z</time>
        <extensions><gpxtpx:TrackPointExtension><gpxtpx:hr>148</gpxtpx:hr></gpxtpx:TrackPointExtension></extensions>
      </trkpt>
      <trkpt lat="59.989124" lon="15.8273948">
        <ele>115</ele>
        <time>2013-04-18T21:08:07Z</time>
        <extensions><gpxtpx:TrackPointExtension><gpxtpx:hr>148</gpxtpx:hr></gpxtpx:TrackPointExtension></extensions>
      </trkpt>
      <trkpt lat="59.9891335" lon="15.8273428">
        <ele>115</ele>
        <time>2013-04-18T21:08:08Z</time>
        <extensions><gpxtpx:TrackPointExtension><gpxtpx:hr>149</gpxtpx:hr></gpxtpx:TrackPointExtension></extensions>
      </trkpt>
      <trkpt lat="59.9891388" lon="15.8273184">
        <ele>115</ele>
        <time>2013-04-18T21:08:09Z</time>
        <extensions><gpxtpx:TrackPointExtension><gpxtpx:hr>148</gpxtpx:hr></gpxtpx:TrackPointExtension></extensions>
      </trkpt>
      <trkpt lat="59.9891535" lon="15.8272743">
        <ele>115</ele>
        <time>2013-04-18T21:08:10Z</time>
        <extensions><gpxtpx:TrackPointExtension><gpxtpx:hr>148</gpxtpx:hr></gpxtpx:TrackPointExtension></extensions>
      </trkpt>
      <trkpt lat="59.9891574" lon="15.8272846">
        <ele>113.8</ele>
        <time>2013-04-18T21:08:11Z</time>
        <extensions><gpxtpx:TrackPointExtension><gpxtpx:hr>148</gpxtpx:hr></gpxtpx:TrackPointExtension></extensions>
      </trkpt>
      <trkpt lat="59.9891604" lon="15.82733">
        <ele>114</ele>
        <time>2013-04-18T21:08:12Z</time>
        <extensions><gpxtpx:TrackPointExtension><gpxtpx:hr>149</gpxtpx:hr></gpxtpx:TrackPointExtension></extensions>
      </trkpt>
      <trkpt lat="59.9891165" lon="15.8275223">
        <ele>114</ele>
        <time>2013-04-18T21:08:15Z</time>
        <extensions><gpxtpx:TrackPointExtension><gpxtpx:hr>150</gpxtpx:hr></gpxtpx:TrackPointExtension></extensions>
      </trkpt>
      <trkpt lat="59.9890473" lon="15.8277745">
        <ele>114.2</ele>
        <time>2013-04-18T21:08:18Z</time>
        <extensions><gpxtpx:TrackPointExtension><gpxtpx:hr>152</gpxtpx:hr></gpxtpx:TrackPointExtension></extensions>
      </trkpt>
      <trkpt lat="59.9890313" lon="15.8278307">
        <ele>114</ele>
        <time>2013-04-18T21:08:19Z</time>
        <extensions><gpxtpx:TrackPointExtension><gpxtpx:hr>153</gpxtpx:hr></gpxtpx:TrackPointExtension></extensions>
      </trkpt>
      <trkpt lat="59.989005" lon="15.8279296">
        <ele>114</ele>
        <time>2013-04-18T21:08:20Z</time>
        <extensions><gpxtpx:TrackPointExtension><gpxtpx:hr>153</gpxtpx:hr></gpxtpx:TrackPointExtension></extensions>
      </trkpt>
      <trkpt lat="59.9889938" lon="15.8279742">
        <ele>117</ele>
        <time>2013-04-18T21:08:21Z</time>
        <extensions><gpxtpx:TrackPointExtension><gpxtpx:hr>153</gpxtpx:hr></gpxtpx:TrackPointExtension></extensions>
      </trkpt>
      <trkpt lat="59.9889624" lon="15.8280768">
        <ele>117.2</ele>
        <time>2013-04-18T21:08:22Z</time>
        <extensions><gpxtpx:TrackPointExtension><gpxtpx:hr>156</gpxtpx:hr></gpxtpx:TrackPointExtension></extensions>
      </trkpt>
      <trkpt lat="59.988949" lon="15.828119">
        <ele>118.2</ele>
        <time>2013-04-18T21:08:23Z</time>
        <extensions><gpxtpx:TrackPointExtension><gpxtpx:hr>156</gpxtpx:hr></gpxtpx:TrackPointExtension></extensions>
      </trkpt>
      <trkpt lat="59.9889221" lon="15.8282042">
        <ele>118.4</ele>
        <time>2013-04-18T21:08:24Z</time>
        <extensions><gpxtpx:TrackPointExtension><gpxtpx:hr>158</gpxtpx:hr></gpxtpx:TrackPointExtension></extensions>
      </trkpt>
      <trkpt lat="59.9889076" lon="15.828257">
        <ele>118.2</ele>
        <time>2013-04-18T21:08:25Z</time>
        <extensions><gpxtpx:TrackPointExtension><gpxtpx:hr>160</gpxtpx:hr></gpxtpx:TrackPointExtension></extensions>
      </trkpt>
      <trkpt lat="59.9888874" lon="15.8283475">
        <ele>119.4</ele>
        <time>2013-04-18T21:08:26Z</time>
        <extensions><gpxtpx:TrackPointExtension><gpxtpx:hr>161</gpxtpx:hr></gpxtpx:TrackPointExtension></extensions>
      </trkpt>
      <trkpt lat="59.9888736" lon="15.8283963">
        <ele>120.4</ele>
        <time>2013-04-18T21:08:27Z</time>
        <extensions><gpxtpx:TrackPointExtension><gpxtpx:hr>162</gpxtpx:hr></gpxtpx:TrackPointExtension></extensions>
      </trkpt>
      <trkpt lat="59.9888513" lon="15.8284839">
        <ele>120.6</ele>
        <time>2013-04-18T21:08:28Z</time>
        <extensions><gpxtpx:TrackPointExtension><gpxtpx:hr>163</gpxtpx:hr></gpxtpx:TrackPointExtension></extensions>
      </trkpt>
      <trkpt lat="59.9888412" lon="15.8285239">
        <ele>120.4</ele>
        <time>2013-04-18T21:08:29Z</time>
        <extensions><gpxtpx:TrackPointExtension><gpxtpx:hr>163</gpxtpx:hr></gpxtpx:TrackPointExtension></extensions>
      </trkpt>
      <trkpt lat="59.9888161" lon="15.8286095">
        <ele>120.4</ele>
        <time>2013-04-18T21:08:30Z</time>
        <extensions><gpxtpx:TrackPointExtension><gpxtpx:hr>165</gpxtpx:hr></gpxtpx:TrackPointExtension></extensions>
      </trkpt>
      <trkpt lat="59.9888045" lon="15.8286474">
        <ele>120.4</ele>
        <time>2013-04-18T21:08:31Z</time>
        <extensions><gpxtpx:TrackPointExtension><gpxtpx:hr>166</gpxtpx:hr></gpxtpx:TrackPointExtension></extensions>
      </trkpt>
      <trkpt lat="59.9887818" lon="15.828733">
        <ele>120.4</ele>
        <time>2013-04-18T21:08:32Z</time>
        <extensions><gpxtpx:TrackPointExtension><gpxtpx:hr>166</gpxtpx:hr></gpxtpx:TrackPointExtension></extensions>
      </trkpt>
      <trkpt lat="59.9887675" lon="15.8287781">
        <ele>122.6</ele>
        <time>2013-04-18T21:08:33Z</time>
        <extensions><gpxtpx:TrackPointExtension><gpxtpx:hr>167</gpxtpx:hr></gpxtpx:TrackPointExtension></extensions>
      </trkpt>
      <trkpt lat="59.9887455" lon="15.8288578">
        <ele>122.6</ele>
        <time>2013-04-18T21:08:34Z</time>
        <extensions><gpxtpx:TrackPointExtension><gpxtpx:hr>167</gpxtpx:hr></gpxtpx:TrackPointExtension></extensions>
      </trkpt>
      <trkpt lat="59.9887352" lon="15.8288957">
        <ele>122.6</ele>
        <time>2013-04-18T21:08:35Z</time>
        <extensions><gpxtpx:TrackPointExtension><gpxtpx:hr>168</gpxtpx:hr></gpxtpx:TrackPointExtension></extensions>
      </trkpt>
      <trkpt lat="59.9887155" lon="15.8289762">
        <ele>122.8</ele>
        <time>2013-04-18T21:08:36Z</time>
        <extensions><gpxtpx:TrackPointExtension><gpxtpx:hr>169</gpxtpx:hr></gpxtpx:TrackPointExtension></extensions>
      </trkpt>
      <trkpt lat="59.9887026" lon="15.8290179">
        <ele>124</ele>
        <time>2013-04-18T21:08:37Z</time>
        <extensions><gpxtpx:TrackPointExtension><gpxtpx:hr>170</gpxtpx:hr></gpxtpx:TrackPointExtension></extensions>
      </trkpt>
      <trkpt lat="59.9886793" lon="15.8291009">
        <ele>125.6</ele>
        <time>2013-04-18T21:08:38Z</time>
        <extensions><gpxtpx:TrackPointExtension><gpxtpx:hr>170</gpxtpx:hr></gpxtpx:TrackPointExtension></extensions>
      </trkpt>
      <trkpt lat="59.9886654" lon="15.8291374">
        <ele>125.6</ele>
        <time>2013-04-18T21:08:39Z</time>
        <extensions><gpxtpx:TrackPointExtension><gpxtpx:hr>170</gpxtpx:hr></gpxtpx:TrackPointExtension></extensions>
      </trkpt>
      <trkpt lat="59.9886515" lon="15.8291881">
        <ele>125.4</ele>
        <time>2013-04-18T21:08:40Z</time>
        <extensions><gpxtpx:TrackPointExtension><gpxtpx:hr>171</gpxtpx:hr></gpxtpx:TrackPointExtension></extensions>
      </trkpt>
      <trkpt lat="59.9886501" lon="15.829184">
        <ele>125.2</ele>
        <time>2013-04-18T21:08:41Z</time>
        <extensions><gpxtpx:TrackPointExtension><gpxtpx:hr>171</gpxtpx:hr></gpxtpx:TrackPointExtension></extensions>
      </trkpt>
      <trkpt lat="59.9886461" lon="15.8291852">
        <ele>126.4</ele>
        <time>2013-04-18T21:08:43Z</time>
        <extensions><gpxtpx:TrackPointExtension><gpxtpx:hr>171</gpxtpx:hr></gpxtpx:TrackPointExtension></extensions>
      </trkpt>
      <trkpt lat="59.988666" lon="15.8291066">
        <ele>126.4</ele>
        <time>2013-04-18T21:08:48Z</time>
        <extensions><gpxtpx:TrackPointExtension><gpxtpx:hr>169</gpxtpx:hr></gpxtpx:TrackPointExtension></extensions>
      </trkpt>
      <trkpt lat="59.9886721" lon="15.8290866">
        <ele>126.4</ele>
        <time>2013-04-18T21:08:49Z</time>
        <extensions><gpxtpx:TrackPointExtension><gpxtpx:hr>168</gpxtpx:hr></gpxtpx:TrackPointExtension></extensions>
      </trkpt>
      <trkpt lat="59.9886855" lon="15.8290516">
        <ele>126.4</ele>
        <time>2013-04-18T21:08:50Z</time>
        <extensions><gpxtpx:TrackPointExtension><gpxtpx:hr>167</gpxtpx:hr></gpxtpx:TrackPointExtension></extensions>
      </trkpt>
      <trkpt lat="59.9886909" lon="15.8290358">
        <ele>126.4</ele>
        <time>2013-04-18T21:08:51Z</time>
        <extensions><gpxtpx:TrackPointExtension><gpxtpx:hr>166</gpxtpx:hr></gpxtpx:TrackPointExtension></extensions>
      </trkpt>
      <trkpt lat="59.9887022" lon="15.8290039">
        <ele>126.4</ele>
        <time>2013-04-18T21:08:52Z</time>
        <extensions><gpxtpx:TrackPointExtension><gpxtpx:hr>166</gpxtpx:hr></gpxtpx:TrackPointExtension></extensions>
      </trkpt>
      <trkpt lat="59.9887096" lon="15.8289795">
        <ele>126.4</ele>
        <time>2013-04-18T21:08:53Z</time>
        <extensions><gpxtpx:TrackPointExtension><gpxtpx:hr>165</gpxtpx:hr></gpxtpx:TrackPointExtension></extensions>
      </trkpt>
      <trkpt lat="59.9887215" lon="15.8289415">
        <ele>126.4</ele>
        <time>2013-04-18T21:08:54Z</time>
        <extensions><gpxtpx:TrackPointExtension><gpxtpx:hr>164</gpxtpx:hr></gpxtpx:TrackPointExtension></extensions>
      </trkpt>
      <trkpt lat="59.9887266" lon="15.8289226">
        <ele>126.4</ele>
        <time>2013-04-18T21:08:55Z</time>
        <extensions><gpxtpx:TrackPointExtension><gpxtpx:hr>163</gpxtpx:hr></gpxtpx:TrackPointExtension></extensions>
      </trkpt>
      <trkpt lat="59.9887389" lon="15.8288897">
        <ele>126.2</ele>
        <time>2013-04-18T21:08:56Z</time>
        <extensions><gpxtpx:TrackPointExtension><gpxtpx:hr>163</gpxtpx:hr></gpxtpx:TrackPointExtension></extensions>
      </trkpt>
      <trkpt lat="59.9887441" lon="15.8288713">
        <ele>126.4</ele>
        <time>2013-04-18T21:08:57Z</time>
        <extensions><gpxtpx:TrackPointExtension><gpxtpx:hr>162</gpxtpx:hr></gpxtpx:TrackPointExtension></extensions>
      </trkpt>
      <trkpt lat="59.9887561" lon="15.8288325">
        <ele>123.2</ele>
        <time>2013-04-18T21:08:58Z</time>
        <extensions><gpxtpx:TrackPointExtension><gpxtpx:hr>161</gpxtpx:hr></gpxtpx:TrackPointExtension></extensions>
      </trkpt>
      <trkpt lat="59.9887944" lon="15.8287037">
        <ele>123.2</ele>
        <time>2013-04-18T21:09:02Z</time>
        <extensions><gpxtpx:TrackPointExtension><gpxtpx:hr>158</gpxtpx:hr></gpxtpx:TrackPointExtension></extensions>
      </trkpt>
      <trkpt lat="59.9888005" lon="15.8286787">
        <ele>122.2</ele>
        <time>2013-04-18T21:09:03Z</time>
        <extensions><gpxtpx:TrackPointExtension><gpxtpx:hr>158</gpxtpx:hr></gpxtpx:TrackPointExtension></extensions>
      </trkpt>
      <trkpt lat="59.9888127" lon="15.8286335">
        <ele>122.2</ele>
        <time>2013-04-18T21:09:04Z</time>
        <extensions><gpxtpx:TrackPointExtension><gpxtpx:hr>157</gpxtpx:hr></gpxtpx:TrackPointExtension></extensions>
      </trkpt>
      <trkpt lat="59.9888194" lon="15.8286116">
        <ele>122.2</ele>
        <time>2013-04-18T21:09:05Z</time>
        <extensions><gpxtpx:TrackPointExtension><gpxtpx:hr>158</gpxtpx:hr></gpxtpx:TrackPointExtension></extensions>
      </trkpt>
      <trkpt lat="59.9888312" lon="15.8285713">
        <ele>121.2</ele>
        <time>2013-04-18T21:09:06Z</time>
        <extensions><gpxtpx:TrackPointExtension><gpxtpx:hr>157</gpxtpx:hr></gpxtpx:TrackPointExtension></extensions>
      </trkpt>
      <trkpt lat="59.9888696" lon="15.8284331">
        <ele>120</ele>
        <time>2013-04-18T21:09:10Z</time>
        <extensions><gpxtpx:TrackPointExtension><gpxtpx:hr>158</gpxtpx:hr></gpxtpx:TrackPointExtension></extensions>
      </trkpt>
      <trkpt lat="59.9888945" lon="15.828339">
        <ele>120</ele>
        <time>2013-04-18T21:09:13Z</time>
        <extensions><gpxtpx:TrackPointExtension><gpxtpx:hr>158</gpxtpx:hr></gpxtpx:TrackPointExtension></extensions>
      </trkpt>
      <trkpt lat="59.9889049" lon="15.8282972">
        <ele>119</ele>
        <time>2013-04-18T21:09:14Z</time>
        <extensions><gpxtpx:TrackPointExtension><gpxtpx:hr>158</gpxtpx:hr></gpxtpx:TrackPointExtension></extensions>
      </trkpt>
      <trkpt lat="59.9889135" lon="15.8282693">
        <ele>119</ele>
        <time>2013-04-18T21:09:15Z</time>
        <extensions><gpxtpx:TrackPointExtension><gpxtpx:hr>158</gpxtpx:hr></gpxtpx:TrackPointExtension></extensions>
      </trkpt>
      <trkpt lat="59.9889269" lon="15.828222">
        <ele>119</ele>
        <time>2013-04-18T21:09:16Z</time>
        <extensions><gpxtpx:TrackPointExtension><gpxtpx:hr>157</gpxtpx:hr></gpxtpx:TrackPointExtension></extensions>
      </trkpt>
      <trkpt lat="59.9889355" lon="15.8281978">
        <ele>119</ele>
        <time>2013-04-18T21:09:17Z</time>
        <extensions><gpxtpx:TrackPointExtension><gpxtpx:hr>156</gpxtpx:hr></gpxtpx:TrackPointExtension></extensions>
      </trkpt>
      <trkpt lat="59.9889492" lon="15.8281511">
        <ele>119</ele>
        <time>2013-04-18T21:09:18Z</time>
        <extensions><gpxtpx:TrackPointExtension><gpxtpx:hr>156</gpxtpx:hr></gpxtpx:TrackPointExtension></extensions>
      </trkpt>
      <trkpt lat="59.9889564" lon="15.8281285">
        <ele>119</ele>
        <time>2013-04-18T21:09:19Z</time>
        <extensions><gpxtpx:TrackPointExtension><gpxtpx:hr>156</gpxtpx:hr></gpxtpx:TrackPointExtension></extensions>
      </trkpt>
      <trkpt lat="59.9889706" lon="15.8280763">
        <ele>118</ele>
        <time>2013-04-18T21:09:20Z</time>
        <extensions><gpxtpx:TrackPointExtension><gpxtpx:hr>156</gpxtpx:hr></gpxtpx:TrackPointExtension></extensions>
      </trkpt>
      <trkpt lat="59.9889761" lon="15.8280528">
        <ele>117.8</ele>
        <time>2013-04-18T21:09:21Z</time>
        <extensions><gpxtpx:TrackPointExtension><gpxtpx:hr>155</gpxtpx:hr></gpxtpx:TrackPointExtension></extensions>
      </trkpt>
      <trkpt lat="59.9889907" lon="15.8279961">
        <ele>118</ele>
        <time>2013-04-18T21:09:22Z</time>
        <extensions><gpxtpx:TrackPointExtension><gpxtpx:hr>155</gpxtpx:hr></gpxtpx:TrackPointExtension></extensions>
      </trkpt>
      <trkpt lat="59.9889961" lon="15.8279749">
        <ele>116.8</ele>
        <time>2013-04-18T21:09:23Z</time>
        <extensions><gpxtpx:TrackPointExtension><gpxtpx:hr>154</gpxtpx:hr></gpxtpx:TrackPointExtension></extensions>
      </trkpt>
      <trkpt lat="59.9890067" lon="15.8279314">
        <ele>116.8</ele>
        <time>2013-04-18T21:09:24Z</time>
        <extensions><gpxtpx:TrackPointExtension><gpxtpx:hr>155</gpxtpx:hr></gpxtpx:TrackPointExtension></extensions>
      </trkpt>
      <trkpt lat="59.9890138" lon="15.827902">
        <ele>116.8</ele>
        <time>2013-04-18T21:09:25Z</time>
        <extensions><gpxtpx:TrackPointExtension><gpxtpx:hr>154</gpxtpx:hr></gpxtpx:TrackPointExtension></extensions>
      </trkpt>
      <trkpt lat="59.9890259" lon="15.8278515">
        <ele>116.8</ele>
        <time>2013-04-18T21:09:26Z</time>
        <extensions><gpxtpx:TrackPointExtension><gpxtpx:hr>154</gpxtpx:hr></gpxtpx:TrackPointExtension></extensions>
      </trkpt>
      <trkpt lat="59.9890326" lon="15.8278256">
        <ele>115.8</ele>
        <time>2013-04-18T21:09:27Z</time>
        <extensions><gpxtpx:TrackPointExtension><gpxtpx:hr>154</gpxtpx:hr></gpxtpx:TrackPointExtension></extensions>
      </trkpt>
      <trkpt lat="59.9890436" lon="15.8277822">
        <ele>115.8</ele>
        <time>2013-04-18T21:09:28Z</time>
        <extensions><gpxtpx:TrackPointExtension><gpxtpx:hr>153</gpxtpx:hr></gpxtpx:TrackPointExtension></extensions>
      </trkpt>
      <trkpt lat="59.9890509" lon="15.8277564">
        <ele>115.8</ele>
        <time>2013-04-18T21:09:29Z</time>
        <extensions><gpxtpx:TrackPointExtension><gpxtpx:hr>153</gpxtpx:hr></gpxtpx:TrackPointExtension></extensions>
      </trkpt>
      <trkpt lat="59.9890638" lon="15.8277033">
        <ele>115.8</ele>
        <time>2013-04-18T21:09:30Z</time>
        <extensions><gpxtpx:TrackPointExtension><gpxtpx:hr>152</gpxtpx:hr></gpxtpx:TrackPointExtension></extensions>
      </trkpt>
      <trkpt lat="59.9890683" lon="15.8276791">
        <ele>115.8</ele>
        <time>2013-04-18T21:09:31Z</time>
        <extensions><gpxtpx:TrackPointExtension><gpxtpx:hr>152</gpxtpx:hr></gpxtpx:TrackPointExtension></extensions>
      </trkpt>
      <trkpt lat="59.9890825" lon="15.827626">
        <ele>114.6</ele>
        <time>2013-04-18T21:09:32Z</time>
        <extensions><gpxtpx:TrackPointExtension><gpxtpx:hr>152</gpxtpx:hr></gpxtpx:TrackPointExtension></extensions>
      </trkpt>
      <trkpt lat="59.989088" lon="15.8276047">
        <ele>114.6</ele>
        <time>2013-04-18T21:09:33Z</time>
        <extensions><gpxtpx:TrackPointExtension><gpxtpx:hr>152</gpxtpx:hr></gpxtpx:TrackPointExtension></extensions>
      </trkpt>
      <trkpt lat="59.9891004" lon="15.827554">
        <ele>114.6</ele>
        <time>2013-04-18T21:09:34Z</time>
        <extensions><gpxtpx:TrackPointExtension><gpxtpx:hr>153</gpxtpx:hr></gpxtpx:TrackPointExtension></extensions>
      </trkpt>
      <trkpt lat="59.9891064" lon="15.8275262">
        <ele>114.8</ele>
        <time>2013-04-18T21:09:35Z</time>
        <extensions><gpxtpx:TrackPointExtension><gpxtpx:hr>152</gpxtpx:hr></gpxtpx:TrackPointExtension></extensions>
      </trkpt>
      <trkpt lat="59.9891174" lon="15.8274815">
        <ele>114.6</ele>
        <time>2013-04-18T21:09:36Z</time>
        <extensions><gpxtpx:TrackPointExtension><gpxtpx:hr>152</gpxtpx:hr></gpxtpx:TrackPointExtension></extensions>
      </trkpt>
      <trkpt lat="59.9891248" lon="15.8274536">
        <ele>114.8</ele>
        <time>2013-04-18T21:09:37Z</time>
        <extensions><gpxtpx:TrackPointExtension><gpxtpx:hr>152</gpxtpx:hr></gpxtpx:TrackPointExtension></extensions>
      </trkpt>
      <trkpt lat="59.9891369" lon="15.8274054">
        <ele>114.6</ele>
        <time>2013-04-18T21:09:38Z</time>
        <extensions><gpxtpx:TrackPointExtension><gpxtpx:hr>152</gpxtpx:hr></gpxtpx:TrackPointExtension></extensions>
      </trkpt>
      <trkpt lat="59.9891419" lon="15.8273785">
        <ele>113.6</ele>
        <time>2013-04-18T21:09:39Z</time>
        <extensions><gpxtpx:TrackPointExtension><gpxtpx:hr>152</gpxtpx:hr></gpxtpx:TrackPointExtension></extensions>
      </trkpt>
      <trkpt lat="59.9891528" lon="15.8273236">
        <ele>113.6</ele>
        <time>2013-04-18T21:09:40Z</time>
        <extensions><gpxtpx:TrackPointExtension><gpxtpx:hr>152</gpxtpx:hr></gpxtpx:TrackPointExtension></extensions>
      </trkpt>
      <trkpt lat="59.9891572" lon="15.8273002">
        <ele>113.6</ele>
        <time>2013-04-18T21:09:41Z</time>
        <extensions><gpxtpx:TrackPointExtension><gpxtpx:hr>152</gpxtpx:hr></gpxtpx:TrackPointExtension></extensions>
      </trkpt>
      <trkpt lat="59.9891693" lon="15.8272458">
        <ele>113.6</ele>
        <time>2013-04-18T21:09:42Z</time>
        <extensions><gpxtpx:TrackPointExtension><gpxtpx:hr>151</gpxtpx:hr></gpxtpx:TrackPointExtension></extensions>
      </trkpt>
      <trkpt lat="59.9891763" lon="15.8272255">
        <ele>113.6</ele>
        <time>2013-04-18T21:09:43Z</time>
        <extensions><gpxtpx:TrackPointExtension><gpxtpx:hr>151</gpxtpx:hr></gpxtpx:TrackPointExtension></extensions>
      </trkpt>
      <trkpt lat="59.9891858" lon="15.8272118">
        <ele>112.6</ele>
        <time>2013-04-18T21:09:44Z</time>
        <extensions><gpxtpx:TrackPointExtension><gpxtpx:hr>151</gpxtpx:hr></gpxtpx:TrackPointExtension></extensions>
      </trkpt>
      <trkpt lat="59.9891806" lon="15.8272546">
        <ele>112.6</ele>
        <time>2013-04-18T21:09:45Z</time>
        <extensions><gpxtpx:TrackPointExtension><gpxtpx:hr>151</gpxtpx:hr></gpxtpx:TrackPointExtension></extensions>
      </trkpt>
      <trkpt lat="59.9891651" lon="15.8273298">
        <ele>112.6</ele>
        <time>2013-04-18T21:09:46Z</time>
        <extensions><gpxtpx:TrackPointExtension><gpxtpx:hr>151</gpxtpx:hr></gpxtpx:TrackPointExtension></extensions>
      </trkpt>
      <trkpt lat="59.9891477" lon="15.8273854">
        <ele>112.6</ele>
        <time>2013-04-18T21:09:47Z</time>
        <extensions><gpxtpx:TrackPointExtension><gpxtpx:hr>151</gpxtpx:hr></gpxtpx:TrackPointExtension></extensions>
      </trkpt>
      <trkpt lat="59.9890833" lon="15.8276253">
        <ele>112.6</ele>
        <time>2013-04-18T21:09:50Z</time>
        <extensions><gpxtpx:TrackPointExtension><gpxtpx:hr>153</gpxtpx:hr></gpxtpx:TrackPointExtension></extensions>
      </trkpt>
      <trkpt lat="59.9890725" lon="15.8276739">
        <ele>112.6</ele>
        <time>2013-04-18T21:09:51Z</time>
        <extensions><gpxtpx:TrackPointExtension><gpxtpx:hr>155</gpxtpx:hr></gpxtpx:TrackPointExtension></extensions>
      </trkpt>
      <trkpt lat="59.9890435" lon="15.827781">
        <ele>112.6</ele>
        <time>2013-04-18T21:09:52Z</time>
        <extensions><gpxtpx:TrackPointExtension><gpxtpx:hr>155</gpxtpx:hr></gpxtpx:TrackPointExtension></extensions>
      </trkpt>
      <trkpt lat="59.989031" lon="15.8278289">
        <ele>115.8</ele>
        <time>2013-04-18T21:09:53Z</time>
        <extensions><gpxtpx:TrackPointExtension><gpxtpx:hr>156</gpxtpx:hr></gpxtpx:TrackPointExtension></extensions>
      </trkpt>
      <trkpt lat="59.9890103" lon="15.827913">
        <ele>115.6</ele>
        <time>2013-04-18T21:09:54Z</time>
        <extensions><gpxtpx:TrackPointExtension><gpxtpx:hr>157</gpxtpx:hr></gpxtpx:TrackPointExtension></extensions>
      </trkpt>
      <trkpt lat="59.9889948" lon="15.8279702">
        <ele>115.8</ele>
        <time>2013-04-18T21:09:55Z</time>
        <extensions><gpxtpx:TrackPointExtension><gpxtpx:hr>158</gpxtpx:hr></gpxtpx:TrackPointExtension></extensions>
      </trkpt>
      <trkpt lat="59.9889679" lon="15.8280653">
        <ele>116.8</ele>
        <time>2013-04-18T21:09:56Z</time>
        <extensions><gpxtpx:TrackPointExtension><gpxtpx:hr>158</gpxtpx:hr></gpxtpx:TrackPointExtension></extensions>
      </trkpt>
      <trkpt lat="59.9889529" lon="15.828113">
        <ele>117</ele>
        <time>2013-04-18T21:09:57Z</time>
        <extensions><gpxtpx:TrackPointExtension><gpxtpx:hr>159</gpxtpx:hr></gpxtpx:TrackPointExtension></extensions>
      </trkpt>
      <trkpt lat="59.9889279" lon="15.828204">
        <ele>117.8</ele>
        <time>2013-04-18T21:09:58Z</time>
        <extensions><gpxtpx:TrackPointExtension><gpxtpx:hr>159</gpxtpx:hr></gpxtpx:TrackPointExtension></extensions>
      </trkpt>
      <trkpt lat="59.988917" lon="15.8282491">
        <ele>118</ele>
        <time>2013-04-18T21:09:59Z</time>
        <extensions><gpxtpx:TrackPointExtension><gpxtpx:hr>161</gpxtpx:hr></gpxtpx:TrackPointExtension></extensions>
      </trkpt>
      <trkpt lat="59.9888931" lon="15.8283413">
        <ele>117.8</ele>
        <time>2013-04-18T21:10:00Z</time>
        <extensions><gpxtpx:TrackPointExtension><gpxtpx:hr>162</gpxtpx:hr></gpxtpx:TrackPointExtension></extensions>
      </trkpt>
      <trkpt lat="59.9888829" lon="15.8283825">
        <ele>118</ele>
        <time>2013-04-18T21:10:01Z</time>
        <extensions><gpxtpx:TrackPointExtension><gpxtpx:hr>163</gpxtpx:hr></gpxtpx:TrackPointExtension></extensions>
      </trkpt>
      <trkpt lat="59.9888586" lon="15.8284754">
        <ele>118</ele>
        <time>2013-04-18T21:10:02Z</time>
        <extensions><gpxtpx:TrackPointExtension><gpxtpx:hr>165</gpxtpx:hr></gpxtpx:TrackPointExtension></extensions>
      </trkpt>
      <trkpt lat="59.9888469" lon="15.8285165">
        <ele>119</ele>
        <time>2013-04-18T21:10:03Z</time>
        <extensions><gpxtpx:TrackPointExtension><gpxtpx:hr>165</gpxtpx:hr></gpxtpx:TrackPointExtension></extensions>
      </trkpt>
      <trkpt lat="59.9888213" lon="15.8286092">
        <ele>119</ele>
        <time>2013-04-18T21:10:04Z</time>
        <extensions><gpxtpx:TrackPointExtension><gpxtpx:hr>167</gpxtpx:hr></gpxtpx:TrackPointExtension></extensions>
      </trkpt>
      <trkpt lat="59.9888089" lon="15.8286516">
        <ele>119</ele>
        <time>2013-04-18T21:10:05Z</time>
        <extensions><gpxtpx:TrackPointExtension><gpxtpx:hr>168</gpxtpx:hr></gpxtpx:TrackPointExtension></extensions>
      </trkpt>
      <trkpt lat="59.9887851" lon="15.8287369">
        <ele>120.4</ele>
        <time>2013-04-18T21:10:06Z</time>
        <extensions><gpxtpx:TrackPointExtension><gpxtpx:hr>168</gpxtpx:hr></gpxtpx:TrackPointExtension></extensions>
      </trkpt>
      <trkpt lat="59.9887741" lon="15.8287848">
        <ele>120.4</ele>
        <time>2013-04-18T21:10:07Z</time>
        <extensions><gpxtpx:TrackPointExtension><gpxtpx:hr>169</gpxtpx:hr></gpxtpx:TrackPointExtension></extensions>
      </trkpt>
      <trkpt lat="59.988753" lon="15.8288681">
        <ele>121.4</ele>
        <time>2013-04-18T21:10:08Z</time>
        <extensions><gpxtpx:TrackPointExtension><gpxtpx:hr>170</gpxtpx:hr></gpxtpx:TrackPointExtension></extensions>
      </trkpt>
      <trkpt lat="59.9887441" lon="15.8289064">
        <ele>121.4</ele>
        <time>2013-04-18T21:10:09Z</time>
        <extensions><gpxtpx:TrackPointExtension><gpxtpx:hr>170</gpxtpx:hr></gpxtpx:TrackPointExtension></extensions>
      </trkpt>
      <trkpt lat="59.9887204" lon="15.8289877">
        <ele>121.4</ele>
        <time>2013-04-18T21:10:10Z</time>
        <extensions><gpxtpx:TrackPointExtension><gpxtpx:hr>171</gpxtpx:hr></gpxtpx:TrackPointExtension></extensions>
      </trkpt>
      <trkpt lat="59.9887068" lon="15.8290233">
        <ele>121.4</ele>
        <time>2013-04-18T21:10:11Z</time>
        <extensions><gpxtpx:TrackPointExtension><gpxtpx:hr>172</gpxtpx:hr></gpxtpx:TrackPointExtension></extensions>
      </trkpt>
      <trkpt lat="59.9886803" lon="15.8291045">
        <ele>121.4</ele>
        <time>2013-04-18T21:10:12Z</time>
        <extensions><gpxtpx:TrackPointExtension><gpxtpx:hr>172</gpxtpx:hr></gpxtpx:TrackPointExtension></extensions>
      </trkpt>
      <trkpt lat="59.9886667" lon="15.8291349">
        <ele>121.4</ele>
        <time>2013-04-18T21:10:13Z</time>
        <extensions><gpxtpx:TrackPointExtension><gpxtpx:hr>173</gpxtpx:hr></gpxtpx:TrackPointExtension></extensions>
      </trkpt>
      <trkpt lat="59.9886411" lon="15.8291858">
        <ele>121.4</ele>
        <time>2013-04-18T21:10:14Z</time>
        <extensions><gpxtpx:TrackPointExtension><gpxtpx:hr>173</gpxtpx:hr></gpxtpx:TrackPointExtension></extensions>
      </trkpt>
      <trkpt lat="59.988639" lon="15.8291797">
        <ele>122.6</ele>
        <time>2013-04-18T21:10:15Z</time>
        <extensions><gpxtpx:TrackPointExtension><gpxtpx:hr>173</gpxtpx:hr></gpxtpx:TrackPointExtension></extensions>
      </trkpt>
      <trkpt lat="59.9886346" lon="15.8291802">
        <ele>122.6</ele>
        <time>2013-04-18T21:10:16Z</time>
        <extensions><gpxtpx:TrackPointExtension><gpxtpx:hr>173</gpxtpx:hr></gpxtpx:TrackPointExtension></extensions>
      </trkpt>
      <trkpt lat="59.9886317" lon="15.8291766">
        <ele>122.6</ele>
        <time>2013-04-18T21:10:17Z</time>
        <extensions><gpxtpx:TrackPointExtension><gpxtpx:hr>173</gpxtpx:hr></gpxtpx:TrackPointExtension></extensions>
      </trkpt>
      <trkpt lat="59.9886357" lon="15.8291544">
        <ele>122.8</ele>
        <time>2013-04-18T21:10:18Z</time>
        <extensions><gpxtpx:TrackPointExtension><gpxtpx:hr>173</gpxtpx:hr></gpxtpx:TrackPointExtension></extensions>
      </trkpt>
      <trkpt lat="59.9886389" lon="15.8291428">
        <ele>122.6</ele>
        <time>2013-04-18T21:10:19Z</time>
        <extensions><gpxtpx:TrackPointExtension><gpxtpx:hr>172</gpxtpx:hr></gpxtpx:TrackPointExtension></extensions>
      </trkpt>
      <trkpt lat="59.9886457" lon="15.829125">
        <ele>122.6</ele>
        <time>2013-04-18T21:10:20Z</time>
        <extensions><gpxtpx:TrackPointExtension><gpxtpx:hr>172</gpxtpx:hr></gpxtpx:TrackPointExtension></extensions>
      </trkpt>
      <trkpt lat="59.9886501" lon="15.8291179">
        <ele>122.6</ele>
        <time>2013-04-18T21:10:21Z</time>
        <extensions><gpxtpx:TrackPointExtension><gpxtpx:hr>171</gpxtpx:hr></gpxtpx:TrackPointExtension></extensions>
      </trkpt>
      <trkpt lat="59.9886591" lon="15.8291017">
        <ele>122.6</ele>
        <time>2013-04-18T21:10:22Z</time>
        <extensions><gpxtpx:TrackPointExtension><gpxtpx:hr>170</gpxtpx:hr></gpxtpx:TrackPointExtension></extensions>
      </trkpt>
      <trkpt lat="59.9886643" lon="15.8290912">
        <ele>122.6</ele>
        <time>2013-04-18T21:10:23Z</time>
        <extensions><gpxtpx:TrackPointExtension><gpxtpx:hr>170</gpxtpx:hr></gpxtpx:TrackPointExtension></extensions>
      </trkpt>
      <trkpt lat="59.9886738" lon="15.8290703">
        <ele>122.6</ele>
        <time>2013-04-18T21:10:24Z</time>
        <extensions><gpxtpx:TrackPointExtension><gpxtpx:hr>169</gpxtpx:hr></gpxtpx:TrackPointExtension></extensions>
      </trkpt>
      <trkpt lat="59.9886791" lon="15.829058">
        <ele>122.6</ele>
        <time>2013-04-18T21:10:25Z</time>
        <extensions><gpxtpx:TrackPointExtension><gpxtpx:hr>168</gpxtpx:hr></gpxtpx:TrackPointExtension></extensions>
      </trkpt>
      <trkpt lat="59.9886865" lon="15.8290385">
        <ele>122.6</ele>
        <time>2013-04-18T21:10:26Z</time>
        <extensions><gpxtpx:TrackPointExtension><gpxtpx:hr>168</gpxtpx:hr></gpxtpx:TrackPointExtension></extensions>
      </trkpt>
      <trkpt lat="59.9886911" lon="15.8290254">
        <ele>122.6</ele>
        <time>2013-04-18T21:10:27Z</time>
        <extensions><gpxtpx:TrackPointExtension><gpxtpx:hr>167</gpxtpx:hr></gpxtpx:TrackPointExtension></extensions>
      </trkpt>
      <trkpt lat="59.9886982" lon="15.8290025">
        <ele>122.6</ele>
        <time>2013-04-18T21:10:28Z</time>
        <extensions><gpxtpx:TrackPointExtension><gpxtpx:hr>166</gpxtpx:hr></gpxtpx:TrackPointExtension></extensions>
      </trkpt>
      <trkpt lat="59.9887021" lon="15.8289881">
        <ele>122.6</ele>
        <time>2013-04-18T21:10:29Z</time>
        <extensions><gpxtpx:TrackPointExtension><gpxtpx:hr>166</gpxtpx:hr></gpxtpx:TrackPointExtension></extensions>
      </trkpt>
      <trkpt lat="59.988712" lon="15.8289663">
        <ele>122.6</ele>
        <time>2013-04-18T21:10:31Z</time>
        <extensions><gpxtpx:TrackPointExtension><gpxtpx:hr>165</gpxtpx:hr></gpxtpx:TrackPointExtension></extensions>
      </trkpt>
      <trkpt lat="59.9887336" lon="15.8289231">
        <ele>122.6</ele>
        <time>2013-04-18T21:10:32Z</time>
        <extensions><gpxtpx:TrackPointExtension><gpxtpx:hr>164</gpxtpx:hr></gpxtpx:TrackPointExtension></extensions>
      </trkpt>
      <trkpt lat="59.9887402" lon="15.8289036">
        <ele>122.6</ele>
        <time>2013-04-18T21:10:33Z</time>
        <extensions><gpxtpx:TrackPointExtension><gpxtpx:hr>164</gpxtpx:hr></gpxtpx:TrackPointExtension></extensions>
      </trkpt>
      <trkpt lat="59.9887544" lon="15.8288634">
        <ele>122.6</ele>
        <time>2013-04-18T21:10:34Z</time>
        <extensions><gpxtpx:TrackPointExtension><gpxtpx:hr>163</gpxtpx:hr></gpxtpx:TrackPointExtension></extensions>
      </trkpt>
      <trkpt lat="59.9887617" lon="15.8288433">
        <ele>122.6</ele>
        <time>2013-04-18T21:10:35Z</time>
        <extensions><gpxtpx:TrackPointExtension><gpxtpx:hr>163</gpxtpx:hr></gpxtpx:TrackPointExtension></extensions>
      </trkpt>
      <trkpt lat="59.9887757" lon="15.8288066">
        <ele>122.6</ele>
        <time>2013-04-18T21:10:36Z</time>
        <extensions><gpxtpx:TrackPointExtension><gpxtpx:hr>162</gpxtpx:hr></gpxtpx:TrackPointExtension></extensions>
      </trkpt>
      <trkpt lat="59.9887982" lon="15.8287377">
        <ele>122.6</ele>
        <time>2013-04-18T21:10:38Z</time>
        <extensions><gpxtpx:TrackPointExtension><gpxtpx:hr>162</gpxtpx:hr></gpxtpx:TrackPointExtension></extensions>
      </trkpt>
      <trkpt lat="59.9888031" lon="15.8287162">
        <ele>122.6</ele>
        <time>2013-04-18T21:10:39Z</time>
        <extensions><gpxtpx:TrackPointExtension><gpxtpx:hr>161</gpxtpx:hr></gpxtpx:TrackPointExtension></extensions>
      </trkpt>
      <trkpt lat="59.9888177" lon="15.8286667">
        <ele>122.6</ele>
        <time>2013-04-18T21:10:40Z</time>
        <extensions><gpxtpx:TrackPointExtension><gpxtpx:hr>161</gpxtpx:hr></gpxtpx:TrackPointExtension></extensions>
      </trkpt>
      <trkpt lat="59.9888249" lon="15.8286474">
        <ele>122.6</ele>
        <time>2013-04-18T21:10:41Z</time>
        <extensions><gpxtpx:TrackPointExtension><gpxtpx:hr>161</gpxtpx:hr></gpxtpx:TrackPointExtension></extensions>
      </trkpt>
      <trkpt lat="59.9888389" lon="15.8285999">
        <ele>119.4</ele>
        <time>2013-04-18T21:10:42Z</time>
        <extensions><gpxtpx:TrackPointExtension><gpxtpx:hr>160</gpxtpx:hr></gpxtpx:TrackPointExtension></extensions>
      </trkpt>
      <trkpt lat="59.9888458" lon="15.8285742">
        <ele>119.4</ele>
        <time>2013-04-18T21:10:43Z</time>
        <extensions><gpxtpx:TrackPointExtension><gpxtpx:hr>160</gpxtpx:hr></gpxtpx:TrackPointExtension></extensions>
      </trkpt>
      <trkpt lat="59.9888574" lon="15.8285237">
        <ele>119.4</ele>
        <time>2013-04-18T21:10:44Z</time>
        <extensions><gpxtpx:TrackPointExtension><gpxtpx:hr>160</gpxtpx:hr></gpxtpx:TrackPointExtension></extensions>
      </trkpt>
      <trkpt lat="59.988865" lon="15.8285043">
        <ele>118.2</ele>
        <time>2013-04-18T21:10:45Z</time>
        <extensions><gpxtpx:TrackPointExtension><gpxtpx:hr>159</gpxtpx:hr></gpxtpx:TrackPointExtension></extensions>
      </trkpt>
      <trkpt lat="59.9888797" lon="15.8284612">
        <ele>118.2</ele>
        <time>2013-04-18T21:10:46Z</time>
        <extensions><gpxtpx:TrackPointExtension><gpxtpx:hr>159</gpxtpx:hr></gpxtpx:TrackPointExtension></extensions>
      </trkpt>
      <trkpt lat="59.9888859" lon="15.8284386">
        <ele>118.2</ele>
        <time>2013-04-18T21:10:47Z</time>
        <extensions><gpxtpx:TrackPointExtension><gpxtpx:hr>159</gpxtpx:hr></gpxtpx:TrackPointExtension></extensions>
      </trkpt>
      <trkpt lat="59.9888977" lon="15.8283932">
        <ele>118.2</ele>
        <time>2013-04-18T21:10:48Z</time>
        <extensions><gpxtpx:TrackPointExtension><gpxtpx:hr>159</gpxtpx:hr></gpxtpx:TrackPointExtension></extensions>
      </trkpt>
      <trkpt lat="59.9889058" lon="15.8283693">
        <ele>118.2</ele>
        <time>2013-04-18T21:10:49Z</time>
        <extensions><gpxtpx:TrackPointExtension><gpxtpx:hr>158</gpxtpx:hr></gpxtpx:TrackPointExtension></extensions>
      </trkpt>
      <trkpt lat="59.9889184" lon="15.8283286">
        <ele>117.2</ele>
        <time>2013-04-18T21:10:50Z</time>
        <extensions><gpxtpx:TrackPointExtension><gpxtpx:hr>158</gpxtpx:hr></gpxtpx:TrackPointExtension></extensions>
      </trkpt>
      <trkpt lat="59.9889272" lon="15.8283098">
        <ele>117.2</ele>
        <time>2013-04-18T21:10:51Z</time>
        <extensions><gpxtpx:TrackPointExtension><gpxtpx:hr>158</gpxtpx:hr></gpxtpx:TrackPointExtension></extensions>
      </trkpt>
      <trkpt lat="59.9889401" lon="15.828255">
        <ele>117.2</ele>
        <time>2013-04-18T21:10:52Z</time>
        <extensions><gpxtpx:TrackPointExtension><gpxtpx:hr>157</gpxtpx:hr></gpxtpx:TrackPointExtension></extensions>
      </trkpt>
      <trkpt lat="59.9889479" lon="15.8282337">
        <ele>117.2</ele>
        <time>2013-04-18T21:10:53Z</time>
        <extensions><gpxtpx:TrackPointExtension><gpxtpx:hr>157</gpxtpx:hr></gpxtpx:TrackPointExtension></extensions>
      </trkpt>
      <trkpt lat="59.9889601" lon="15.8281894">
        <ele>116.2</ele>
        <time>2013-04-18T21:10:54Z</time>
        <extensions><gpxtpx:TrackPointExtension><gpxtpx:hr>157</gpxtpx:hr></gpxtpx:TrackPointExtension></extensions>
      </trkpt>
      <trkpt lat="59.9889705" lon="15.8281671">
        <ele>116.2</ele>
        <time>2013-04-18T21:10:55Z</time>
        <extensions><gpxtpx:TrackPointExtension><gpxtpx:hr>156</gpxtpx:hr></gpxtpx:TrackPointExtension></extensions>
      </trkpt>
      <trkpt lat="59.9889848" lon="15.8281253">
        <ele>116.2</ele>
        <time>2013-04-18T21:10:56Z</time>
        <extensions><gpxtpx:TrackPointExtension><gpxtpx:hr>156</gpxtpx:hr></gpxtpx:TrackPointExtension></extensions>
      </trkpt>
      <trkpt lat="59.9889917" lon="15.8281005">
        <ele>116.2</ele>
        <time>2013-04-18T21:10:57Z</time>
        <extensions><gpxtpx:TrackPointExtension><gpxtpx:hr>156</gpxtpx:hr></gpxtpx:TrackPointExtension></extensions>
      </trkpt>
      <trkpt lat="59.9890034" lon="15.8280522">
        <ele>115.2</ele>
        <time>2013-04-18T21:10:58Z</time>
        <extensions><gpxtpx:TrackPointExtension><gpxtpx:hr>156</gpxtpx:hr></gpxtpx:TrackPointExtension></extensions>
      </trkpt>
      <trkpt lat="59.9890092" lon="15.8280312">
        <ele>115.2</ele>
        <time>2013-04-18T21:10:59Z</time>
        <extensions><gpxtpx:TrackPointExtension><gpxtpx:hr>156</gpxtpx:hr></gpxtpx:TrackPointExtension></extensions>
      </trkpt>
      <trkpt lat="59.9890207" lon="15.8279855">
        <ele>115.2</ele>
        <time>2013-04-18T21:11:00Z</time>
        <extensions><gpxtpx:TrackPointExtension><gpxtpx:hr>156</gpxtpx:hr></gpxtpx:TrackPointExtension></extensions>
      </trkpt>
      <trkpt lat="59.9890254" lon="15.8279619">
        <ele>115.2</ele>
        <time>2013-04-18T21:11:01Z</time>
        <extensions><gpxtpx:TrackPointExtension><gpxtpx:hr>155</gpxtpx:hr></gpxtpx:TrackPointExtension></extensions>
      </trkpt>
      <trkpt lat="59.9890387" lon="15.8279108">
        <ele>115.2</ele>
        <time>2013-04-18T21:11:02Z</time>
        <extensions><gpxtpx:TrackPointExtension><gpxtpx:hr>155</gpxtpx:hr></gpxtpx:TrackPointExtension></extensions>
      </trkpt>
      <trkpt lat="59.9890461" lon="15.8278902">
        <ele>114</ele>
        <time>2013-04-18T21:11:03Z</time>
        <extensions><gpxtpx:TrackPointExtension><gpxtpx:hr>154</gpxtpx:hr></gpxtpx:TrackPointExtension></extensions>
      </trkpt>
      <trkpt lat="59.9890598" lon="15.8278451">
        <ele>114</ele>
        <time>2013-04-18T21:11:04Z</time>
        <extensions><gpxtpx:TrackPointExtension><gpxtpx:hr>154</gpxtpx:hr></gpxtpx:TrackPointExtension></extensions>
      </trkpt>
      <trkpt lat="59.9890658" lon="15.8278203">
        <ele>114</ele>
        <time>2013-04-18T21:11:05Z</time>
        <extensions><gpxtpx:TrackPointExtension><gpxtpx:hr>154</gpxtpx:hr></gpxtpx:TrackPointExtension></extensions>
      </trkpt>
      <trkpt lat="59.9890777" lon="15.8277748">
        <ele>114</ele>
        <time>2013-04-18T21:11:06Z</time>
        <extensions><gpxtpx:TrackPointExtension><gpxtpx:hr>153</gpxtpx:hr></gpxtpx:TrackPointExtension></extensions>
      </trkpt>
      <trkpt lat="59.9890969" lon="15.8277001">
        <ele>113</ele>
        <time>2013-04-18T21:11:08Z</time>
        <extensions><gpxtpx:TrackPointExtension><gpxtpx:hr>152</gpxtpx:hr></gpxtpx:TrackPointExtension></extensions>
      </trkpt>
      <trkpt lat="59.9891012" lon="15.827677">
        <ele>113</ele>
        <time>2013-04-18T21:11:09Z</time>
        <extensions><gpxtpx:TrackPointExtension><gpxtpx:hr>152</gpxtpx:hr></gpxtpx:TrackPointExtension></extensions>
      </trkpt>
      <trkpt lat="59.9891193" lon="15.82763">
        <ele>113</ele>
        <time>2013-04-18T21:11:10Z</time>
        <extensions><gpxtpx:TrackPointExtension><gpxtpx:hr>152</gpxtpx:hr></gpxtpx:TrackPointExtension></extensions>
      </trkpt>
      <trkpt lat="59.9891237" lon="15.8276055">
        <ele>113</ele>
        <time>2013-04-18T21:11:11Z</time>
        <extensions><gpxtpx:TrackPointExtension><gpxtpx:hr>152</gpxtpx:hr></gpxtpx:TrackPointExtension></extensions>
      </trkpt>
      <trkpt lat="59.9891346" lon="15.827557">
        <ele>112.8</ele>
        <time>2013-04-18T21:11:12Z</time>
        <extensions><gpxtpx:TrackPointExtension><gpxtpx:hr>152</gpxtpx:hr></gpxtpx:TrackPointExtension></extensions>
      </trkpt>
      <trkpt lat="59.9891404" lon="15.8275319">
        <ele>113</ele>
        <time>2013-04-18T21:11:13Z</time>
        <extensions><gpxtpx:TrackPointExtension><gpxtpx:hr>152</gpxtpx:hr></gpxtpx:TrackPointExtension></extensions>
      </trkpt>
      <trkpt lat="59.9891521" lon="15.8274835">
        <ele>113</ele>
        <time>2013-04-18T21:11:14Z</time>
        <extensions><gpxtpx:TrackPointExtension><gpxtpx:hr>152</gpxtpx:hr></gpxtpx:TrackPointExtension></extensions>
      </trkpt>
      <trkpt lat="59.9891562" lon="15.8274579">
        <ele>113</ele>
        <time>2013-04-18T21:11:15Z</time>
        <extensions><gpxtpx:TrackPointExtension><gpxtpx:hr>152</gpxtpx:hr></gpxtpx:TrackPointExtension></extensions>
      </trkpt>
      <trkpt lat="59.9891674" lon="15.8274072">
        <ele>113</ele>
        <time>2013-04-18T21:11:16Z</time>
        <extensions><gpxtpx:TrackPointExtension><gpxtpx:hr>152</gpxtpx:hr></gpxtpx:TrackPointExtension></extensions>
      </trkpt>
      <trkpt lat="59.9891742" lon="15.8273797">
        <ele>113</ele>
        <time>2013-04-18T21:11:17Z</time>
        <extensions><gpxtpx:TrackPointExtension><gpxtpx:hr>151</gpxtpx:hr></gpxtpx:TrackPointExtension></extensions>
      </trkpt>
      <trkpt lat="59.9891856" lon="15.8273306">
        <ele>111.8</ele>
        <time>2013-04-18T21:11:18Z</time>
        <extensions><gpxtpx:TrackPointExtension><gpxtpx:hr>151</gpxtpx:hr></gpxtpx:TrackPointExtension></extensions>
      </trkpt>
      <trkpt lat="59.9891917" lon="15.827305">
        <ele>111.8</ele>
        <time>2013-04-18T21:11:19Z</time>
        <extensions><gpxtpx:TrackPointExtension><gpxtpx:hr>151</gpxtpx:hr></gpxtpx:TrackPointExtension></extensions>
      </trkpt>
      <trkpt lat="59.9892035" lon="15.8272573">
        <ele>111.8</ele>
        <time>2013-04-18T21:11:20Z</time>
        <extensions><gpxtpx:TrackPointExtension><gpxtpx:hr>151</gpxtpx:hr></gpxtpx:TrackPointExtension></extensions>
      </trkpt>
      <trkpt lat="59.9892104" lon="15.8272494">
        <ele>111.8</ele>
        <time>2013-04-18T21:11:21Z</time>
        <extensions><gpxtpx:TrackPointExtension><gpxtpx:hr>151</gpxtpx:hr></gpxtpx:TrackPointExtension></extensions>
      </trkpt>
      <trkpt lat="59.9892262" lon="15.8272517">
        <ele>110.8</ele>
        <time>2013-04-18T21:11:22Z</time>
        <extensions><gpxtpx:TrackPointExtension><gpxtpx:hr>150</gpxtpx:hr></gpxtpx:TrackPointExtension></extensions>
      </trkpt>
      <trkpt lat="59.9892245" lon="15.8272924">
        <ele>110.8</ele>
        <time>2013-04-18T21:11:23Z</time>
        <extensions><gpxtpx:TrackPointExtension><gpxtpx:hr>151</gpxtpx:hr></gpxtpx:TrackPointExtension></extensions>
      </trkpt>
      <trkpt lat="59.9891854" lon="15.8275473">
        <ele>110.8</ele>
        <time>2013-04-18T21:11:26Z</time>
        <extensions><gpxtpx:TrackPointExtension><gpxtpx:hr>153</gpxtpx:hr></gpxtpx:TrackPointExtension></extensions>
      </trkpt>
      <trkpt lat="59.9891393" lon="15.8277141">
        <ele>110.8</ele>
        <time>2013-04-18T21:11:28Z</time>
        <extensions><gpxtpx:TrackPointExtension><gpxtpx:hr>155</gpxtpx:hr></gpxtpx:TrackPointExtension></extensions>
      </trkpt>
      <trkpt lat="59.9891207" lon="15.8277592">
        <ele>110.8</ele>
        <time>2013-04-18T21:11:29Z</time>
        <extensions><gpxtpx:TrackPointExtension><gpxtpx:hr>156</gpxtpx:hr></gpxtpx:TrackPointExtension></extensions>
      </trkpt>
      <trkpt lat="59.9890683" lon="15.8279013">
        <ele>110.8</ele>
        <time>2013-04-18T21:11:31Z</time>
        <extensions><gpxtpx:TrackPointExtension><gpxtpx:hr>158</gpxtpx:hr></gpxtpx:TrackPointExtension></extensions>
      </trkpt>
      <trkpt lat="59.9890182" lon="15.8280376">
        <ele>110.8</ele>
        <time>2013-04-18T21:11:33Z</time>
        <extensions><gpxtpx:TrackPointExtension><gpxtpx:hr>160</gpxtpx:hr></gpxtpx:TrackPointExtension></extensions>
      </trkpt>
      <trkpt lat="59.9889891" lon="15.8281383">
        <ele>114</ele>
        <time>2013-04-18T21:11:34Z</time>
        <extensions><gpxtpx:TrackPointExtension><gpxtpx:hr>161</gpxtpx:hr></gpxtpx:TrackPointExtension></extensions>
      </trkpt>
      <trkpt lat="59.9889761" lon="15.8281905">
        <ele>114</ele>
        <time>2013-04-18T21:11:35Z</time>
        <extensions><gpxtpx:TrackPointExtension><gpxtpx:hr>161</gpxtpx:hr></gpxtpx:TrackPointExtension></extensions>
      </trkpt>
      <trkpt lat="59.9889571" lon="15.8282803">
        <ele>115</ele>
        <time>2013-04-18T21:11:36Z</time>
        <extensions><gpxtpx:TrackPointExtension><gpxtpx:hr>163</gpxtpx:hr></gpxtpx:TrackPointExtension></extensions>
      </trkpt>
      <trkpt lat="59.9889119" lon="15.8284321">
        <ele>115.6</ele>
        <time>2013-04-18T21:11:38Z</time>
        <extensions><gpxtpx:TrackPointExtension><gpxtpx:hr>166</gpxtpx:hr></gpxtpx:TrackPointExtension></extensions>
      </trkpt>
      <trkpt lat="59.9888892" lon="15.8285203">
        <ele>115</ele>
        <time>2013-04-18T21:11:39Z</time>
        <extensions><gpxtpx:TrackPointExtension><gpxtpx:hr>167</gpxtpx:hr></gpxtpx:TrackPointExtension></extensions>
      </trkpt>
      <trkpt lat="59.9888691" lon="15.8285915">
        <ele>117.2</ele>
        <time>2013-04-18T21:11:40Z</time>
        <extensions><gpxtpx:TrackPointExtension><gpxtpx:hr>167</gpxtpx:hr></gpxtpx:TrackPointExtension></extensions>
      </trkpt>
      <trkpt lat="59.9888309" lon="15.8287304">
        <ele>117.2</ele>
        <time>2013-04-18T21:11:42Z</time>
        <extensions><gpxtpx:TrackPointExtension><gpxtpx:hr>169</gpxtpx:hr></gpxtpx:TrackPointExtension></extensions>
      </trkpt>
      <trkpt lat="59.9888133" lon="15.8287959">
        <ele>117.6</ele>
        <time>2013-04-18T21:11:43Z</time>
        <extensions><gpxtpx:TrackPointExtension><gpxtpx:hr>170</gpxtpx:hr></gpxtpx:TrackPointExtension></extensions>
      </trkpt>
      <trkpt lat="59.9887948" lon="15.8288567">
        <ele>118.4</ele>
        <time>2013-04-18T21:11:44Z</time>
        <extensions><gpxtpx:TrackPointExtension><gpxtpx:hr>170</gpxtpx:hr></gpxtpx:TrackPointExtension></extensions>
      </trkpt>
      <trkpt lat="59.9887518" lon="15.8289942">
        <ele>119.6</ele>
        <time>2013-04-18T21:11:46Z</time>
        <extensions><gpxtpx:TrackPointExtension><gpxtpx:hr>171</gpxtpx:hr></gpxtpx:TrackPointExtension></extensions>
      </trkpt>
      <trkpt lat="59.9887341" lon="15.8290476">
        <ele>119.4</ele>
        <time>2013-04-18T21:11:47Z</time>
        <extensions><gpxtpx:TrackPointExtension><gpxtpx:hr>172</gpxtpx:hr></gpxtpx:TrackPointExtension></extensions>
      </trkpt>
      <trkpt lat="59.9887088" lon="15.8291275">
        <ele>120.4</ele>
        <time>2013-04-18T21:11:48Z</time>
        <extensions><gpxtpx:TrackPointExtension><gpxtpx:hr>173</gpxtpx:hr></gpxtpx:TrackPointExtension></extensions>
      </trkpt>
      <trkpt lat="59.9886767" lon="15.8292166">
        <ele>121.6</ele>
        <time>2013-04-18T21:11:50Z</time>
        <extensions><gpxtpx:TrackPointExtension><gpxtpx:hr>173</gpxtpx:hr></gpxtpx:TrackPointExtension></extensions>
      </trkpt>
      <trkpt lat="59.9886652" lon="15.829276">
        <ele>121.8</ele>
        <time>2013-04-18T21:11:53Z</time>
        <extensions><gpxtpx:TrackPointExtension><gpxtpx:hr>174</gpxtpx:hr></gpxtpx:TrackPointExtension></extensions>
      </trkpt>
      <trkpt lat="59.9886682" lon="15.8292933">
        <ele>121.6</ele>
        <time>2013-04-18T21:11:54Z</time>
        <extensions><gpxtpx:TrackPointExtension><gpxtpx:hr>174</gpxtpx:hr></gpxtpx:TrackPointExtension></extensions>
      </trkpt>
      <trkpt lat="59.9886669" lon="15.829345">
        <ele>122.8</ele>
        <time>2013-04-18T21:11:57Z</time>
        <extensions><gpxtpx:TrackPointExtension><gpxtpx:hr>173</gpxtpx:hr></gpxtpx:TrackPointExtension></extensions>
      </trkpt>
      <trkpt lat="59.9886571" lon="15.8294403">
        <ele>122.8</ele>
        <time>2013-04-18T21:12:02Z</time>
        <extensions><gpxtpx:TrackPointExtension><gpxtpx:hr>170</gpxtpx:hr></gpxtpx:TrackPointExtension></extensions>
      </trkpt>
      <trkpt lat="59.9886634" lon="15.8295007">
        <ele>122.8</ele>
        <time>2013-04-18T21:12:05Z</time>
        <extensions><gpxtpx:TrackPointExtension><gpxtpx:hr>168</gpxtpx:hr></gpxtpx:TrackPointExtension></extensions>
      </trkpt>
      <trkpt lat="59.9886649" lon="15.8295223">
        <ele>122.8</ele>
        <time>2013-04-18T21:12:06Z</time>
        <extensions><gpxtpx:TrackPointExtension><gpxtpx:hr>168</gpxtpx:hr></gpxtpx:TrackPointExtension></extensions>
      </trkpt>
      <trkpt lat="59.9886705" lon="15.8295661">
        <ele>122.8</ele>
        <time>2013-04-18T21:12:08Z</time>
        <extensions><gpxtpx:TrackPointExtension><gpxtpx:hr>167</gpxtpx:hr></gpxtpx:TrackPointExtension></extensions>
      </trkpt>
      <trkpt lat="59.9886728" lon="15.8295929">
        <ele>122.8</ele>
        <time>2013-04-18T21:12:09Z</time>
        <extensions><gpxtpx:TrackPointExtension><gpxtpx:hr>166</gpxtpx:hr></gpxtpx:TrackPointExtension></extensions>
      </trkpt>
      <trkpt lat="59.9886776" lon="15.8296369">
        <ele>122.8</ele>
        <time>2013-04-18T21:12:10Z</time>
        <extensions><gpxtpx:TrackPointExtension><gpxtpx:hr>166</gpxtpx:hr></gpxtpx:TrackPointExtension></extensions>
      </trkpt>
      <trkpt lat="59.9886815" lon="15.8296701">
        <ele>122.8</ele>
        <time>2013-04-18T21:12:11Z</time>
        <extensions><gpxtpx:TrackPointExtension><gpxtpx:hr>166</gpxtpx:hr></gpxtpx:TrackPointExtension></extensions>
      </trkpt>
      <trkpt lat="59.9886897" lon="15.8297126">
        <ele>122.8</ele>
        <time>2013-04-18T21:12:12Z</time>
        <extensions><gpxtpx:TrackPointExtension><gpxtpx:hr>165</gpxtpx:hr></gpxtpx:TrackPointExtension></extensions>
      </trkpt>
      <trkpt lat="59.9886951" lon="15.8297461">
        <ele>122.8</ele>
        <time>2013-04-18T21:12:13Z</time>
        <extensions><gpxtpx:TrackPointExtension><gpxtpx:hr>165</gpxtpx:hr></gpxtpx:TrackPointExtension></extensions>
      </trkpt>
      <trkpt lat="59.9887014" lon="15.8297939">
        <ele>122.8</ele>
        <time>2013-04-18T21:12:14Z</time>
        <extensions><gpxtpx:TrackPointExtension><gpxtpx:hr>165</gpxtpx:hr></gpxtpx:TrackPointExtension></extensions>
      </trkpt>
      <trkpt lat="59.9887068" lon="15.8298295">
        <ele>122.8</ele>
        <time>2013-04-18T21:12:15Z</time>
        <extensions><gpxtpx:TrackPointExtension><gpxtpx:hr>165</gpxtpx:hr></gpxtpx:TrackPointExtension></extensions>
      </trkpt>
      <trkpt lat="59.9887159" lon="15.8298766">
        <ele>122.8</ele>
        <time>2013-04-18T21:12:16Z</time>
        <extensions><gpxtpx:TrackPointExtension><gpxtpx:hr>165</gpxtpx:hr></gpxtpx:TrackPointExtension></extensions>
      </trkpt>
      <trkpt lat="59.9887207" lon="15.8299086">
        <ele>122.8</ele>
        <time>2013-04-18T21:12:17Z</time>
        <extensions><gpxtpx:TrackPointExtension><gpxtpx:hr>165</gpxtpx:hr></gpxtpx:TrackPointExtension></extensions>
      </trkpt>
      <trkpt lat="59.988728" lon="15.8299575">
        <ele>123.8</ele>
        <time>2013-04-18T21:12:18Z</time>
        <extensions><gpxtpx:TrackPointExtension><gpxtpx:hr>164</gpxtpx:hr></gpxtpx:TrackPointExtension></extensions>
      </trkpt>
      <trkpt lat="59.9887332" lon="15.8299968">
        <ele>123.8</ele>
        <time>2013-04-18T21:12:19Z</time>
        <extensions><gpxtpx:TrackPointExtension><gpxtpx:hr>165</gpxtpx:hr></gpxtpx:TrackPointExtension></extensions>
      </trkpt>
      <trkpt lat="59.9887387" lon="15.8300425">
        <ele>123.8</ele>
        <time>2013-04-18T21:12:20Z</time>
        <extensions><gpxtpx:TrackPointExtension><gpxtpx:hr>164</gpxtpx:hr></gpxtpx:TrackPointExtension></extensions>
      </trkpt>
      <trkpt lat="59.9887432" lon="15.8300833">
        <ele>123.8</ele>
        <time>2013-04-18T21:12:21Z</time>
        <extensions><gpxtpx:TrackPointExtension><gpxtpx:hr>164</gpxtpx:hr></gpxtpx:TrackPointExtension></extensions>
      </trkpt>
      <trkpt lat="59.9887544" lon="15.830187">
        <ele>123.8</ele>
        <time>2013-04-18T21:12:24Z</time>
        <extensions><gpxtpx:TrackPointExtension><gpxtpx:hr>164</gpxtpx:hr></gpxtpx:TrackPointExtension></extensions>
      </trkpt>
      <trkpt lat="59.9887537" lon="15.8302634">
        <ele>123.8</ele>
        <time>2013-04-18T21:12:25Z</time>
        <extensions><gpxtpx:TrackPointExtension><gpxtpx:hr>164</gpxtpx:hr></gpxtpx:TrackPointExtension></extensions>
      </trkpt>
      <trkpt lat="59.9887527" lon="15.8303171">
        <ele>123.8</ele>
        <time>2013-04-18T21:12:26Z</time>
        <extensions><gpxtpx:TrackPointExtension><gpxtpx:hr>164</gpxtpx:hr></gpxtpx:TrackPointExtension></extensions>
      </trkpt>
      <trkpt lat="59.9887436" lon="15.8303871">
        <ele>123.8</ele>
        <time>2013-04-18T21:12:28Z</time>
        <extensions><gpxtpx:TrackPointExtension><gpxtpx:hr>164</gpxtpx:hr></gpxtpx:TrackPointExtension></extensions>
      </trkpt>
      <trkpt lat="59.9887275" lon="15.8304555">
        <ele>123.8</ele>
        <time>2013-04-18T21:12:30Z</time>
        <extensions><gpxtpx:TrackPointExtension><gpxtpx:hr>164</gpxtpx:hr></gpxtpx:TrackPointExtension></extensions>
      </trkpt>
      <trkpt lat="59.9886881" lon="15.830546">
        <ele>123.8</ele>
        <time>2013-04-18T21:12:33Z</time>
        <extensions><gpxtpx:TrackPointExtension><gpxtpx:hr>165</gpxtpx:hr></gpxtpx:TrackPointExtension></extensions>
      </trkpt>
      <trkpt lat="59.9886729" lon="15.8305848">
        <ele>123.8</ele>
        <time>2013-04-18T21:12:34Z</time>
        <extensions><gpxtpx:TrackPointExtension><gpxtpx:hr>164</gpxtpx:hr></gpxtpx:TrackPointExtension></extensions>
      </trkpt>
      <trkpt lat="59.9886586" lon="15.8306226">
        <ele>123.8</ele>
        <time>2013-04-18T21:12:35Z</time>
        <extensions><gpxtpx:TrackPointExtension><gpxtpx:hr>164</gpxtpx:hr></gpxtpx:TrackPointExtension></extensions>
      </trkpt>
      <trkpt lat="59.9886507" lon="15.8306364">
        <ele>123.8</ele>
        <time>2013-04-18T21:12:36Z</time>
        <extensions><gpxtpx:TrackPointExtension><gpxtpx:hr>164</gpxtpx:hr></gpxtpx:TrackPointExtension></extensions>
      </trkpt>
      <trkpt lat="59.9885998" lon="15.8307564">
        <ele>123.8</ele>
        <time>2013-04-18T21:12:40Z</time>
        <extensions><gpxtpx:TrackPointExtension><gpxtpx:hr>163</gpxtpx:hr></gpxtpx:TrackPointExtension></extensions>
      </trkpt>
      <trkpt lat="59.9885889" lon="15.8307869">
        <ele>123.8</ele>
        <time>2013-04-18T21:12:41Z</time>
        <extensions><gpxtpx:TrackPointExtension><gpxtpx:hr>163</gpxtpx:hr></gpxtpx:TrackPointExtension></extensions>
      </trkpt>
      <trkpt lat="59.9885748" lon="15.8308203">
        <ele>123.8</ele>
        <time>2013-04-18T21:12:42Z</time>
        <extensions><gpxtpx:TrackPointExtension><gpxtpx:hr>163</gpxtpx:hr></gpxtpx:TrackPointExtension></extensions>
      </trkpt>
      <trkpt lat="59.9885616" lon="15.8308556">
        <ele>123.8</ele>
        <time>2013-04-18T21:12:43Z</time>
        <extensions><gpxtpx:TrackPointExtension><gpxtpx:hr>163</gpxtpx:hr></gpxtpx:TrackPointExtension></extensions>
      </trkpt>
      <trkpt lat="59.9885495" lon="15.8308848">
        <ele>123.8</ele>
        <time>2013-04-18T21:12:44Z</time>
        <extensions><gpxtpx:TrackPointExtension><gpxtpx:hr>162</gpxtpx:hr></gpxtpx:TrackPointExtension></extensions>
      </trkpt>
      <trkpt lat="59.9885405" lon="15.8309156">
        <ele>123.8</ele>
        <time>2013-04-18T21:12:45Z</time>
        <extensions><gpxtpx:TrackPointExtension><gpxtpx:hr>163</gpxtpx:hr></gpxtpx:TrackPointExtension></extensions>
      </trkpt>
      <trkpt lat="59.9885255" lon="15.8309541">
        <ele>123.8</ele>
        <time>2013-04-18T21:12:46Z</time>
        <extensions><gpxtpx:TrackPointExtension><gpxtpx:hr>162</gpxtpx:hr></gpxtpx:TrackPointExtension></extensions>
      </trkpt>
      <trkpt lat="59.9885137" lon="15.8309922">
        <ele>123.8</ele>
        <time>2013-04-18T21:12:47Z</time>
        <extensions><gpxtpx:TrackPointExtension><gpxtpx:hr>162</gpxtpx:hr></gpxtpx:TrackPointExtension></extensions>
      </trkpt>
      <trkpt lat="59.9885025" lon="15.8310239">
        <ele>123.8</ele>
        <time>2013-04-18T21:12:48Z</time>
        <extensions><gpxtpx:TrackPointExtension><gpxtpx:hr>162</gpxtpx:hr></gpxtpx:TrackPointExtension></extensions>
      </trkpt>
      <trkpt lat="59.9884938" lon="15.8310525">
        <ele>123.8</ele>
        <time>2013-04-18T21:12:49Z</time>
        <extensions><gpxtpx:TrackPointExtension><gpxtpx:hr>162</gpxtpx:hr></gpxtpx:TrackPointExtension></extensions>
      </trkpt>
      <trkpt lat="59.9884833" lon="15.8310952">
        <ele>123.8</ele>
        <time>2013-04-18T21:12:50Z</time>
        <extensions><gpxtpx:TrackPointExtension><gpxtpx:hr>162</gpxtpx:hr></gpxtpx:TrackPointExtension></extensions>
      </trkpt>
      <trkpt lat="59.9884723" lon="15.8311314">
        <ele>123.8</ele>
        <time>2013-04-18T21:12:51Z</time>
        <extensions><gpxtpx:TrackPointExtension><gpxtpx:hr>162</gpxtpx:hr></gpxtpx:TrackPointExtension></extensions>
      </trkpt>
      <trkpt lat="59.9884576" lon="15.8311798">
        <ele>123.8</ele>
        <time>2013-04-18T21:12:52Z</time>
        <extensions><gpxtpx:TrackPointExtension><gpxtpx:hr>162</gpxtpx:hr></gpxtpx:TrackPointExtension></extensions>
      </trkpt>
      <trkpt lat="59.9884434" lon="15.8312223">
        <ele>123.8</ele>
        <time>2013-04-18T21:12:53Z</time>
        <extensions><gpxtpx:TrackPointExtension><gpxtpx:hr>162</gpxtpx:hr></gpxtpx:TrackPointExtension></extensions>
      </trkpt>
      <trkpt lat="59.9884341" lon="15.8312496">
        <ele>123.8</ele>
        <time>2013-04-18T21:12:54Z</time>
        <extensions><gpxtpx:TrackPointExtension><gpxtpx:hr>161</gpxtpx:hr></gpxtpx:TrackPointExtension></extensions>
      </trkpt>
      <trkpt lat="59.9884252" lon="15.8312747">
        <ele>123.8</ele>
        <time>2013-04-18T21:12:55Z</time>
        <extensions><gpxtpx:TrackPointExtension><gpxtpx:hr>161</gpxtpx:hr></gpxtpx:TrackPointExtension></extensions>
      </trkpt>
      <trkpt lat="59.9884139" lon="15.8313163">
        <ele>123.8</ele>
        <time>2013-04-18T21:12:56Z</time>
        <extensions><gpxtpx:TrackPointExtension><gpxtpx:hr>162</gpxtpx:hr></gpxtpx:TrackPointExtension></extensions>
      </trkpt>
      <trkpt lat="59.9884063" lon="15.8313474">
        <ele>123.8</ele>
        <time>2013-04-18T21:12:57Z</time>
        <extensions><gpxtpx:TrackPointExtension><gpxtpx:hr>162</gpxtpx:hr></gpxtpx:TrackPointExtension></extensions>
      </trkpt>
      <trkpt lat="59.9883955" lon="15.8313916">
        <ele>123.8</ele>
        <time>2013-04-18T21:12:58Z</time>
        <extensions><gpxtpx:TrackPointExtension><gpxtpx:hr>161</gpxtpx:hr></gpxtpx:TrackPointExtension></extensions>
      </trkpt>
      <trkpt lat="59.9883862" lon="15.8314215">
        <ele>123.8</ele>
        <time>2013-04-18T21:12:59Z</time>
        <extensions><gpxtpx:TrackPointExtension><gpxtpx:hr>161</gpxtpx:hr></gpxtpx:TrackPointExtension></extensions>
      </trkpt>
      <trkpt lat="59.9883724" lon="15.8314595">
        <ele>123.8</ele>
        <time>2013-04-18T21:13:00Z</time>
        <extensions><gpxtpx:TrackPointExtension><gpxtpx:hr>161</gpxtpx:hr></gpxtpx:TrackPointExtension></extensions>
      </trkpt>
      <trkpt lat="59.9883549" lon="15.83153">
        <ele>123.8</ele>
        <time>2013-04-18T21:13:02Z</time>
        <extensions><gpxtpx:TrackPointExtension><gpxtpx:hr>161</gpxtpx:hr></gpxtpx:TrackPointExtension></extensions>
      </trkpt>
      <trkpt lat="59.9883464" lon="15.8315614">
        <ele>123.8</ele>
        <time>2013-04-18T21:13:03Z</time>
        <extensions><gpxtpx:TrackPointExtension><gpxtpx:hr>161</gpxtpx:hr></gpxtpx:TrackPointExtension></extensions>
      </trkpt>
      <trkpt lat="59.9883183" lon="15.8316347">
        <ele>123.8</ele>
        <time>2013-04-18T21:13:05Z</time>
        <extensions><gpxtpx:TrackPointExtension><gpxtpx:hr>160</gpxtpx:hr></gpxtpx:TrackPointExtension></extensions>
      </trkpt>
      <trkpt lat="59.988307" lon="15.8316758">
        <ele>123.8</ele>
        <time>2013-04-18T21:13:06Z</time>
        <extensions><gpxtpx:TrackPointExtension><gpxtpx:hr>161</gpxtpx:hr></gpxtpx:TrackPointExtension></extensions>
      </trkpt>
      <trkpt lat="59.9882967" lon="15.8317071">
        <ele>123.8</ele>
        <time>2013-04-18T21:13:07Z</time>
        <extensions><gpxtpx:TrackPointExtension><gpxtpx:hr>160</gpxtpx:hr></gpxtpx:TrackPointExtension></extensions>
      </trkpt>
      <trkpt lat="59.9882558" lon="15.8318205">
        <ele>120.8</ele>
        <time>2013-04-18T21:13:10Z</time>
        <extensions><gpxtpx:TrackPointExtension><gpxtpx:hr>160</gpxtpx:hr></gpxtpx:TrackPointExtension></extensions>
      </trkpt>
      <trkpt lat="59.9882411" lon="15.8318591">
        <ele>120.8</ele>
        <time>2013-04-18T21:13:11Z</time>
        <extensions><gpxtpx:TrackPointExtension><gpxtpx:hr>160</gpxtpx:hr></gpxtpx:TrackPointExtension></extensions>
      </trkpt>
      <trkpt lat="59.9882011" lon="15.8319847">
        <ele>120.6</ele>
        <time>2013-04-18T21:13:15Z</time>
        <extensions><gpxtpx:TrackPointExtension><gpxtpx:hr>159</gpxtpx:hr></gpxtpx:TrackPointExtension></extensions>
      </trkpt>
      <trkpt lat="59.9881847" lon="15.8320187">
        <ele>119.6</ele>
        <time>2013-04-18T21:13:16Z</time>
        <extensions><gpxtpx:TrackPointExtension><gpxtpx:hr>159</gpxtpx:hr></gpxtpx:TrackPointExtension></extensions>
      </trkpt>
      <trkpt lat="59.9881294" lon="15.8321471">
        <ele>119.6</ele>
        <time>2013-04-18T21:13:20Z</time>
        <extensions><gpxtpx:TrackPointExtension><gpxtpx:hr>159</gpxtpx:hr></gpxtpx:TrackPointExtension></extensions>
      </trkpt>
      <trkpt lat="59.9881215" lon="15.8321683">
        <ele>119.6</ele>
        <time>2013-04-18T21:13:21Z</time>
        <extensions><gpxtpx:TrackPointExtension><gpxtpx:hr>158</gpxtpx:hr></gpxtpx:TrackPointExtension></extensions>
      </trkpt>
      <trkpt lat="59.9881064" lon="15.8322016">
        <ele>119.6</ele>
        <time>2013-04-18T21:13:22Z</time>
        <extensions><gpxtpx:TrackPointExtension><gpxtpx:hr>158</gpxtpx:hr></gpxtpx:TrackPointExtension></extensions>
      </trkpt>
      <trkpt lat="59.9880913" lon="15.8322332">
        <ele>118.6</ele>
        <time>2013-04-18T21:13:23Z</time>
        <extensions><gpxtpx:TrackPointExtension><gpxtpx:hr>158</gpxtpx:hr></gpxtpx:TrackPointExtension></extensions>
      </trkpt>
      <trkpt lat="59.9880795" lon="15.8322648">
        <ele>118.6</ele>
        <time>2013-04-18T21:13:24Z</time>
        <extensions><gpxtpx:TrackPointExtension><gpxtpx:hr>157</gpxtpx:hr></gpxtpx:TrackPointExtension></extensions>
      </trkpt>
      <trkpt lat="59.9880681" lon="15.8322869">
        <ele>118.6</ele>
        <time>2013-04-18T21:13:25Z</time>
        <extensions><gpxtpx:TrackPointExtension><gpxtpx:hr>157</gpxtpx:hr></gpxtpx:TrackPointExtension></extensions>
      </trkpt>
      <trkpt lat="59.9880501" lon="15.8323204">
        <ele>118.6</ele>
        <time>2013-04-18T21:13:26Z</time>
        <extensions><gpxtpx:TrackPointExtension><gpxtpx:hr>157</gpxtpx:hr></gpxtpx:TrackPointExtension></extensions>
      </trkpt>
      <trkpt lat="59.9880391" lon="15.8323435">
        <ele>118.6</ele>
        <time>2013-04-18T21:13:27Z</time>
        <extensions><gpxtpx:TrackPointExtension><gpxtpx:hr>157</gpxtpx:hr></gpxtpx:TrackPointExtension></extensions>
      </trkpt>
      <trkpt lat="59.9880256" lon="15.8323721">
        <ele>118.6</ele>
        <time>2013-04-18T21:13:28Z</time>
        <extensions><gpxtpx:TrackPointExtension><gpxtpx:hr>156</gpxtpx:hr></gpxtpx:TrackPointExtension></extensions>
      </trkpt>
      <trkpt lat="59.9880135" lon="15.8323905">
        <ele>118.6</ele>
        <time>2013-04-18T21:13:29Z</time>
        <extensions><gpxtpx:TrackPointExtension><gpxtpx:hr>156</gpxtpx:hr></gpxtpx:TrackPointExtension></extensions>
      </trkpt>
      <trkpt lat="59.9879888" lon="15.8324212">
        <ele>118.6</ele>
        <time>2013-04-18T21:13:30Z</time>
        <extensions><gpxtpx:TrackPointExtension><gpxtpx:hr>156</gpxtpx:hr></gpxtpx:TrackPointExtension></extensions>
      </trkpt>
      <trkpt lat="59.987969" lon="15.8324446">
        <ele>118.6</ele>
        <time>2013-04-18T21:13:31Z</time>
        <extensions><gpxtpx:TrackPointExtension><gpxtpx:hr>155</gpxtpx:hr></gpxtpx:TrackPointExtension></extensions>
      </trkpt>
      <trkpt lat="59.9879028" lon="15.8324943">
        <ele>118.6</ele>
        <time>2013-04-18T21:13:34Z</time>
        <extensions><gpxtpx:TrackPointExtension><gpxtpx:hr>156</gpxtpx:hr></gpxtpx:TrackPointExtension></extensions>
      </trkpt>
      <trkpt lat="59.9878844" lon="15.8325121">
        <ele>118.6</ele>
        <time>2013-04-18T21:13:35Z</time>
        <extensions><gpxtpx:TrackPointExtension><gpxtpx:hr>157</gpxtpx:hr></gpxtpx:TrackPointExtension></extensions>
      </trkpt>
      <trkpt lat="59.987865" lon="15.8325267">
        <ele>118.6</ele>
        <time>2013-04-18T21:13:36Z</time>
        <extensions><gpxtpx:TrackPointExtension><gpxtpx:hr>157</gpxtpx:hr></gpxtpx:TrackPointExtension></extensions>
      </trkpt>
      <trkpt lat="59.9878548" lon="15.8325375">
        <ele>118.6</ele>
        <time>2013-04-18T21:13:37Z</time>
        <extensions><gpxtpx:TrackPointExtension><gpxtpx:hr>158</gpxtpx:hr></gpxtpx:TrackPointExtension></extensions>
      </trkpt>
      <trkpt lat="59.9878399" lon="15.8325522">
        <ele>118.6</ele>
        <time>2013-04-18T21:13:38Z</time>
        <extensions><gpxtpx:TrackPointExtension><gpxtpx:hr>158</gpxtpx:hr></gpxtpx:TrackPointExtension></extensions>
      </trkpt>
      <trkpt lat="59.9878197" lon="15.8325685">
        <ele>118.6</ele>
        <time>2013-04-18T21:13:39Z</time>
        <extensions><gpxtpx:TrackPointExtension><gpxtpx:hr>158</gpxtpx:hr></gpxtpx:TrackPointExtension></extensions>
      </trkpt>
      <trkpt lat="59.9878033" lon="15.832582">
        <ele>118.6</ele>
        <time>2013-04-18T21:13:40Z</time>
        <extensions><gpxtpx:TrackPointExtension><gpxtpx:hr>158</gpxtpx:hr></gpxtpx:TrackPointExtension></extensions>
      </trkpt>
      <trkpt lat="59.9877664" lon="15.8325992">
        <ele>118.6</ele>
        <time>2013-04-18T21:13:42Z</time>
        <extensions><gpxtpx:TrackPointExtension><gpxtpx:hr>158</gpxtpx:hr></gpxtpx:TrackPointExtension></extensions>
      </trkpt>
      <trkpt lat="59.9877474" lon="15.8326077">
        <ele>118.8</ele>
        <time>2013-04-18T21:13:43Z</time>
        <extensions><gpxtpx:TrackPointExtension><gpxtpx:hr>158</gpxtpx:hr></gpxtpx:TrackPointExtension></extensions>
      </trkpt>
      <trkpt lat="59.9877263" lon="15.8326233">
        <ele>118.6</ele>
        <time>2013-04-18T21:13:44Z</time>
        <extensions><gpxtpx:TrackPointExtension><gpxtpx:hr>158</gpxtpx:hr></gpxtpx:TrackPointExtension></extensions>
      </trkpt>
      <trkpt lat="59.9877114" lon="15.8326363">
        <ele>118.8</ele>
        <time>2013-04-18T21:13:45Z</time>
        <extensions><gpxtpx:TrackPointExtension><gpxtpx:hr>158</gpxtpx:hr></gpxtpx:TrackPointExtension></extensions>
      </trkpt>
      <trkpt lat="59.9876926" lon="15.832659">
        <ele>118.6</ele>
        <time>2013-04-18T21:13:46Z</time>
        <extensions><gpxtpx:TrackPointExtension><gpxtpx:hr>159</gpxtpx:hr></gpxtpx:TrackPointExtension></extensions>
      </trkpt>
      <trkpt lat="59.9876005" lon="15.8327424">
        <ele>118.6</ele>
        <time>2013-04-18T21:13:51Z</time>
        <extensions><gpxtpx:TrackPointExtension><gpxtpx:hr>158</gpxtpx:hr></gpxtpx:TrackPointExtension></extensions>
      </trkpt>
      <trkpt lat="59.9875146" lon="15.8328173">
        <ele>118.6</ele>
        <time>2013-04-18T21:13:55Z</time>
        <extensions><gpxtpx:TrackPointExtension><gpxtpx:hr>158</gpxtpx:hr></gpxtpx:TrackPointExtension></extensions>
      </trkpt>
      <trkpt lat="59.987492" lon="15.8328434">
        <ele>118.6</ele>
        <time>2013-04-18T21:13:56Z</time>
        <extensions><gpxtpx:TrackPointExtension><gpxtpx:hr>157</gpxtpx:hr></gpxtpx:TrackPointExtension></extensions>
      </trkpt>
      <trkpt lat="59.9874778" lon="15.8328595">
        <ele>118.6</ele>
        <time>2013-04-18T21:13:57Z</time>
        <extensions><gpxtpx:TrackPointExtension><gpxtpx:hr>158</gpxtpx:hr></gpxtpx:TrackPointExtension></extensions>
      </trkpt>
      <trkpt lat="59.9873833" lon="15.8329911">
        <ele>118.6</ele>
        <time>2013-04-18T21:14:02Z</time>
        <extensions><gpxtpx:TrackPointExtension><gpxtpx:hr>157</gpxtpx:hr></gpxtpx:TrackPointExtension></extensions>
      </trkpt>
      <trkpt lat="59.9873693" lon="15.8330199">
        <ele>118.6</ele>
        <time>2013-04-18T21:14:03Z</time>
        <extensions><gpxtpx:TrackPointExtension><gpxtpx:hr>156</gpxtpx:hr></gpxtpx:TrackPointExtension></extensions>
      </trkpt>
      <trkpt lat="59.9873501" lon="15.8330466">
        <ele>118.6</ele>
        <time>2013-04-18T21:14:04Z</time>
        <extensions><gpxtpx:TrackPointExtension><gpxtpx:hr>156</gpxtpx:hr></gpxtpx:TrackPointExtension></extensions>
      </trkpt>
      <trkpt lat="59.9873351" lon="15.8330705">
        <ele>118.6</ele>
        <time>2013-04-18T21:14:05Z</time>
        <extensions><gpxtpx:TrackPointExtension><gpxtpx:hr>156</gpxtpx:hr></gpxtpx:TrackPointExtension></extensions>
      </trkpt>
      <trkpt lat="59.9873129" lon="15.8331004">
        <ele>117.6</ele>
        <time>2013-04-18T21:14:06Z</time>
        <extensions><gpxtpx:TrackPointExtension><gpxtpx:hr>157</gpxtpx:hr></gpxtpx:TrackPointExtension></extensions>
      </trkpt>
      <trkpt lat="59.9872987" lon="15.8331282">
        <ele>117.6</ele>
        <time>2013-04-18T21:14:07Z</time>
        <extensions><gpxtpx:TrackPointExtension><gpxtpx:hr>157</gpxtpx:hr></gpxtpx:TrackPointExtension></extensions>
      </trkpt>
      <trkpt lat="59.987249" lon="15.8332128">
        <ele>117.6</ele>
        <time>2013-04-18T21:14:10Z</time>
        <extensions><gpxtpx:TrackPointExtension><gpxtpx:hr>156</gpxtpx:hr></gpxtpx:TrackPointExtension></extensions>
      </trkpt>
      <trkpt lat="59.9871657" lon="15.8333275">
        <ele>117.6</ele>
        <time>2013-04-18T21:14:15Z</time>
        <extensions><gpxtpx:TrackPointExtension><gpxtpx:hr>156</gpxtpx:hr></gpxtpx:TrackPointExtension></extensions>
      </trkpt>
      <trkpt lat="59.9871408" lon="15.8333513">
        <ele>117.6</ele>
        <time>2013-04-18T21:14:16Z</time>
        <extensions><gpxtpx:TrackPointExtension><gpxtpx:hr>156</gpxtpx:hr></gpxtpx:TrackPointExtension></extensions>
      </trkpt>
      <trkpt lat="59.9871302" lon="15.8333619">
        <ele>117.6</ele>
        <time>2013-04-18T21:14:17Z</time>
        <extensions><gpxtpx:TrackPointExtension><gpxtpx:hr>156</gpxtpx:hr></gpxtpx:TrackPointExtension></extensions>
      </trkpt>
      <trkpt lat="59.9871122" lon="15.8333719">
        <ele>116.4</ele>
        <time>2013-04-18T21:14:18Z</time>
        <extensions><gpxtpx:TrackPointExtension><gpxtpx:hr>156</gpxtpx:hr></gpxtpx:TrackPointExtension></extensions>
      </trkpt>
      <trkpt lat="59.9870494" lon="15.8333911">
        <ele>116.4</ele>
        <time>2013-04-18T21:14:21Z</time>
        <extensions><gpxtpx:TrackPointExtension><gpxtpx:hr>156</gpxtpx:hr></gpxtpx:TrackPointExtension></extensions>
      </trkpt>
      <trkpt lat="59.9870246" lon="15.8333889">
        <ele>116.4</ele>
        <time>2013-04-18T21:14:22Z</time>
        <extensions><gpxtpx:TrackPointExtension><gpxtpx:hr>155</gpxtpx:hr></gpxtpx:TrackPointExtension></extensions>
      </trkpt>
      <trkpt lat="59.986961" lon="15.8333969">
        <ele>116.4</ele>
        <time>2013-04-18T21:14:25Z</time>
        <extensions><gpxtpx:TrackPointExtension><gpxtpx:hr>156</gpxtpx:hr></gpxtpx:TrackPointExtension></extensions>
      </trkpt>
      <trkpt lat="59.9869378" lon="15.8333956">
        <ele>115.4</ele>
        <time>2013-04-18T21:14:26Z</time>
        <extensions><gpxtpx:TrackPointExtension><gpxtpx:hr>155</gpxtpx:hr></gpxtpx:TrackPointExtension></extensions>
      </trkpt>
      <trkpt lat="59.9868913" lon="15.8333939">
        <ele>115.4</ele>
        <time>2013-04-18T21:14:28Z</time>
        <extensions><gpxtpx:TrackPointExtension><gpxtpx:hr>154</gpxtpx:hr></gpxtpx:TrackPointExtension></extensions>
      </trkpt>
      <trkpt lat="59.9868728" lon="15.8333926">
        <ele>115.4</ele>
        <time>2013-04-18T21:14:29Z</time>
        <extensions><gpxtpx:TrackPointExtension><gpxtpx:hr>154</gpxtpx:hr></gpxtpx:TrackPointExtension></extensions>
      </trkpt>
      <trkpt lat="59.9868456" lon="15.8333934">
        <ele>115.4</ele>
        <time>2013-04-18T21:14:30Z</time>
        <extensions><gpxtpx:TrackPointExtension><gpxtpx:hr>154</gpxtpx:hr></gpxtpx:TrackPointExtension></extensions>
      </trkpt>
      <trkpt lat="59.9868222" lon="15.8333947">
        <ele>115.4</ele>
        <time>2013-04-18T21:14:31Z</time>
        <extensions><gpxtpx:TrackPointExtension><gpxtpx:hr>154</gpxtpx:hr></gpxtpx:TrackPointExtension></extensions>
      </trkpt>
      <trkpt lat="59.9867954" lon="15.8333942">
        <ele>115.4</ele>
        <time>2013-04-18T21:14:32Z</time>
        <extensions><gpxtpx:TrackPointExtension><gpxtpx:hr>154</gpxtpx:hr></gpxtpx:TrackPointExtension></extensions>
      </trkpt>
      <trkpt lat="59.9867765" lon="15.8333914">
        <ele>115.4</ele>
        <time>2013-04-18T21:14:33Z</time>
        <extensions><gpxtpx:TrackPointExtension><gpxtpx:hr>154</gpxtpx:hr></gpxtpx:TrackPointExtension></extensions>
      </trkpt>
      <trkpt lat="59.9867489" lon="15.8333874">
        <ele>115.4</ele>
        <time>2013-04-18T21:14:34Z</time>
        <extensions><gpxtpx:TrackPointExtension><gpxtpx:hr>155</gpxtpx:hr></gpxtpx:TrackPointExtension></extensions>
      </trkpt>
      <trkpt lat="59.9867254" lon="15.833384">
        <ele>115.4</ele>
        <time>2013-04-18T21:14:35Z</time>
        <extensions><gpxtpx:TrackPointExtension><gpxtpx:hr>155</gpxtpx:hr></gpxtpx:TrackPointExtension></extensions>
      </trkpt>
      <trkpt lat="59.9866934" lon="15.8333692">
        <ele>115.4</ele>
        <time>2013-04-18T21:14:36Z</time>
        <extensions><gpxtpx:TrackPointExtension><gpxtpx:hr>154</gpxtpx:hr></gpxtpx:TrackPointExtension></extensions>
      </trkpt>
      <trkpt lat="59.9866738" lon="15.833366">
        <ele>115.4</ele>
        <time>2013-04-18T21:14:37Z</time>
        <extensions><gpxtpx:TrackPointExtension><gpxtpx:hr>154</gpxtpx:hr></gpxtpx:TrackPointExtension></extensions>
      </trkpt>
      <trkpt lat="59.9866482" lon="15.8333687">
        <ele>115.4</ele>
        <time>2013-04-18T21:14:38Z</time>
        <extensions><gpxtpx:TrackPointExtension><gpxtpx:hr>154</gpxtpx:hr></gpxtpx:TrackPointExtension></extensions>
      </trkpt>
      <trkpt lat="59.9866315" lon="15.8333699">
        <ele>115.4</ele>
        <time>2013-04-18T21:14:39Z</time>
        <extensions><gpxtpx:TrackPointExtension><gpxtpx:hr>154</gpxtpx:hr></gpxtpx:TrackPointExtension></extensions>
      </trkpt>
      <trkpt lat="59.9866069" lon="15.8333753">
        <ele>115.4</ele>
        <time>2013-04-18T21:14:40Z</time>
        <extensions><gpxtpx:TrackPointExtension><gpxtpx:hr>154</gpxtpx:hr></gpxtpx:TrackPointExtension></extensions>
      </trkpt>
      <trkpt lat="59.9865866" lon="15.8333811">
        <ele>115.4</ele>
        <time>2013-04-18T21:14:41Z</time>
        <extensions><gpxtpx:TrackPointExtension><gpxtpx:hr>154</gpxtpx:hr></gpxtpx:TrackPointExtension></extensions>
      </trkpt>
      <trkpt lat="59.9865405" lon="15.8333869">
        <ele>115.4</ele>
        <time>2013-04-18T21:14:43Z</time>
        <extensions><gpxtpx:TrackPointExtension><gpxtpx:hr>154</gpxtpx:hr></gpxtpx:TrackPointExtension></extensions>
      </trkpt>
      <trkpt lat="59.9865166" lon="15.8333961">
        <ele>115.4</ele>
        <time>2013-04-18T21:14:44Z</time>
        <extensions><gpxtpx:TrackPointExtension><gpxtpx:hr>155</gpxtpx:hr></gpxtpx:TrackPointExtension></extensions>
      </trkpt>
      <trkpt lat="59.9864929" lon="15.8334039">
        <ele>115.4</ele>
        <time>2013-04-18T21:14:45Z</time>
        <extensions><gpxtpx:TrackPointExtension><gpxtpx:hr>155</gpxtpx:hr></gpxtpx:TrackPointExtension></extensions>
      </trkpt>
      <trkpt lat="59.9864721" lon="15.8334282">
        <ele>115.4</ele>
        <time>2013-04-18T21:14:46Z</time>
        <extensions><gpxtpx:TrackPointExtension><gpxtpx:hr>155</gpxtpx:hr></gpxtpx:TrackPointExtension></extensions>
      </trkpt>
      <trkpt lat="59.986454" lon="15.833445">
        <ele>115.4</ele>
        <time>2013-04-18T21:14:47Z</time>
        <extensions><gpxtpx:TrackPointExtension><gpxtpx:hr>155</gpxtpx:hr></gpxtpx:TrackPointExtension></extensions>
      </trkpt>
      <trkpt lat="59.9863255" lon="15.8335996">
        <ele>115.4</ele>
        <time>2013-04-18T21:14:53Z</time>
        <extensions><gpxtpx:TrackPointExtension><gpxtpx:hr>154</gpxtpx:hr></gpxtpx:TrackPointExtension></extensions>
      </trkpt>
      <trkpt lat="59.9863063" lon="15.8336168">
        <ele>115.4</ele>
        <time>2013-04-18T21:14:54Z</time>
        <extensions><gpxtpx:TrackPointExtension><gpxtpx:hr>154</gpxtpx:hr></gpxtpx:TrackPointExtension></extensions>
      </trkpt>
      <trkpt lat="59.9862901" lon="15.8336351">
        <ele>115.4</ele>
        <time>2013-04-18T21:14:55Z</time>
        <extensions><gpxtpx:TrackPointExtension><gpxtpx:hr>154</gpxtpx:hr></gpxtpx:TrackPointExtension></extensions>
      </trkpt>
      <trkpt lat="59.9862639" lon="15.8336655">
        <ele>115.4</ele>
        <time>2013-04-18T21:14:56Z</time>
        <extensions><gpxtpx:TrackPointExtension><gpxtpx:hr>154</gpxtpx:hr></gpxtpx:TrackPointExtension></extensions>
      </trkpt>
      <trkpt lat="59.986207" lon="15.8337355">
        <ele>115.4</ele>
        <time>2013-04-18T21:14:59Z</time>
        <extensions><gpxtpx:TrackPointExtension><gpxtpx:hr>155</gpxtpx:hr></gpxtpx:TrackPointExtension></extensions>
      </trkpt>
      <trkpt lat="59.9861395" lon="15.8338111">
        <ele>115.4</ele>
        <time>2013-04-18T21:15:02Z</time>
        <extensions><gpxtpx:TrackPointExtension><gpxtpx:hr>156</gpxtpx:hr></gpxtpx:TrackPointExtension></extensions>
      </trkpt>
      <trkpt lat="59.9861163" lon="15.8338383">
        <ele>115.4</ele>
        <time>2013-04-18T21:15:03Z</time>
        <extensions><gpxtpx:TrackPointExtension><gpxtpx:hr>156</gpxtpx:hr></gpxtpx:TrackPointExtension></extensions>
      </trkpt>
      <trkpt lat="59.986093" lon="15.833868">
        <ele>115.4</ele>
        <time>2013-04-18T21:15:04Z</time>
        <extensions><gpxtpx:TrackPointExtension><gpxtpx:hr>157</gpxtpx:hr></gpxtpx:TrackPointExtension></extensions>
      </trkpt>
      <trkpt lat="59.9860753" lon="15.8338908">
        <ele>115.4</ele>
        <time>2013-04-18T21:15:05Z</time>
        <extensions><gpxtpx:TrackPointExtension><gpxtpx:hr>156</gpxtpx:hr></gpxtpx:TrackPointExtension></extensions>
      </trkpt>
      <trkpt lat="59.9860565" lon="15.833919">
        <ele>115.4</ele>
        <time>2013-04-18T21:15:06Z</time>
        <extensions><gpxtpx:TrackPointExtension><gpxtpx:hr>157</gpxtpx:hr></gpxtpx:TrackPointExtension></extensions>
      </trkpt>
      <trkpt lat="59.9860429" lon="15.8339534">
        <ele>115.4</ele>
        <time>2013-04-18T21:15:07Z</time>
        <extensions><gpxtpx:TrackPointExtension><gpxtpx:hr>156</gpxtpx:hr></gpxtpx:TrackPointExtension></extensions>
      </trkpt>
      <trkpt lat="59.986042" lon="15.8339987">
        <ele>115.4</ele>
        <time>2013-04-18T21:15:08Z</time>
        <extensions><gpxtpx:TrackPointExtension><gpxtpx:hr>156</gpxtpx:hr></gpxtpx:TrackPointExtension></extensions>
      </trkpt>
      <trkpt lat="59.9860484" lon="15.8340434">
        <ele>115.4</ele>
        <time>2013-04-18T21:15:09Z</time>
        <extensions><gpxtpx:TrackPointExtension><gpxtpx:hr>156</gpxtpx:hr></gpxtpx:TrackPointExtension></extensions>
      </trkpt>
      <trkpt lat="59.9860576" lon="15.8340813">
        <ele>115.4</ele>
        <time>2013-04-18T21:15:10Z</time>
        <extensions><gpxtpx:TrackPointExtension><gpxtpx:hr>157</gpxtpx:hr></gpxtpx:TrackPointExtension></extensions>
      </trkpt>
      <trkpt lat="59.9860667" lon="15.8341238">
        <ele>115.4</ele>
        <time>2013-04-18T21:15:11Z</time>
        <extensions><gpxtpx:TrackPointExtension><gpxtpx:hr>157</gpxtpx:hr></gpxtpx:TrackPointExtension></extensions>
      </trkpt>
      <trkpt lat="59.9860771" lon="15.8341697">
        <ele>115.4</ele>
        <time>2013-04-18T21:15:12Z</time>
        <extensions><gpxtpx:TrackPointExtension><gpxtpx:hr>157</gpxtpx:hr></gpxtpx:TrackPointExtension></extensions>
      </trkpt>
      <trkpt lat="59.9860881" lon="15.83421">
        <ele>115.4</ele>
        <time>2013-04-18T21:15:13Z</time>
        <extensions><gpxtpx:TrackPointExtension><gpxtpx:hr>157</gpxtpx:hr></gpxtpx:TrackPointExtension></extensions>
      </trkpt>
      <trkpt lat="59.9860968" lon="15.834238">
        <ele>115.4</ele>
        <time>2013-04-18T21:15:14Z</time>
        <extensions><gpxtpx:TrackPointExtension><gpxtpx:hr>157</gpxtpx:hr></gpxtpx:TrackPointExtension></extensions>
      </trkpt>
      <trkpt lat="59.9861099" lon="15.8342827">
        <ele>115.4</ele>
        <time>2013-04-18T21:15:15Z</time>
        <extensions><gpxtpx:TrackPointExtension><gpxtpx:hr>157</gpxtpx:hr></gpxtpx:TrackPointExtension></extensions>
      </trkpt>
      <trkpt lat="59.9861211" lon="15.83432">
        <ele>115.4</ele>
        <time>2013-04-18T21:15:16Z</time>
        <extensions><gpxtpx:TrackPointExtension><gpxtpx:hr>157</gpxtpx:hr></gpxtpx:TrackPointExtension></extensions>
      </trkpt>
      <trkpt lat="59.9861355" lon="15.8343647">
        <ele>115.4</ele>
        <time>2013-04-18T21:15:17Z</time>
        <extensions><gpxtpx:TrackPointExtension><gpxtpx:hr>157</gpxtpx:hr></gpxtpx:TrackPointExtension></extensions>
      </trkpt>
      <trkpt lat="59.9861457" lon="15.8344005">
        <ele>115.4</ele>
        <time>2013-04-18T21:15:18Z</time>
        <extensions><gpxtpx:TrackPointExtension><gpxtpx:hr>157</gpxtpx:hr></gpxtpx:TrackPointExtension></extensions>
      </trkpt>
      <trkpt lat="59.9861568" lon="15.834448">
        <ele>115.4</ele>
        <time>2013-04-18T21:15:19Z</time>
        <extensions><gpxtpx:TrackPointExtension><gpxtpx:hr>157</gpxtpx:hr></gpxtpx:TrackPointExtension></extensions>
      </trkpt>
      <trkpt lat="59.9861659" lon="15.8344812">
        <ele>115.4</ele>
        <time>2013-04-18T21:15:20Z</time>
        <extensions><gpxtpx:TrackPointExtension><gpxtpx:hr>157</gpxtpx:hr></gpxtpx:TrackPointExtension></extensions>
      </trkpt>
      <trkpt lat="59.9861817" lon="15.8345322">
        <ele>115.4</ele>
        <time>2013-04-18T21:15:21Z</time>
        <extensions><gpxtpx:TrackPointExtension><gpxtpx:hr>157</gpxtpx:hr></gpxtpx:TrackPointExtension></extensions>
      </trkpt>
      <trkpt lat="59.986191" lon="15.8345639">
        <ele>115.4</ele>
        <time>2013-04-18T21:15:22Z</time>
        <extensions><gpxtpx:TrackPointExtension><gpxtpx:hr>157</gpxtpx:hr></gpxtpx:TrackPointExtension></extensions>
      </trkpt>
      <trkpt lat="59.9862037" lon="15.8346049">
        <ele>115.4</ele>
        <time>2013-04-18T21:15:23Z</time>
        <extensions><gpxtpx:TrackPointExtension><gpxtpx:hr>157</gpxtpx:hr></gpxtpx:TrackPointExtension></extensions>
      </trkpt>
      <trkpt lat="59.9862131" lon="15.83464">
        <ele>115.4</ele>
        <time>2013-04-18T21:15:24Z</time>
        <extensions><gpxtpx:TrackPointExtension><gpxtpx:hr>157</gpxtpx:hr></gpxtpx:TrackPointExtension></extensions>
      </trkpt>
      <trkpt lat="59.9862507" lon="15.8347681">
        <ele>115.4</ele>
        <time>2013-04-18T21:15:27Z</time>
        <extensions><gpxtpx:TrackPointExtension><gpxtpx:hr>157</gpxtpx:hr></gpxtpx:TrackPointExtension></extensions>
      </trkpt>
      <trkpt lat="59.98626" lon="15.8348023">
        <ele>115.4</ele>
        <time>2013-04-18T21:15:28Z</time>
        <extensions><gpxtpx:TrackPointExtension><gpxtpx:hr>156</gpxtpx:hr></gpxtpx:TrackPointExtension></extensions>
      </trkpt>
      <trkpt lat="59.9862848" lon="15.8348773">
        <ele>115.4</ele>
        <time>2013-04-18T21:15:30Z</time>
        <extensions><gpxtpx:TrackPointExtension><gpxtpx:hr>157</gpxtpx:hr></gpxtpx:TrackPointExtension></extensions>
      </trkpt>
      <trkpt lat="59.9863001" lon="15.8349227">
        <ele>115.4</ele>
        <time>2013-04-18T21:15:31Z</time>
        <extensions><gpxtpx:TrackPointExtension><gpxtpx:hr>157</gpxtpx:hr></gpxtpx:TrackPointExtension></extensions>
      </trkpt>
      <trkpt lat="59.9863711" lon="15.8351683">
        <ele>114.4</ele>
        <time>2013-04-18T21:15:37Z</time>
        <extensions><gpxtpx:TrackPointExtension><gpxtpx:hr>157</gpxtpx:hr></gpxtpx:TrackPointExtension></extensions>
      </trkpt>
      <trkpt lat="59.9863819" lon="15.8352024">
        <ele>114.4</ele>
        <time>2013-04-18T21:15:38Z</time>
        <extensions><gpxtpx:TrackPointExtension><gpxtpx:hr>157</gpxtpx:hr></gpxtpx:TrackPointExtension></extensions>
      </trkpt>
      <trkpt lat="59.9863966" lon="15.8352468">
        <ele>114.4</ele>
        <time>2013-04-18T21:15:39Z</time>
        <extensions><gpxtpx:TrackPointExtension><gpxtpx:hr>157</gpxtpx:hr></gpxtpx:TrackPointExtension></extensions>
      </trkpt>
      <trkpt lat="59.9864068" lon="15.8352761">
        <ele>114.4</ele>
        <time>2013-04-18T21:15:40Z</time>
        <extensions><gpxtpx:TrackPointExtension><gpxtpx:hr>157</gpxtpx:hr></gpxtpx:TrackPointExtension></extensions>
      </trkpt>
      <trkpt lat="59.9864227" lon="15.8353211">
        <ele>114.4</ele>
        <time>2013-04-18T21:15:41Z</time>
        <extensions><gpxtpx:TrackPointExtension><gpxtpx:hr>157</gpxtpx:hr></gpxtpx:TrackPointExtension></extensions>
      </trkpt>
      <trkpt lat="59.9864347" lon="15.8353564">
        <ele>114.4</ele>
        <time>2013-04-18T21:15:42Z</time>
        <extensions><gpxtpx:TrackPointExtension><gpxtpx:hr>156</gpxtpx:hr></gpxtpx:TrackPointExtension></extensions>
      </trkpt>
      <trkpt lat="59.9864493" lon="15.8354039">
        <ele>114.4</ele>
        <time>2013-04-18T21:15:43Z</time>
        <extensions><gpxtpx:TrackPointExtension><gpxtpx:hr>156</gpxtpx:hr></gpxtpx:TrackPointExtension></extensions>
      </trkpt>
      <trkpt lat="59.9864577" lon="15.8354344">
        <ele>114.4</ele>
        <time>2013-04-18T21:15:44Z</time>
        <extensions><gpxtpx:TrackPointExtension><gpxtpx:hr>156</gpxtpx:hr></gpxtpx:TrackPointExtension></extensions>
      </trkpt>
      <trkpt lat="59.9864952" lon="15.8355606">
        <ele>114.4</ele>
        <time>2013-04-18T21:15:47Z</time>
        <extensions><gpxtpx:TrackPointExtension><gpxtpx:hr>157</gpxtpx:hr></gpxtpx:TrackPointExtension></extensions>
      </trkpt>
      <trkpt lat="59.9865043" lon="15.8355954">
        <ele>114.4</ele>
        <time>2013-04-18T21:15:48Z</time>
        <extensions><gpxtpx:TrackPointExtension><gpxtpx:hr>157</gpxtpx:hr></gpxtpx:TrackPointExtension></extensions>
      </trkpt>
      <trkpt lat="59.9865415" lon="15.8357199">
        <ele>114.4</ele>
        <time>2013-04-18T21:15:51Z</time>
        <extensions><gpxtpx:TrackPointExtension><gpxtpx:hr>157</gpxtpx:hr></gpxtpx:TrackPointExtension></extensions>
      </trkpt>
      <trkpt lat="59.9865501" lon="15.8357523">
        <ele>114.4</ele>
        <time>2013-04-18T21:15:52Z</time>
        <extensions><gpxtpx:TrackPointExtension><gpxtpx:hr>157</gpxtpx:hr></gpxtpx:TrackPointExtension></extensions>
      </trkpt>
      <trkpt lat="59.9865834" lon="15.8358746">
        <ele>114.4</ele>
        <time>2013-04-18T21:15:55Z</time>
        <extensions><gpxtpx:TrackPointExtension><gpxtpx:hr>156</gpxtpx:hr></gpxtpx:TrackPointExtension></extensions>
      </trkpt>
      <trkpt lat="59.9865984" lon="15.8358976">
        <ele>114.4</ele>
        <time>2013-04-18T21:15:56Z</time>
        <extensions><gpxtpx:TrackPointExtension><gpxtpx:hr>156</gpxtpx:hr></gpxtpx:TrackPointExtension></extensions>
      </trkpt>
      <trkpt lat="59.9866145" lon="15.8359437">
        <ele>114.4</ele>
        <time>2013-04-18T21:15:57Z</time>
        <extensions><gpxtpx:TrackPointExtension><gpxtpx:hr>156</gpxtpx:hr></gpxtpx:TrackPointExtension></extensions>
      </trkpt>
      <trkpt lat="59.9866231" lon="15.8359794">
        <ele>114.4</ele>
        <time>2013-04-18T21:15:58Z</time>
        <extensions><gpxtpx:TrackPointExtension><gpxtpx:hr>156</gpxtpx:hr></gpxtpx:TrackPointExtension></extensions>
      </trkpt>
      <trkpt lat="59.9866327" lon="15.8360235">
        <ele>114.4</ele>
        <time>2013-04-18T21:15:59Z</time>
        <extensions><gpxtpx:TrackPointExtension><gpxtpx:hr>157</gpxtpx:hr></gpxtpx:TrackPointExtension></extensions>
      </trkpt>
      <trkpt lat="59.986652" lon="15.8361115">
        <ele>114.4</ele>
        <time>2013-04-18T21:16:01Z</time>
        <extensions><gpxtpx:TrackPointExtension><gpxtpx:hr>157</gpxtpx:hr></gpxtpx:TrackPointExtension></extensions>
      </trkpt>
      <trkpt lat="59.9866566" lon="15.8361484">
        <ele>114.4</ele>
        <time>2013-04-18T21:16:02Z</time>
        <extensions><gpxtpx:TrackPointExtension><gpxtpx:hr>157</gpxtpx:hr></gpxtpx:TrackPointExtension></extensions>
      </trkpt>
      <trkpt lat="59.986664" lon="15.8361945">
        <ele>114.4</ele>
        <time>2013-04-18T21:16:03Z</time>
        <extensions><gpxtpx:TrackPointExtension><gpxtpx:hr>157</gpxtpx:hr></gpxtpx:TrackPointExtension></extensions>
      </trkpt>
      <trkpt lat="59.9866657" lon="15.8362313">
        <ele>114.4</ele>
        <time>2013-04-18T21:16:04Z</time>
        <extensions><gpxtpx:TrackPointExtension><gpxtpx:hr>157</gpxtpx:hr></gpxtpx:TrackPointExtension></extensions>
      </trkpt>
      <trkpt lat="59.9866677" lon="15.8362763">
        <ele>114.4</ele>
        <time>2013-04-18T21:16:05Z</time>
        <extensions><gpxtpx:TrackPointExtension><gpxtpx:hr>156</gpxtpx:hr></gpxtpx:TrackPointExtension></extensions>
      </trkpt>
      <trkpt lat="59.9866516" lon="15.836483">
        <ele>114.4</ele>
        <time>2013-04-18T21:16:10Z</time>
        <extensions><gpxtpx:TrackPointExtension><gpxtpx:hr>157</gpxtpx:hr></gpxtpx:TrackPointExtension></extensions>
      </trkpt>
      <trkpt lat="59.9866392" lon="15.8365275">
        <ele>114.4</ele>
        <time>2013-04-18T21:16:11Z</time>
        <extensions><gpxtpx:TrackPointExtension><gpxtpx:hr>156</gpxtpx:hr></gpxtpx:TrackPointExtension></extensions>
      </trkpt>
      <trkpt lat="59.9866264" lon="15.8365605">
        <ele>114.4</ele>
        <time>2013-04-18T21:16:12Z</time>
        <extensions><gpxtpx:TrackPointExtension><gpxtpx:hr>156</gpxtpx:hr></gpxtpx:TrackPointExtension></extensions>
      </trkpt>
      <trkpt lat="59.986611" lon="15.8366011">
        <ele>114.4</ele>
        <time>2013-04-18T21:16:13Z</time>
        <extensions><gpxtpx:TrackPointExtension><gpxtpx:hr>156</gpxtpx:hr></gpxtpx:TrackPointExtension></extensions>
      </trkpt>
      <trkpt lat="59.9865973" lon="15.8366311">
        <ele>114.4</ele>
        <time>2013-04-18T21:16:14Z</time>
        <extensions><gpxtpx:TrackPointExtension><gpxtpx:hr>155</gpxtpx:hr></gpxtpx:TrackPointExtension></extensions>
      </trkpt>
      <trkpt lat="59.9865659" lon="15.8366998">
        <ele>114.4</ele>
        <time>2013-04-18T21:16:16Z</time>
        <extensions><gpxtpx:TrackPointExtension><gpxtpx:hr>155</gpxtpx:hr></gpxtpx:TrackPointExtension></extensions>
      </trkpt>
      <trkpt lat="59.9864821" lon="15.8368674">
        <ele>114.4</ele>
        <time>2013-04-18T21:16:21Z</time>
        <extensions><gpxtpx:TrackPointExtension><gpxtpx:hr>153</gpxtpx:hr></gpxtpx:TrackPointExtension></extensions>
      </trkpt>
      <trkpt lat="59.9863859" lon="15.8370711">
        <ele>114.4</ele>
        <time>2013-04-18T21:16:27Z</time>
        <extensions><gpxtpx:TrackPointExtension><gpxtpx:hr>155</gpxtpx:hr></gpxtpx:TrackPointExtension></extensions>
      </trkpt>
      <trkpt lat="59.9862846" lon="15.8372899">
        <ele>114.4</ele>
        <time>2013-04-18T21:16:34Z</time>
        <extensions><gpxtpx:TrackPointExtension><gpxtpx:hr>157</gpxtpx:hr></gpxtpx:TrackPointExtension></extensions>
      </trkpt>
      <trkpt lat="59.9861762" lon="15.837488">
        <ele>114.4</ele>
        <time>2013-04-18T21:16:40Z</time>
        <extensions><gpxtpx:TrackPointExtension><gpxtpx:hr>157</gpxtpx:hr></gpxtpx:TrackPointExtension></extensions>
      </trkpt>
      <trkpt lat="59.9861118" lon="15.8376169">
        <ele>113.2</ele>
        <time>2013-04-18T21:16:44Z</time>
        <extensions><gpxtpx:TrackPointExtension><gpxtpx:hr>157</gpxtpx:hr></gpxtpx:TrackPointExtension></extensions>
      </trkpt>
      <trkpt lat="59.9860937" lon="15.83765">
        <ele>113.2</ele>
        <time>2013-04-18T21:16:45Z</time>
        <extensions><gpxtpx:TrackPointExtension><gpxtpx:hr>157</gpxtpx:hr></gpxtpx:TrackPointExtension></extensions>
      </trkpt>
      <trkpt lat="59.986057" lon="15.8377151">
        <ele>113.2</ele>
        <time>2013-04-18T21:16:47Z</time>
        <extensions><gpxtpx:TrackPointExtension><gpxtpx:hr>156</gpxtpx:hr></gpxtpx:TrackPointExtension></extensions>
      </trkpt>
      <trkpt lat="59.9860157" lon="15.8377849">
        <ele>113.2</ele>
        <time>2013-04-18T21:16:49Z</time>
        <extensions><gpxtpx:TrackPointExtension><gpxtpx:hr>156</gpxtpx:hr></gpxtpx:TrackPointExtension></extensions>
      </trkpt>
      <trkpt lat="59.9859977" lon="15.8378178">
        <ele>112.2</ele>
        <time>2013-04-18T21:16:50Z</time>
        <extensions><gpxtpx:TrackPointExtension><gpxtpx:hr>156</gpxtpx:hr></gpxtpx:TrackPointExtension></extensions>
      </trkpt>
      <trkpt lat="59.9859774" lon="15.8378597">
        <ele>112.2</ele>
        <time>2013-04-18T21:16:51Z</time>
        <extensions><gpxtpx:TrackPointExtension><gpxtpx:hr>156</gpxtpx:hr></gpxtpx:TrackPointExtension></extensions>
      </trkpt>
      <trkpt lat="59.9859606" lon="15.8378887">
        <ele>112.2</ele>
        <time>2013-04-18T21:16:52Z</time>
        <extensions><gpxtpx:TrackPointExtension><gpxtpx:hr>156</gpxtpx:hr></gpxtpx:TrackPointExtension></extensions>
      </trkpt>
      <trkpt lat="59.9859408" lon="15.8379234">
        <ele>112.2</ele>
        <time>2013-04-18T21:16:53Z</time>
        <extensions><gpxtpx:TrackPointExtension><gpxtpx:hr>156</gpxtpx:hr></gpxtpx:TrackPointExtension></extensions>
      </trkpt>
      <trkpt lat="59.9859232" lon="15.837952">
        <ele>112.2</ele>
        <time>2013-04-18T21:16:54Z</time>
        <extensions><gpxtpx:TrackPointExtension><gpxtpx:hr>156</gpxtpx:hr></gpxtpx:TrackPointExtension></extensions>
      </trkpt>
      <trkpt lat="59.9858977" lon="15.837995">
        <ele>112.2</ele>
        <time>2013-04-18T21:16:55Z</time>
        <extensions><gpxtpx:TrackPointExtension><gpxtpx:hr>156</gpxtpx:hr></gpxtpx:TrackPointExtension></extensions>
      </trkpt>
      <trkpt lat="59.9858783" lon="15.8380287">
        <ele>112.2</ele>
        <time>2013-04-18T21:16:56Z</time>
        <extensions><gpxtpx:TrackPointExtension><gpxtpx:hr>156</gpxtpx:hr></gpxtpx:TrackPointExtension></extensions>
      </trkpt>
      <trkpt lat="59.9858563" lon="15.8380666">
        <ele>111</ele>
        <time>2013-04-18T21:16:57Z</time>
        <extensions><gpxtpx:TrackPointExtension><gpxtpx:hr>156</gpxtpx:hr></gpxtpx:TrackPointExtension></extensions>
      </trkpt>
      <trkpt lat="59.9858406" lon="15.8380943">
        <ele>111</ele>
        <time>2013-04-18T21:16:58Z</time>
        <extensions><gpxtpx:TrackPointExtension><gpxtpx:hr>156</gpxtpx:hr></gpxtpx:TrackPointExtension></extensions>
      </trkpt>
      <trkpt lat="59.9858156" lon="15.8381331">
        <ele>111</ele>
        <time>2013-04-18T21:16:59Z</time>
        <extensions><gpxtpx:TrackPointExtension><gpxtpx:hr>156</gpxtpx:hr></gpxtpx:TrackPointExtension></extensions>
      </trkpt>
      <trkpt lat="59.9857987" lon="15.8381572">
        <ele>111</ele>
        <time>2013-04-18T21:17:00Z</time>
        <extensions><gpxtpx:TrackPointExtension><gpxtpx:hr>156</gpxtpx:hr></gpxtpx:TrackPointExtension></extensions>
      </trkpt>
      <trkpt lat="59.9857355" lon="15.8382546">
        <ele>110</ele>
        <time>2013-04-18T21:17:03Z</time>
        <extensions><gpxtpx:TrackPointExtension><gpxtpx:hr>157</gpxtpx:hr></gpxtpx:TrackPointExtension></extensions>
      </trkpt>
      <trkpt lat="59.9857219" lon="15.8382805">
        <ele>110</ele>
        <time>2013-04-18T21:17:04Z</time>
        <extensions><gpxtpx:TrackPointExtension><gpxtpx:hr>157</gpxtpx:hr></gpxtpx:TrackPointExtension></extensions>
      </trkpt>
      <trkpt lat="59.9856488" lon="15.8384192">
        <ele>110</ele>
        <time>2013-04-18T21:17:08Z</time>
        <extensions><gpxtpx:TrackPointExtension><gpxtpx:hr>157</gpxtpx:hr></gpxtpx:TrackPointExtension></extensions>
      </trkpt>
      <trkpt lat="59.9855521" lon="15.8385769">
        <ele>110</ele>
        <time>2013-04-18T21:17:13Z</time>
        <extensions><gpxtpx:TrackPointExtension><gpxtpx:hr>157</gpxtpx:hr></gpxtpx:TrackPointExtension></extensions>
      </trkpt>
      <trkpt lat="59.9855366" lon="15.8385994">
        <ele>108.8</ele>
        <time>2013-04-18T21:17:14Z</time>
        <extensions><gpxtpx:TrackPointExtension><gpxtpx:hr>157</gpxtpx:hr></gpxtpx:TrackPointExtension></extensions>
      </trkpt>
      <trkpt lat="59.9854395" lon="15.8387498">
        <ele>108.8</ele>
        <time>2013-04-18T21:17:19Z</time>
        <extensions><gpxtpx:TrackPointExtension><gpxtpx:hr>157</gpxtpx:hr></gpxtpx:TrackPointExtension></extensions>
      </trkpt>
      <trkpt lat="59.9853614" lon="15.8388653">
        <ele>108.6</ele>
        <time>2013-04-18T21:17:23Z</time>
        <extensions><gpxtpx:TrackPointExtension><gpxtpx:hr>157</gpxtpx:hr></gpxtpx:TrackPointExtension></extensions>
      </trkpt>
      <trkpt lat="59.9853458" lon="15.8388913">
        <ele>108.8</ele>
        <time>2013-04-18T21:17:24Z</time>
        <extensions><gpxtpx:TrackPointExtension><gpxtpx:hr>158</gpxtpx:hr></gpxtpx:TrackPointExtension></extensions>
      </trkpt>
      <trkpt lat="59.9853264" lon="15.8389232">
        <ele>108.6</ele>
        <time>2013-04-18T21:17:25Z</time>
        <extensions><gpxtpx:TrackPointExtension><gpxtpx:hr>158</gpxtpx:hr></gpxtpx:TrackPointExtension></extensions>
      </trkpt>
      <trkpt lat="59.9853097" lon="15.8389509">
        <ele>108.8</ele>
        <time>2013-04-18T21:17:26Z</time>
        <extensions><gpxtpx:TrackPointExtension><gpxtpx:hr>158</gpxtpx:hr></gpxtpx:TrackPointExtension></extensions>
      </trkpt>
      <trkpt lat="59.985288" lon="15.8389818">
        <ele>107.6</ele>
        <time>2013-04-18T21:17:27Z</time>
        <extensions><gpxtpx:TrackPointExtension><gpxtpx:hr>158</gpxtpx:hr></gpxtpx:TrackPointExtension></extensions>
      </trkpt>
      <trkpt lat="59.9852732" lon="15.8390025">
        <ele>107.6</ele>
        <time>2013-04-18T21:17:28Z</time>
        <extensions><gpxtpx:TrackPointExtension><gpxtpx:hr>158</gpxtpx:hr></gpxtpx:TrackPointExtension></extensions>
      </trkpt>
      <trkpt lat="59.9852524" lon="15.8390279">
        <ele>107.6</ele>
        <time>2013-04-18T21:17:29Z</time>
        <extensions><gpxtpx:TrackPointExtension><gpxtpx:hr>158</gpxtpx:hr></gpxtpx:TrackPointExtension></extensions>
      </trkpt>
      <trkpt lat="59.9852351" lon="15.8390481">
        <ele>107.6</ele>
        <time>2013-04-18T21:17:30Z</time>
        <extensions><gpxtpx:TrackPointExtension><gpxtpx:hr>158</gpxtpx:hr></gpxtpx:TrackPointExtension></extensions>
      </trkpt>
      <trkpt lat="59.9852102" lon="15.839086">
        <ele>107.8</ele>
        <time>2013-04-18T21:17:31Z</time>
        <extensions><gpxtpx:TrackPointExtension><gpxtpx:hr>158</gpxtpx:hr></gpxtpx:TrackPointExtension></extensions>
      </trkpt>
      <trkpt lat="59.9851922" lon="15.8391124">
        <ele>107.6</ele>
        <time>2013-04-18T21:17:32Z</time>
        <extensions><gpxtpx:TrackPointExtension><gpxtpx:hr>157</gpxtpx:hr></gpxtpx:TrackPointExtension></extensions>
      </trkpt>
      <trkpt lat="59.9851694" lon="15.8391447">
        <ele>107.8</ele>
        <time>2013-04-18T21:17:33Z</time>
        <extensions><gpxtpx:TrackPointExtension><gpxtpx:hr>158</gpxtpx:hr></gpxtpx:TrackPointExtension></extensions>
      </trkpt>
      <trkpt lat="59.9851539" lon="15.8391655">
        <ele>107.6</ele>
        <time>2013-04-18T21:17:34Z</time>
        <extensions><gpxtpx:TrackPointExtension><gpxtpx:hr>157</gpxtpx:hr></gpxtpx:TrackPointExtension></extensions>
      </trkpt>
      <trkpt lat="59.9850997" lon="15.8392496">
        <ele>107.6</ele>
        <time>2013-04-18T21:17:37Z</time>
        <extensions><gpxtpx:TrackPointExtension><gpxtpx:hr>158</gpxtpx:hr></gpxtpx:TrackPointExtension></extensions>
      </trkpt>
      <trkpt lat="59.9850828" lon="15.8392703">
        <ele>107.6</ele>
        <time>2013-04-18T21:17:38Z</time>
        <extensions><gpxtpx:TrackPointExtension><gpxtpx:hr>158</gpxtpx:hr></gpxtpx:TrackPointExtension></extensions>
      </trkpt>
      <trkpt lat="59.9850586" lon="15.8393029">
        <ele>107.6</ele>
        <time>2013-04-18T21:17:39Z</time>
        <extensions><gpxtpx:TrackPointExtension><gpxtpx:hr>158</gpxtpx:hr></gpxtpx:TrackPointExtension></extensions>
      </trkpt>
      <trkpt lat="59.9850455" lon="15.83932">
        <ele>107.6</ele>
        <time>2013-04-18T21:17:40Z</time>
        <extensions><gpxtpx:TrackPointExtension><gpxtpx:hr>158</gpxtpx:hr></gpxtpx:TrackPointExtension></extensions>
      </trkpt>
      <trkpt lat="59.9850247" lon="15.8393437">
        <ele>107.6</ele>
        <time>2013-04-18T21:17:41Z</time>
        <extensions><gpxtpx:TrackPointExtension><gpxtpx:hr>158</gpxtpx:hr></gpxtpx:TrackPointExtension></extensions>
      </trkpt>
      <trkpt lat="59.9850057" lon="15.8393641">
        <ele>107.6</ele>
        <time>2013-04-18T21:17:42Z</time>
        <extensions><gpxtpx:TrackPointExtension><gpxtpx:hr>158</gpxtpx:hr></gpxtpx:TrackPointExtension></extensions>
      </trkpt>
      <trkpt lat="59.9849813" lon="15.8393931">
        <ele>107.6</ele>
        <time>2013-04-18T21:17:43Z</time>
        <extensions><gpxtpx:TrackPointExtension><gpxtpx:hr>158</gpxtpx:hr></gpxtpx:TrackPointExtension></extensions>
      </trkpt>
      <trkpt lat="59.9849657" lon="15.8394134">
        <ele>107.6</ele>
        <time>2013-04-18T21:17:44Z</time>
        <extensions><gpxtpx:TrackPointExtension><gpxtpx:hr>159</gpxtpx:hr></gpxtpx:TrackPointExtension></extensions>
      </trkpt>
      <trkpt lat="59.9848606" lon="15.8395194">
        <ele>107.6</ele>
        <time>2013-04-18T21:17:49Z</time>
        <extensions><gpxtpx:TrackPointExtension><gpxtpx:hr>158</gpxtpx:hr></gpxtpx:TrackPointExtension></extensions>
      </trkpt>
      <trkpt lat="59.9847194" lon="15.8396153">
        <ele>107.6</ele>
        <time>2013-04-18T21:17:56Z</time>
        <extensions><gpxtpx:TrackPointExtension><gpxtpx:hr>158</gpxtpx:hr></gpxtpx:TrackPointExtension></extensions>
      </trkpt>
      <trkpt lat="59.9846222" lon="15.839665">
        <ele>107.8</ele>
        <time>2013-04-18T21:18:00Z</time>
        <extensions><gpxtpx:TrackPointExtension><gpxtpx:hr>158</gpxtpx:hr></gpxtpx:TrackPointExtension></extensions>
      </trkpt>
      <trkpt lat="59.9845999" lon="15.8396694">
        <ele>107.6</ele>
        <time>2013-04-18T21:18:01Z</time>
        <extensions><gpxtpx:TrackPointExtension><gpxtpx:hr>158</gpxtpx:hr></gpxtpx:TrackPointExtension></extensions>
      </trkpt>
      <trkpt lat="59.9845788" lon="15.8396748">
        <ele>107.6</ele>
        <time>2013-04-18T21:18:02Z</time>
        <extensions><gpxtpx:TrackPointExtension><gpxtpx:hr>158</gpxtpx:hr></gpxtpx:TrackPointExtension></extensions>
      </trkpt>
      <trkpt lat="59.9845485" lon="15.8396873">
        <ele>107.6</ele>
        <time>2013-04-18T21:18:03Z</time>
        <extensions><gpxtpx:TrackPointExtension><gpxtpx:hr>158</gpxtpx:hr></gpxtpx:TrackPointExtension></extensions>
      </trkpt>
      <trkpt lat="59.9844498" lon="15.8397337">
        <ele>107.6</ele>
        <time>2013-04-18T21:18:07Z</time>
        <extensions><gpxtpx:TrackPointExtension><gpxtpx:hr>159</gpxtpx:hr></gpxtpx:TrackPointExtension></extensions>
      </trkpt>
      <trkpt lat="59.9844322" lon="15.8397446">
        <ele>107.6</ele>
        <time>2013-04-18T21:18:08Z</time>
        <extensions><gpxtpx:TrackPointExtension><gpxtpx:hr>158</gpxtpx:hr></gpxtpx:TrackPointExtension></extensions>
      </trkpt>
      <trkpt lat="59.9844059" lon="15.8397588">
        <ele>107.6</ele>
        <time>2013-04-18T21:18:09Z</time>
        <extensions><gpxtpx:TrackPointExtension><gpxtpx:hr>158</gpxtpx:hr></gpxtpx:TrackPointExtension></extensions>
      </trkpt>
      <trkpt lat="59.9843824" lon="15.839772">
        <ele>107.6</ele>
        <time>2013-04-18T21:18:10Z</time>
        <extensions><gpxtpx:TrackPointExtension><gpxtpx:hr>158</gpxtpx:hr></gpxtpx:TrackPointExtension></extensions>
      </trkpt>
      <trkpt lat="59.9843586" lon="15.839775">
        <ele>107.6</ele>
        <time>2013-04-18T21:18:11Z</time>
        <extensions><gpxtpx:TrackPointExtension><gpxtpx:hr>158</gpxtpx:hr></gpxtpx:TrackPointExtension></extensions>
      </trkpt>
      <trkpt lat="59.9843393" lon="15.839781">
        <ele>107.6</ele>
        <time>2013-04-18T21:18:12Z</time>
        <extensions><gpxtpx:TrackPointExtension><gpxtpx:hr>158</gpxtpx:hr></gpxtpx:TrackPointExtension></extensions>
      </trkpt>
      <trkpt lat="59.9843122" lon="15.8397894">
        <ele>106.6</ele>
        <time>2013-04-18T21:18:13Z</time>
        <extensions><gpxtpx:TrackPointExtension><gpxtpx:hr>158</gpxtpx:hr></gpxtpx:TrackPointExtension></extensions>
      </trkpt>
      <trkpt lat="59.9842178" lon="15.839816">
        <ele>106.4</ele>
        <time>2013-04-18T21:18:17Z</time>
        <extensions><gpxtpx:TrackPointExtension><gpxtpx:hr>158</gpxtpx:hr></gpxtpx:TrackPointExtension></extensions>
      </trkpt>
      <trkpt lat="59.9841941" lon="15.8398323">
        <ele>105.2</ele>
        <time>2013-04-18T21:18:18Z</time>
        <extensions><gpxtpx:TrackPointExtension><gpxtpx:hr>159</gpxtpx:hr></gpxtpx:TrackPointExtension></extensions>
      </trkpt>
      <trkpt lat="59.9841677" lon="15.8398459">
        <ele>105</ele>
        <time>2013-04-18T21:18:19Z</time>
        <extensions><gpxtpx:TrackPointExtension><gpxtpx:hr>159</gpxtpx:hr></gpxtpx:TrackPointExtension></extensions>
      </trkpt>
      <trkpt lat="59.9841495" lon="15.8398511">
        <ele>105.2</ele>
        <time>2013-04-18T21:18:20Z</time>
        <extensions><gpxtpx:TrackPointExtension><gpxtpx:hr>159</gpxtpx:hr></gpxtpx:TrackPointExtension></extensions>
      </trkpt>
      <trkpt lat="59.9841199" lon="15.8398582">
        <ele>105</ele>
        <time>2013-04-18T21:18:21Z</time>
        <extensions><gpxtpx:TrackPointExtension><gpxtpx:hr>159</gpxtpx:hr></gpxtpx:TrackPointExtension></extensions>
      </trkpt>
      <trkpt lat="59.9840981" lon="15.8398644">
        <ele>105.2</ele>
        <time>2013-04-18T21:18:22Z</time>
        <extensions><gpxtpx:TrackPointExtension><gpxtpx:hr>159</gpxtpx:hr></gpxtpx:TrackPointExtension></extensions>
      </trkpt>
      <trkpt lat="59.9840091" lon="15.8398927">
        <ele>104</ele>
        <time>2013-04-18T21:18:26Z</time>
        <extensions><gpxtpx:TrackPointExtension><gpxtpx:hr>158</gpxtpx:hr></gpxtpx:TrackPointExtension></extensions>
      </trkpt>
      <trkpt lat="59.9839845" lon="15.8399005">
        <ele>104</ele>
        <time>2013-04-18T21:18:27Z</time>
        <extensions><gpxtpx:TrackPointExtension><gpxtpx:hr>158</gpxtpx:hr></gpxtpx:TrackPointExtension></extensions>
      </trkpt>
      <trkpt lat="59.9839193" lon="15.839918">
        <ele>104</ele>
        <time>2013-04-18T21:18:30Z</time>
        <extensions><gpxtpx:TrackPointExtension><gpxtpx:hr>159</gpxtpx:hr></gpxtpx:TrackPointExtension></extensions>
      </trkpt>
      <trkpt lat="59.9838955" lon="15.8399268">
        <ele>104</ele>
        <time>2013-04-18T21:18:31Z</time>
        <extensions><gpxtpx:TrackPointExtension><gpxtpx:hr>159</gpxtpx:hr></gpxtpx:TrackPointExtension></extensions>
      </trkpt>
      <trkpt lat="59.9838706" lon="15.8399346">
        <ele>104</ele>
        <time>2013-04-18T21:18:32Z</time>
        <extensions><gpxtpx:TrackPointExtension><gpxtpx:hr>159</gpxtpx:hr></gpxtpx:TrackPointExtension></extensions>
      </trkpt>
      <trkpt lat="59.9837126" lon="15.8399882">
        <ele>104</ele>
        <time>2013-04-18T21:18:38Z</time>
        <extensions><gpxtpx:TrackPointExtension><gpxtpx:hr>159</gpxtpx:hr></gpxtpx:TrackPointExtension></extensions>
      </trkpt>
      <trkpt lat="59.9836605" lon="15.8399956">
        <ele>104</ele>
        <time>2013-04-18T21:18:40Z</time>
        <extensions><gpxtpx:TrackPointExtension><gpxtpx:hr>160</gpxtpx:hr></gpxtpx:TrackPointExtension></extensions>
      </trkpt>
      <trkpt lat="59.9836281" lon="15.8400024">
        <ele>104</ele>
        <time>2013-04-18T21:18:41Z</time>
        <extensions><gpxtpx:TrackPointExtension><gpxtpx:hr>160</gpxtpx:hr></gpxtpx:TrackPointExtension></extensions>
      </trkpt>
      <trkpt lat="59.9835542" lon="15.8400247">
        <ele>104</ele>
        <time>2013-04-18T21:18:44Z</time>
        <extensions><gpxtpx:TrackPointExtension><gpxtpx:hr>160</gpxtpx:hr></gpxtpx:TrackPointExtension></extensions>
      </trkpt>
      <trkpt lat="59.9834721" lon="15.8400485">
        <ele>104</ele>
        <time>2013-04-18T21:18:47Z</time>
        <extensions><gpxtpx:TrackPointExtension><gpxtpx:hr>160</gpxtpx:hr></gpxtpx:TrackPointExtension></extensions>
      </trkpt>
      <trkpt lat="59.9834483" lon="15.8400549">
        <ele>104</ele>
        <time>2013-04-18T21:18:48Z</time>
        <extensions><gpxtpx:TrackPointExtension><gpxtpx:hr>160</gpxtpx:hr></gpxtpx:TrackPointExtension></extensions>
      </trkpt>
      <trkpt lat="59.9833992" lon="15.8400629">
        <ele>104</ele>
        <time>2013-04-18T21:18:50Z</time>
        <extensions><gpxtpx:TrackPointExtension><gpxtpx:hr>160</gpxtpx:hr></gpxtpx:TrackPointExtension></extensions>
      </trkpt>
      <trkpt lat="59.9833164" lon="15.8400796">
        <ele>103</ele>
        <time>2013-04-18T21:18:53Z</time>
        <extensions><gpxtpx:TrackPointExtension><gpxtpx:hr>160</gpxtpx:hr></gpxtpx:TrackPointExtension></extensions>
      </trkpt>
      <trkpt lat="59.9832128" lon="15.8401106">
        <ele>102</ele>
        <time>2013-04-18T21:18:57Z</time>
        <extensions><gpxtpx:TrackPointExtension><gpxtpx:hr>160</gpxtpx:hr></gpxtpx:TrackPointExtension></extensions>
      </trkpt>
      <trkpt lat="59.9831426" lon="15.840136">
        <ele>101.8</ele>
        <time>2013-04-18T21:19:00Z</time>
        <extensions><gpxtpx:TrackPointExtension><gpxtpx:hr>160</gpxtpx:hr></gpxtpx:TrackPointExtension></extensions>
      </trkpt>
      <trkpt lat="59.9831164" lon="15.8401489">
        <ele>102</ele>
        <time>2013-04-18T21:19:01Z</time>
        <extensions><gpxtpx:TrackPointExtension><gpxtpx:hr>161</gpxtpx:hr></gpxtpx:TrackPointExtension></extensions>
      </trkpt>
      <trkpt lat="59.9830961" lon="15.8401571">
        <ele>102</ele>
        <time>2013-04-18T21:19:02Z</time>
        <extensions><gpxtpx:TrackPointExtension><gpxtpx:hr>161</gpxtpx:hr></gpxtpx:TrackPointExtension></extensions>
      </trkpt>
      <trkpt lat="59.9830506" lon="15.8401746">
        <ele>102</ele>
        <time>2013-04-18T21:19:04Z</time>
        <extensions><gpxtpx:TrackPointExtension><gpxtpx:hr>161</gpxtpx:hr></gpxtpx:TrackPointExtension></extensions>
      </trkpt>
      <trkpt lat="59.9829563" lon="15.8402114">
        <ele>100.6</ele>
        <time>2013-04-18T21:19:08Z</time>
        <extensions><gpxtpx:TrackPointExtension><gpxtpx:hr>160</gpxtpx:hr></gpxtpx:TrackPointExtension></extensions>
      </trkpt>
      <trkpt lat="59.9829294" lon="15.8402193">
        <ele>100.6</ele>
        <time>2013-04-18T21:19:09Z</time>
        <extensions><gpxtpx:TrackPointExtension><gpxtpx:hr>160</gpxtpx:hr></gpxtpx:TrackPointExtension></extensions>
      </trkpt>
      <trkpt lat="59.9829115" lon="15.8402204">
        <ele>100.6</ele>
        <time>2013-04-18T21:19:10Z</time>
        <extensions><gpxtpx:TrackPointExtension><gpxtpx:hr>160</gpxtpx:hr></gpxtpx:TrackPointExtension></extensions>
      </trkpt>
      <trkpt lat="59.9828822" lon="15.8402173">
        <ele>99.4</ele>
        <time>2013-04-18T21:19:11Z</time>
        <extensions><gpxtpx:TrackPointExtension><gpxtpx:hr>160</gpxtpx:hr></gpxtpx:TrackPointExtension></extensions>
      </trkpt>
      <trkpt lat="59.9828605" lon="15.8402112">
        <ele>99.6</ele>
        <time>2013-04-18T21:19:12Z</time>
        <extensions><gpxtpx:TrackPointExtension><gpxtpx:hr>160</gpxtpx:hr></gpxtpx:TrackPointExtension></extensions>
      </trkpt>
      <trkpt lat="59.9828331" lon="15.8401969">
        <ele>99.4</ele>
        <time>2013-04-18T21:19:13Z</time>
        <extensions><gpxtpx:TrackPointExtension><gpxtpx:hr>161</gpxtpx:hr></gpxtpx:TrackPointExtension></extensions>
      </trkpt>
      <trkpt lat="59.9828151" lon="15.840176">
        <ele>98.4</ele>
        <time>2013-04-18T21:19:14Z</time>
        <extensions><gpxtpx:TrackPointExtension><gpxtpx:hr>161</gpxtpx:hr></gpxtpx:TrackPointExtension></extensions>
      </trkpt>
      <trkpt lat="59.9827919" lon="15.8401366">
        <ele>98.4</ele>
        <time>2013-04-18T21:19:15Z</time>
        <extensions><gpxtpx:TrackPointExtension><gpxtpx:hr>161</gpxtpx:hr></gpxtpx:TrackPointExtension></extensions>
      </trkpt>
      <trkpt lat="59.9827772" lon="15.8401049">
        <ele>98.4</ele>
        <time>2013-04-18T21:19:16Z</time>
        <extensions><gpxtpx:TrackPointExtension><gpxtpx:hr>161</gpxtpx:hr></gpxtpx:TrackPointExtension></extensions>
      </trkpt>
      <trkpt lat="59.9827393" lon="15.8399497">
        <ele>98.4</ele>
        <time>2013-04-18T21:19:19Z</time>
        <extensions><gpxtpx:TrackPointExtension><gpxtpx:hr>162</gpxtpx:hr></gpxtpx:TrackPointExtension></extensions>
      </trkpt>
      <trkpt lat="59.9827326" lon="15.839893">
        <ele>98.6</ele>
        <time>2013-04-18T21:19:20Z</time>
        <extensions><gpxtpx:TrackPointExtension><gpxtpx:hr>162</gpxtpx:hr></gpxtpx:TrackPointExtension></extensions>
      </trkpt>
      <trkpt lat="59.9827284" lon="15.8398167">
        <ele>98.4</ele>
        <time>2013-04-18T21:19:21Z</time>
        <extensions><gpxtpx:TrackPointExtension><gpxtpx:hr>162</gpxtpx:hr></gpxtpx:TrackPointExtension></extensions>
      </trkpt>
      <trkpt lat="59.9827245" lon="15.839753">
        <ele>98.4</ele>
        <time>2013-04-18T21:19:22Z</time>
        <extensions><gpxtpx:TrackPointExtension><gpxtpx:hr>162</gpxtpx:hr></gpxtpx:TrackPointExtension></extensions>
      </trkpt>
      <trkpt lat="59.9827223" lon="15.839426">
        <ele>98.4</ele>
        <time>2013-04-18T21:19:26Z</time>
        <extensions><gpxtpx:TrackPointExtension><gpxtpx:hr>165</gpxtpx:hr></gpxtpx:TrackPointExtension></extensions>
      </trkpt>
      <trkpt lat="59.9827075" lon="15.8390328">
        <ele>98.4</ele>
        <time>2013-04-18T21:19:31Z</time>
        <extensions><gpxtpx:TrackPointExtension><gpxtpx:hr>168</gpxtpx:hr></gpxtpx:TrackPointExtension></extensions>
      </trkpt>
      <trkpt lat="59.9826962" lon="15.838747">
        <ele>98.4</ele>
        <time>2013-04-18T21:19:35Z</time>
        <extensions><gpxtpx:TrackPointExtension><gpxtpx:hr>170</gpxtpx:hr></gpxtpx:TrackPointExtension></extensions>
      </trkpt>
      <trkpt lat="59.982677" lon="15.8383575">
        <ele>98.4</ele>
        <time>2013-04-18T21:19:40Z</time>
        <extensions><gpxtpx:TrackPointExtension><gpxtpx:hr>171</gpxtpx:hr></gpxtpx:TrackPointExtension></extensions>
      </trkpt>
      <trkpt lat="59.9826717" lon="15.8382867">
        <ele>101.6</ele>
        <time>2013-04-18T21:19:41Z</time>
        <extensions><gpxtpx:TrackPointExtension><gpxtpx:hr>172</gpxtpx:hr></gpxtpx:TrackPointExtension></extensions>
      </trkpt>
      <trkpt lat="59.9826626" lon="15.8381354">
        <ele>102.6</ele>
        <time>2013-04-18T21:19:43Z</time>
        <extensions><gpxtpx:TrackPointExtension><gpxtpx:hr>173</gpxtpx:hr></gpxtpx:TrackPointExtension></extensions>
      </trkpt>
      <trkpt lat="59.98266" lon="15.8380717">
        <ele>102.6</ele>
        <time>2013-04-18T21:19:44Z</time>
        <extensions><gpxtpx:TrackPointExtension><gpxtpx:hr>173</gpxtpx:hr></gpxtpx:TrackPointExtension></extensions>
      </trkpt>
      <trkpt lat="59.9826494" lon="15.8379193">
        <ele>102.6</ele>
        <time>2013-04-18T21:19:46Z</time>
        <extensions><gpxtpx:TrackPointExtension><gpxtpx:hr>173</gpxtpx:hr></gpxtpx:TrackPointExtension></extensions>
      </trkpt>
      <trkpt lat="59.9826431" lon="15.8378334">
        <ele>102.6</ele>
        <time>2013-04-18T21:19:47Z</time>
        <extensions><gpxtpx:TrackPointExtension><gpxtpx:hr>174</gpxtpx:hr></gpxtpx:TrackPointExtension></extensions>
      </trkpt>
      <trkpt lat="59.9826391" lon="15.8377627">
        <ele>102.6</ele>
        <time>2013-04-18T21:19:48Z</time>
        <extensions><gpxtpx:TrackPointExtension><gpxtpx:hr>174</gpxtpx:hr></gpxtpx:TrackPointExtension></extensions>
      </trkpt>
      <trkpt lat="59.9826344" lon="15.8376671">
        <ele>102.6</ele>
        <time>2013-04-18T21:19:49Z</time>
        <extensions><gpxtpx:TrackPointExtension><gpxtpx:hr>175</gpxtpx:hr></gpxtpx:TrackPointExtension></extensions>
      </trkpt>
      <trkpt lat="59.98263" lon="15.8375819">
        <ele>102.4</ele>
        <time>2013-04-18T21:19:50Z</time>
        <extensions><gpxtpx:TrackPointExtension><gpxtpx:hr>175</gpxtpx:hr></gpxtpx:TrackPointExtension></extensions>
      </trkpt>
      <trkpt lat="59.9826296" lon="15.8375084">
        <ele>102.6</ele>
        <time>2013-04-18T21:19:51Z</time>
        <extensions><gpxtpx:TrackPointExtension><gpxtpx:hr>174</gpxtpx:hr></gpxtpx:TrackPointExtension></extensions>
      </trkpt>
      <trkpt lat="59.9826257" lon="15.8374263">
        <ele>102.4</ele>
        <time>2013-04-18T21:19:52Z</time>
        <extensions><gpxtpx:TrackPointExtension><gpxtpx:hr>175</gpxtpx:hr></gpxtpx:TrackPointExtension></extensions>
      </trkpt>
      <trkpt lat="59.982624" lon="15.8373574">
        <ele>102.6</ele>
        <time>2013-04-18T21:19:53Z</time>
        <extensions><gpxtpx:TrackPointExtension><gpxtpx:hr>175</gpxtpx:hr></gpxtpx:TrackPointExtension></extensions>
      </trkpt>
      <trkpt lat="59.9826213" lon="15.8372872">
        <ele>102.6</ele>
        <time>2013-04-18T21:19:54Z</time>
        <extensions><gpxtpx:TrackPointExtension><gpxtpx:hr>175</gpxtpx:hr></gpxtpx:TrackPointExtension></extensions>
      </trkpt>
      <trkpt lat="59.982607" lon="15.8370488">
        <ele>102.6</ele>
        <time>2013-04-18T21:19:57Z</time>
        <extensions><gpxtpx:TrackPointExtension><gpxtpx:hr>176</gpxtpx:hr></gpxtpx:TrackPointExtension></extensions>
      </trkpt>
      <trkpt lat="59.9826002" lon="15.8369852">
        <ele>102.6</ele>
        <time>2013-04-18T21:19:58Z</time>
        <extensions><gpxtpx:TrackPointExtension><gpxtpx:hr>176</gpxtpx:hr></gpxtpx:TrackPointExtension></extensions>
      </trkpt>
      <trkpt lat="59.982594" lon="15.8368984">
        <ele>102.6</ele>
        <time>2013-04-18T21:19:59Z</time>
        <extensions><gpxtpx:TrackPointExtension><gpxtpx:hr>177</gpxtpx:hr></gpxtpx:TrackPointExtension></extensions>
      </trkpt>
      <trkpt lat="59.982591" lon="15.8368166">
        <ele>102.8</ele>
        <time>2013-04-18T21:20:00Z</time>
        <extensions><gpxtpx:TrackPointExtension><gpxtpx:hr>177</gpxtpx:hr></gpxtpx:TrackPointExtension></extensions>
      </trkpt>
      <trkpt lat="59.9825834" lon="15.8367366">
        <ele>102.6</ele>
        <time>2013-04-18T21:20:01Z</time>
        <extensions><gpxtpx:TrackPointExtension><gpxtpx:hr>177</gpxtpx:hr></gpxtpx:TrackPointExtension></extensions>
      </trkpt>
      <trkpt lat="59.982577" lon="15.8366733">
        <ele>102.6</ele>
        <time>2013-04-18T21:20:02Z</time>
        <extensions><gpxtpx:TrackPointExtension><gpxtpx:hr>177</gpxtpx:hr></gpxtpx:TrackPointExtension></extensions>
      </trkpt>
      <trkpt lat="59.9825739" lon="15.8365973">
        <ele>102.6</ele>
        <time>2013-04-18T21:20:03Z</time>
        <extensions><gpxtpx:TrackPointExtension><gpxtpx:hr>177</gpxtpx:hr></gpxtpx:TrackPointExtension></extensions>
      </trkpt>
      <trkpt lat="59.982574" lon="15.8365568">
        <ele>102.6</ele>
        <time>2013-04-18T21:20:04Z</time>
        <extensions><gpxtpx:TrackPointExtension><gpxtpx:hr>177</gpxtpx:hr></gpxtpx:TrackPointExtension></extensions>
      </trkpt>
      <trkpt lat="59.9825744" lon="15.8365054">
        <ele>102.4</ele>
        <time>2013-04-18T21:20:05Z</time>
        <extensions><gpxtpx:TrackPointExtension><gpxtpx:hr>177</gpxtpx:hr></gpxtpx:TrackPointExtension></extensions>
      </trkpt>
      <trkpt lat="59.9825679" lon="15.8364665">
        <ele>102.6</ele>
        <time>2013-04-18T21:20:06Z</time>
        <extensions><gpxtpx:TrackPointExtension><gpxtpx:hr>177</gpxtpx:hr></gpxtpx:TrackPointExtension></extensions>
      </trkpt>
      <trkpt lat="59.9825647" lon="15.8364235">
        <ele>102.6</ele>
        <time>2013-04-18T21:20:07Z</time>
        <extensions><gpxtpx:TrackPointExtension><gpxtpx:hr>177</gpxtpx:hr></gpxtpx:TrackPointExtension></extensions>
      </trkpt>
      <trkpt lat="59.9825608" lon="15.8363879">
        <ele>102.6</ele>
        <time>2013-04-18T21:20:08Z</time>
        <extensions><gpxtpx:TrackPointExtension><gpxtpx:hr>177</gpxtpx:hr></gpxtpx:TrackPointExtension></extensions>
      </trkpt>
      <trkpt lat="59.9825566" lon="15.8363341">
        <ele>102.6</ele>
        <time>2013-04-18T21:20:09Z</time>
        <extensions><gpxtpx:TrackPointExtension><gpxtpx:hr>177</gpxtpx:hr></gpxtpx:TrackPointExtension></extensions>
      </trkpt>
      <trkpt lat="59.9825552" lon="15.8362864">
        <ele>102.6</ele>
        <time>2013-04-18T21:20:10Z</time>
        <extensions><gpxtpx:TrackPointExtension><gpxtpx:hr>177</gpxtpx:hr></gpxtpx:TrackPointExtension></extensions>
      </trkpt>
      <trkpt lat="59.9825533" lon="15.8362595">
        <ele>102.6</ele>
        <time>2013-04-18T21:20:11Z</time>
        <extensions><gpxtpx:TrackPointExtension><gpxtpx:hr>176</gpxtpx:hr></gpxtpx:TrackPointExtension></extensions>
      </trkpt>
      <trkpt lat="59.9825368" lon="15.8361094">
        <ele>102.6</ele>
        <time>2013-04-18T21:20:15Z</time>
        <extensions><gpxtpx:TrackPointExtension><gpxtpx:hr>175</gpxtpx:hr></gpxtpx:TrackPointExtension></extensions>
      </trkpt>
      <trkpt lat="59.9825136" lon="15.8360173">
        <ele>102.6</ele>
        <time>2013-04-18T21:20:18Z</time>
        <extensions><gpxtpx:TrackPointExtension><gpxtpx:hr>173</gpxtpx:hr></gpxtpx:TrackPointExtension></extensions>
      </trkpt>
      <trkpt lat="59.9824756" lon="15.8359817">
        <ele>102.8</ele>
        <time>2013-04-18T21:20:20Z</time>
        <extensions><gpxtpx:TrackPointExtension><gpxtpx:hr>173</gpxtpx:hr></gpxtpx:TrackPointExtension></extensions>
      </trkpt>
      <trkpt lat="59.9824606" lon="15.8359578">
        <ele>102.6</ele>
        <time>2013-04-18T21:20:21Z</time>
        <extensions><gpxtpx:TrackPointExtension><gpxtpx:hr>172</gpxtpx:hr></gpxtpx:TrackPointExtension></extensions>
      </trkpt>
      <trkpt lat="59.9824507" lon="15.835929">
        <ele>102.6</ele>
        <time>2013-04-18T21:20:22Z</time>
        <extensions><gpxtpx:TrackPointExtension><gpxtpx:hr>172</gpxtpx:hr></gpxtpx:TrackPointExtension></extensions>
      </trkpt>
      <trkpt lat="59.9824407" lon="15.8358882">
        <ele>102.6</ele>
        <time>2013-04-18T21:20:23Z</time>
        <extensions><gpxtpx:TrackPointExtension><gpxtpx:hr>172</gpxtpx:hr></gpxtpx:TrackPointExtension></extensions>
      </trkpt>
      <trkpt lat="59.9824343" lon="15.8358541">
        <ele>102.6</ele>
        <time>2013-04-18T21:20:24Z</time>
        <extensions><gpxtpx:TrackPointExtension><gpxtpx:hr>172</gpxtpx:hr></gpxtpx:TrackPointExtension></extensions>
      </trkpt>
      <trkpt lat="59.98242" lon="15.8357307">
        <ele>102.6</ele>
        <time>2013-04-18T21:20:27Z</time>
        <extensions><gpxtpx:TrackPointExtension><gpxtpx:hr>171</gpxtpx:hr></gpxtpx:TrackPointExtension></extensions>
      </trkpt>
      <trkpt lat="59.9824164" lon="15.8356881">
        <ele>102.6</ele>
        <time>2013-04-18T21:20:28Z</time>
        <extensions><gpxtpx:TrackPointExtension><gpxtpx:hr>172</gpxtpx:hr></gpxtpx:TrackPointExtension></extensions>
      </trkpt>
      <trkpt lat="59.9824123" lon="15.8356529">
        <ele>102.6</ele>
        <time>2013-04-18T21:20:29Z</time>
        <extensions><gpxtpx:TrackPointExtension><gpxtpx:hr>172</gpxtpx:hr></gpxtpx:TrackPointExtension></extensions>
      </trkpt>
      <trkpt lat="59.9824113" lon="15.8356135">
        <ele>102.8</ele>
        <time>2013-04-18T21:20:30Z</time>
        <extensions><gpxtpx:TrackPointExtension><gpxtpx:hr>171</gpxtpx:hr></gpxtpx:TrackPointExtension></extensions>
      </trkpt>
      <trkpt lat="59.982404" lon="15.8355723">
        <ele>102.6</ele>
        <time>2013-04-18T21:20:31Z</time>
        <extensions><gpxtpx:TrackPointExtension><gpxtpx:hr>171</gpxtpx:hr></gpxtpx:TrackPointExtension></extensions>
      </trkpt>
      <trkpt lat="59.9824017" lon="15.8355412">
        <ele>102.6</ele>
        <time>2013-04-18T21:20:32Z</time>
        <extensions><gpxtpx:TrackPointExtension><gpxtpx:hr>171</gpxtpx:hr></gpxtpx:TrackPointExtension></extensions>
      </trkpt>
      <trkpt lat="59.9823897" lon="15.8353293">
        <ele>102.6</ele>
        <time>2013-04-18T21:20:37Z</time>
        <extensions><gpxtpx:TrackPointExtension><gpxtpx:hr>171</gpxtpx:hr></gpxtpx:TrackPointExtension></extensions>
      </trkpt>
      <trkpt lat="59.9823864" lon="15.8352959">
        <ele>102.6</ele>
        <time>2013-04-18T21:20:38Z</time>
        <extensions><gpxtpx:TrackPointExtension><gpxtpx:hr>171</gpxtpx:hr></gpxtpx:TrackPointExtension></extensions>
      </trkpt>
      <trkpt lat="59.9823817" lon="15.8352465">
        <ele>102.6</ele>
        <time>2013-04-18T21:20:39Z</time>
        <extensions><gpxtpx:TrackPointExtension><gpxtpx:hr>171</gpxtpx:hr></gpxtpx:TrackPointExtension></extensions>
      </trkpt>
      <trkpt lat="59.9823807" lon="15.8352128">
        <ele>102.6</ele>
        <time>2013-04-18T21:20:40Z</time>
        <extensions><gpxtpx:TrackPointExtension><gpxtpx:hr>170</gpxtpx:hr></gpxtpx:TrackPointExtension></extensions>
      </trkpt>
      <trkpt lat="59.9823744" lon="15.8350776">
        <ele>102.6</ele>
        <time>2013-04-18T21:20:43Z</time>
        <extensions><gpxtpx:TrackPointExtension><gpxtpx:hr>170</gpxtpx:hr></gpxtpx:TrackPointExtension></extensions>
      </trkpt>
      <trkpt lat="59.9823728" lon="15.8350456">
        <ele>102.6</ele>
        <time>2013-04-18T21:20:44Z</time>
        <extensions><gpxtpx:TrackPointExtension><gpxtpx:hr>170</gpxtpx:hr></gpxtpx:TrackPointExtension></extensions>
      </trkpt>
      <trkpt lat="59.9823704" lon="15.8350041">
        <ele>102.6</ele>
        <time>2013-04-18T21:20:45Z</time>
        <extensions><gpxtpx:TrackPointExtension><gpxtpx:hr>170</gpxtpx:hr></gpxtpx:TrackPointExtension></extensions>
      </trkpt>
      <trkpt lat="59.9823658" lon="15.8349222">
        <ele>102.6</ele>
        <time>2013-04-18T21:20:47Z</time>
        <extensions><gpxtpx:TrackPointExtension><gpxtpx:hr>169</gpxtpx:hr></gpxtpx:TrackPointExtension></extensions>
      </trkpt>
      <trkpt lat="59.9823683" lon="15.8347931">
        <ele>102.6</ele>
        <time>2013-04-18T21:20:50Z</time>
        <extensions><gpxtpx:TrackPointExtension><gpxtpx:hr>170</gpxtpx:hr></gpxtpx:TrackPointExtension></extensions>
      </trkpt>
      <trkpt lat="59.9823642" lon="15.8347573">
        <ele>102.6</ele>
        <time>2013-04-18T21:20:51Z</time>
        <extensions><gpxtpx:TrackPointExtension><gpxtpx:hr>169</gpxtpx:hr></gpxtpx:TrackPointExtension></extensions>
      </trkpt>
      <trkpt lat="59.9823656" lon="15.8347236">
        <ele>102.6</ele>
        <time>2013-04-18T21:20:52Z</time>
        <extensions><gpxtpx:TrackPointExtension><gpxtpx:hr>169</gpxtpx:hr></gpxtpx:TrackPointExtension></extensions>
      </trkpt>
      <trkpt lat="59.9823646" lon="15.8346788">
        <ele>102.6</ele>
        <time>2013-04-18T21:20:53Z</time>
        <extensions><gpxtpx:TrackPointExtension><gpxtpx:hr>169</gpxtpx:hr></gpxtpx:TrackPointExtension></extensions>
      </trkpt>
      <trkpt lat="59.9823614" lon="15.8346412">
        <ele>102.6</ele>
        <time>2013-04-18T21:20:54Z</time>
        <extensions><gpxtpx:TrackPointExtension><gpxtpx:hr>168</gpxtpx:hr></gpxtpx:TrackPointExtension></extensions>
      </trkpt>
      <trkpt lat="59.9823503" lon="15.8344806">
        <ele>99.6</ele>
        <time>2013-04-18T21:20:58Z</time>
        <extensions><gpxtpx:TrackPointExtension><gpxtpx:hr>168</gpxtpx:hr></gpxtpx:TrackPointExtension></extensions>
      </trkpt>
      <trkpt lat="59.9823503" lon="15.8343949">
        <ele>99.6</ele>
        <time>2013-04-18T21:21:00Z</time>
        <extensions><gpxtpx:TrackPointExtension><gpxtpx:hr>167</gpxtpx:hr></gpxtpx:TrackPointExtension></extensions>
      </trkpt>
      <trkpt lat="59.9823507" lon="15.8343267">
        <ele>99.6</ele>
        <time>2013-04-18T21:21:01Z</time>
        <extensions><gpxtpx:TrackPointExtension><gpxtpx:hr>167</gpxtpx:hr></gpxtpx:TrackPointExtension></extensions>
      </trkpt>
      <trkpt lat="59.9823508" lon="15.8341203">
        <ele>99.6</ele>
        <time>2013-04-18T21:21:04Z</time>
        <extensions><gpxtpx:TrackPointExtension><gpxtpx:hr>167</gpxtpx:hr></gpxtpx:TrackPointExtension></extensions>
      </trkpt>
      <trkpt lat="59.9823497" lon="15.834045">
        <ele>99.4</ele>
        <time>2013-04-18T21:21:05Z</time>
        <extensions><gpxtpx:TrackPointExtension><gpxtpx:hr>168</gpxtpx:hr></gpxtpx:TrackPointExtension></extensions>
      </trkpt>
      <trkpt lat="59.982347" lon="15.8339597">
        <ele>99.6</ele>
        <time>2013-04-18T21:21:06Z</time>
        <extensions><gpxtpx:TrackPointExtension><gpxtpx:hr>168</gpxtpx:hr></gpxtpx:TrackPointExtension></extensions>
      </trkpt>
      <trkpt lat="59.9823464" lon="15.8338653">
        <ele>99.6</ele>
        <time>2013-04-18T21:21:07Z</time>
        <extensions><gpxtpx:TrackPointExtension><gpxtpx:hr>168</gpxtpx:hr></gpxtpx:TrackPointExtension></extensions>
      </trkpt>
      <trkpt lat="59.9823451" lon="15.8337995">
        <ele>99.6</ele>
        <time>2013-04-18T21:21:08Z</time>
        <extensions><gpxtpx:TrackPointExtension><gpxtpx:hr>169</gpxtpx:hr></gpxtpx:TrackPointExtension></extensions>
      </trkpt>
      <trkpt lat="59.9823445" lon="15.8337054">
        <ele>99.6</ele>
        <time>2013-04-18T21:21:09Z</time>
        <extensions><gpxtpx:TrackPointExtension><gpxtpx:hr>170</gpxtpx:hr></gpxtpx:TrackPointExtension></extensions>
      </trkpt>
      <trkpt lat="59.9823412" lon="15.8333031">
        <ele>99.6</ele>
        <time>2013-04-18T21:21:14Z</time>
        <extensions><gpxtpx:TrackPointExtension><gpxtpx:hr>172</gpxtpx:hr></gpxtpx:TrackPointExtension></extensions>
      </trkpt>
      <trkpt lat="59.9823432" lon="15.8332196">
        <ele>99.6</ele>
        <time>2013-04-18T21:21:15Z</time>
        <extensions><gpxtpx:TrackPointExtension><gpxtpx:hr>172</gpxtpx:hr></gpxtpx:TrackPointExtension></extensions>
      </trkpt>
      <trkpt lat="59.9823498" lon="15.8330555">
        <ele>99.6</ele>
        <time>2013-04-18T21:21:17Z</time>
        <extensions><gpxtpx:TrackPointExtension><gpxtpx:hr>173</gpxtpx:hr></gpxtpx:TrackPointExtension></extensions>
      </trkpt>
      <trkpt lat="59.982349" lon="15.8329777">
        <ele>99.6</ele>
        <time>2013-04-18T21:21:18Z</time>
        <extensions><gpxtpx:TrackPointExtension><gpxtpx:hr>173</gpxtpx:hr></gpxtpx:TrackPointExtension></extensions>
      </trkpt>
      <trkpt lat="59.9823528" lon="15.8328009">
        <ele>99.6</ele>
        <time>2013-04-18T21:21:20Z</time>
        <extensions><gpxtpx:TrackPointExtension><gpxtpx:hr>174</gpxtpx:hr></gpxtpx:TrackPointExtension></extensions>
      </trkpt>
      <trkpt lat="59.9823536" lon="15.832722">
        <ele>99.6</ele>
        <time>2013-04-18T21:21:21Z</time>
        <extensions><gpxtpx:TrackPointExtension><gpxtpx:hr>174</gpxtpx:hr></gpxtpx:TrackPointExtension></extensions>
      </trkpt>
      <trkpt lat="59.9823571" lon="15.8325575">
        <ele>99.6</ele>
        <time>2013-04-18T21:21:23Z</time>
        <extensions><gpxtpx:TrackPointExtension><gpxtpx:hr>175</gpxtpx:hr></gpxtpx:TrackPointExtension></extensions>
      </trkpt>
      <trkpt lat="59.9823712" lon="15.8321555">
        <ele>99.6</ele>
        <time>2013-04-18T21:21:28Z</time>
        <extensions><gpxtpx:TrackPointExtension><gpxtpx:hr>176</gpxtpx:hr></gpxtpx:TrackPointExtension></extensions>
      </trkpt>
      <trkpt lat="59.9823746" lon="15.8320666">
        <ele>98.4</ele>
        <time>2013-04-18T21:21:29Z</time>
        <extensions><gpxtpx:TrackPointExtension><gpxtpx:hr>177</gpxtpx:hr></gpxtpx:TrackPointExtension></extensions>
      </trkpt>
      <trkpt lat="59.9823787" lon="15.831979">
        <ele>98.4</ele>
        <time>2013-04-18T21:21:30Z</time>
        <extensions><gpxtpx:TrackPointExtension><gpxtpx:hr>177</gpxtpx:hr></gpxtpx:TrackPointExtension></extensions>
      </trkpt>
      <trkpt lat="59.9823846" lon="15.8319057">
        <ele>98.4</ele>
        <time>2013-04-18T21:21:31Z</time>
        <extensions><gpxtpx:TrackPointExtension><gpxtpx:hr>178</gpxtpx:hr></gpxtpx:TrackPointExtension></extensions>
      </trkpt>
      <trkpt lat="59.9823882" lon="15.8318382">
        <ele>98.4</ele>
        <time>2013-04-18T21:21:32Z</time>
        <extensions><gpxtpx:TrackPointExtension><gpxtpx:hr>178</gpxtpx:hr></gpxtpx:TrackPointExtension></extensions>
      </trkpt>
      <trkpt lat="59.9824133" lon="15.8314281">
        <ele>98.4</ele>
        <time>2013-04-18T21:21:37Z</time>
        <extensions><gpxtpx:TrackPointExtension><gpxtpx:hr>179</gpxtpx:hr></gpxtpx:TrackPointExtension></extensions>
      </trkpt>
      <trkpt lat="59.9824171" lon="15.831363">
        <ele>98.4</ele>
        <time>2013-04-18T21:21:38Z</time>
        <extensions><gpxtpx:TrackPointExtension><gpxtpx:hr>181</gpxtpx:hr></gpxtpx:TrackPointExtension></extensions>
      </trkpt>
      <trkpt lat="59.9824252" lon="15.8312687">
        <ele>98.4</ele>
        <time>2013-04-18T21:21:39Z</time>
        <extensions><gpxtpx:TrackPointExtension><gpxtpx:hr>181</gpxtpx:hr></gpxtpx:TrackPointExtension></extensions>
      </trkpt>
      <trkpt lat="59.9824338" lon="15.8311859">
        <ele>98.4</ele>
        <time>2013-04-18T21:21:40Z</time>
        <extensions><gpxtpx:TrackPointExtension><gpxtpx:hr>181</gpxtpx:hr></gpxtpx:TrackPointExtension></extensions>
      </trkpt>
      <trkpt lat="59.982472" lon="15.8308091">
        <ele>98.4</ele>
        <time>2013-04-18T21:21:45Z</time>
        <extensions><gpxtpx:TrackPointExtension><gpxtpx:hr>181</gpxtpx:hr></gpxtpx:TrackPointExtension></extensions>
      </trkpt>
      <trkpt lat="59.9825099" lon="15.8306039">
        <ele>98.4</ele>
        <time>2013-04-18T21:21:49Z</time>
        <extensions><gpxtpx:TrackPointExtension><gpxtpx:hr>181</gpxtpx:hr></gpxtpx:TrackPointExtension></extensions>
      </trkpt>
      <trkpt lat="59.9826046" lon="15.8304176">
        <ele>98.4</ele>
        <time>2013-04-18T21:21:56Z</time>
        <extensions><gpxtpx:TrackPointExtension><gpxtpx:hr>178</gpxtpx:hr></gpxtpx:TrackPointExtension></extensions>
      </trkpt>
      <trkpt lat="59.9826336" lon="15.8303305">
        <ele>98.4</ele>
        <time>2013-04-18T21:22:01Z</time>
        <extensions><gpxtpx:TrackPointExtension><gpxtpx:hr>175</gpxtpx:hr></gpxtpx:TrackPointExtension></extensions>
      </trkpt>
      <trkpt lat="59.9826359" lon="15.8303135">
        <ele>98.4</ele>
        <time>2013-04-18T21:22:02Z</time>
        <extensions><gpxtpx:TrackPointExtension><gpxtpx:hr>175</gpxtpx:hr></gpxtpx:TrackPointExtension></extensions>
      </trkpt>
      <trkpt lat="59.9826436" lon="15.8302509">
        <ele>98.4</ele>
        <time>2013-04-18T21:22:05Z</time>
        <extensions><gpxtpx:TrackPointExtension><gpxtpx:hr>173</gpxtpx:hr></gpxtpx:TrackPointExtension></extensions>
      </trkpt>
      <trkpt lat="59.9826451" lon="15.8302352">
        <ele>98.4</ele>
        <time>2013-04-18T21:22:06Z</time>
        <extensions><gpxtpx:TrackPointExtension><gpxtpx:hr>172</gpxtpx:hr></gpxtpx:TrackPointExtension></extensions>
      </trkpt>
      <trkpt lat="59.9826492" lon="15.8302114">
        <ele>98.4</ele>
        <time>2013-04-18T21:22:07Z</time>
        <extensions><gpxtpx:TrackPointExtension><gpxtpx:hr>172</gpxtpx:hr></gpxtpx:TrackPointExtension></extensions>
      </trkpt>
      <trkpt lat="59.9826507" lon="15.8302016">
        <ele>98.4</ele>
        <time>2013-04-18T21:22:08Z</time>
        <extensions><gpxtpx:TrackPointExtension><gpxtpx:hr>172</gpxtpx:hr></gpxtpx:TrackPointExtension></extensions>
      </trkpt>
      <trkpt lat="59.9826522" lon="15.8301951">
        <ele>98.4</ele>
        <time>2013-04-18T21:22:09Z</time>
        <extensions><gpxtpx:TrackPointExtension><gpxtpx:hr>171</gpxtpx:hr></gpxtpx:TrackPointExtension></extensions>
      </trkpt>
      <trkpt lat="59.9826495" lon="15.830203">
        <ele>98.4</ele>
        <time>2013-04-18T21:22:10Z</time>
        <extensions><gpxtpx:TrackPointExtension><gpxtpx:hr>171</gpxtpx:hr></gpxtpx:TrackPointExtension></extensions>
      </trkpt>
      <trkpt lat="59.9826485" lon="15.8302042">
        <ele>98.4</ele>
        <time>2013-04-18T21:22:11Z</time>
        <extensions><gpxtpx:TrackPointExtension><gpxtpx:hr>170</gpxtpx:hr></gpxtpx:TrackPointExtension></extensions>
      </trkpt>
      <trkpt lat="59.9826449" lon="15.8302144">
        <ele>98.4</ele>
        <time>2013-04-18T21:22:15Z</time>
        <extensions><gpxtpx:TrackPointExtension><gpxtpx:hr>167</gpxtpx:hr></gpxtpx:TrackPointExtension></extensions>
      </trkpt>
      <trkpt lat="59.9826419" lon="15.8302263">
        <ele>97.4</ele>
        <time>2013-04-18T21:22:20Z</time>
        <extensions><gpxtpx:TrackPointExtension><gpxtpx:hr>165</gpxtpx:hr></gpxtpx:TrackPointExtension></extensions>
      </trkpt>
      <trkpt lat="59.9826403" lon="15.8302314">
        <ele>97.4</ele>
        <time>2013-04-18T21:22:23Z</time>
        <extensions><gpxtpx:TrackPointExtension><gpxtpx:hr>164</gpxtpx:hr></gpxtpx:TrackPointExtension></extensions>
      </trkpt>
      <trkpt lat="59.9826392" lon="15.8302313">
        <ele>96.2</ele>
        <time>2013-04-18T21:22:24Z</time>
        <extensions><gpxtpx:TrackPointExtension><gpxtpx:hr>163</gpxtpx:hr></gpxtpx:TrackPointExtension></extensions>
      </trkpt>
      <trkpt lat="59.9826343" lon="15.8302383">
        <ele>96.2</ele>
        <time>2013-04-18T21:22:27Z</time>
        <extensions><gpxtpx:TrackPointExtension><gpxtpx:hr>160</gpxtpx:hr></gpxtpx:TrackPointExtension></extensions>
      </trkpt>
      <trkpt lat="59.9826313" lon="15.8302467">
        <ele>96.2</ele>
        <time>2013-04-18T21:22:32Z</time>
        <extensions><gpxtpx:TrackPointExtension><gpxtpx:hr>157</gpxtpx:hr></gpxtpx:TrackPointExtension></extensions>
      </trkpt>
      <trkpt lat="59.9826313" lon="15.8302449">
        <ele>99.6</ele>
        <time>2013-04-18T21:22:33Z</time>
        <extensions><gpxtpx:TrackPointExtension><gpxtpx:hr>157</gpxtpx:hr></gpxtpx:TrackPointExtension></extensions>
      </trkpt>
      <trkpt lat="59.9826322" lon="15.8302398">
        <ele>99.6</ele>
        <time>2013-04-18T21:22:34Z</time>
        <extensions><gpxtpx:TrackPointExtension><gpxtpx:hr>157</gpxtpx:hr></gpxtpx:TrackPointExtension></extensions>
      </trkpt>
      <trkpt lat="59.9826285" lon="15.8302385">
        <ele>99.6</ele>
        <time>2013-04-18T21:22:41Z</time>
        <extensions><gpxtpx:TrackPointExtension><gpxtpx:hr>158</gpxtpx:hr></gpxtpx:TrackPointExtension></extensions>
      </trkpt>
      <trkpt lat="59.9826317" lon="15.8302353">
        <ele>99.6</ele>
        <time>2013-04-18T21:22:52Z</time>
        <extensions><gpxtpx:TrackPointExtension><gpxtpx:hr>156</gpxtpx:hr></gpxtpx:TrackPointExtension></extensions>
      </trkpt>
      <trkpt lat="59.9826327" lon="15.830241">
        <ele>99.6</ele>
        <time>2013-04-18T21:22:57Z</time>
        <extensions><gpxtpx:TrackPointExtension><gpxtpx:hr>153</gpxtpx:hr></gpxtpx:TrackPointExtension></extensions>
      </trkpt>
      <trkpt lat="59.9826224" lon="15.830246">
        <ele>99.6</ele>
        <time>2013-04-18T21:22:59Z</time>
        <extensions><gpxtpx:TrackPointExtension><gpxtpx:hr>152</gpxtpx:hr></gpxtpx:TrackPointExtension></extensions>
      </trkpt>
      <trkpt lat="59.9826226" lon="15.8302457">
        <ele>99.6</ele>
        <time>2013-04-18T21:23:04Z</time>
        <extensions><gpxtpx:TrackPointExtension><gpxtpx:hr>149</gpxtpx:hr></gpxtpx:TrackPointExtension></extensions>
      </trkpt>
      <trkpt lat="59.9825976" lon="15.8303003">
        <ele>99.6</ele>
        <time>2013-04-18T21:23:10Z</time>
        <extensions><gpxtpx:TrackPointExtension><gpxtpx:hr>147</gpxtpx:hr></gpxtpx:TrackPointExtension></extensions>
      </trkpt>
      <trkpt lat="59.982595" lon="15.8303106">
        <ele>99.6</ele>
        <time>2013-04-18T21:23:15Z</time>
        <extensions><gpxtpx:TrackPointExtension><gpxtpx:hr>144</gpxtpx:hr></gpxtpx:TrackPointExtension></extensions>
      </trkpt>
      <trkpt lat="59.9825833" lon="15.8303203">
        <ele>99.6</ele>
        <time>2013-04-18T21:23:20Z</time>
        <extensions><gpxtpx:TrackPointExtension><gpxtpx:hr>144</gpxtpx:hr></gpxtpx:TrackPointExtension></extensions>
      </trkpt>
      <trkpt lat="59.9825765" lon="15.8303255">
        <ele>99.6</ele>
        <time>2013-04-18T21:23:33Z</time>
        <extensions><gpxtpx:TrackPointExtension><gpxtpx:hr>141</gpxtpx:hr></gpxtpx:TrackPointExtension></extensions>
      </trkpt>
      <trkpt lat="59.982574" lon="15.8303289">
        <ele>99.6</ele>
        <time>2013-04-18T21:23:44Z</time>
        <extensions><gpxtpx:TrackPointExtension><gpxtpx:hr>139</gpxtpx:hr></gpxtpx:TrackPointExtension></extensions>
      </trkpt>
      <trkpt lat="59.9825764" lon="15.8303345">
        <ele>99.6</ele>
        <time>2013-04-18T21:23:57Z</time>
        <extensions><gpxtpx:TrackPointExtension><gpxtpx:hr>136</gpxtpx:hr></gpxtpx:TrackPointExtension></extensions>
      </trkpt>
      <trkpt lat="59.9825842" lon="15.8303207">
        <ele>99.6</ele>
        <time>2013-04-18T21:24:00Z</time>
        <extensions><gpxtpx:TrackPointExtension><gpxtpx:hr>135</gpxtpx:hr></gpxtpx:TrackPointExtension></extensions>
      </trkpt>
      <trkpt lat="59.9826241" lon="15.8301627">
        <ele>99.6</ele>
        <time>2013-04-18T21:24:05Z</time>
        <extensions><gpxtpx:TrackPointExtension><gpxtpx:hr>135</gpxtpx:hr></gpxtpx:TrackPointExtension></extensions>
      </trkpt>
      <trkpt lat="59.982629" lon="15.8301134">
        <ele>99.6</ele>
        <time>2013-04-18T21:24:06Z</time>
        <extensions><gpxtpx:TrackPointExtension><gpxtpx:hr>136</gpxtpx:hr></gpxtpx:TrackPointExtension></extensions>
      </trkpt>
      <trkpt lat="59.9826888" lon="15.8298066">
        <ele>99.6</ele>
        <time>2013-04-18T21:24:11Z</time>
        <extensions><gpxtpx:TrackPointExtension><gpxtpx:hr>140</gpxtpx:hr></gpxtpx:TrackPointExtension></extensions>
      </trkpt>
      <trkpt lat="59.9827532" lon="15.8295494">
        <ele>99.4</ele>
        <time>2013-04-18T21:24:14Z</time>
        <extensions><gpxtpx:TrackPointExtension><gpxtpx:hr>143</gpxtpx:hr></gpxtpx:TrackPointExtension></extensions>
      </trkpt>
      <trkpt lat="59.9827754" lon="15.8294692">
        <ele>99.6</ele>
        <time>2013-04-18T21:24:15Z</time>
        <extensions><gpxtpx:TrackPointExtension><gpxtpx:hr>145</gpxtpx:hr></gpxtpx:TrackPointExtension></extensions>
      </trkpt>
      <trkpt lat="59.9828172" lon="15.8293117">
        <ele>99.6</ele>
        <time>2013-04-18T21:24:17Z</time>
        <extensions><gpxtpx:TrackPointExtension><gpxtpx:hr>148</gpxtpx:hr></gpxtpx:TrackPointExtension></extensions>
      </trkpt>
      <trkpt lat="59.9828393" lon="15.8292353">
        <ele>99.6</ele>
        <time>2013-04-18T21:24:18Z</time>
        <extensions><gpxtpx:TrackPointExtension><gpxtpx:hr>149</gpxtpx:hr></gpxtpx:TrackPointExtension></extensions>
      </trkpt>
      <trkpt lat="59.9828661" lon="15.8291431">
        <ele>99.6</ele>
        <time>2013-04-18T21:24:19Z</time>
        <extensions><gpxtpx:TrackPointExtension><gpxtpx:hr>152</gpxtpx:hr></gpxtpx:TrackPointExtension></extensions>
      </trkpt>
      <trkpt lat="59.9828859" lon="15.8290811">
        <ele>99.6</ele>
        <time>2013-04-18T21:24:20Z</time>
        <extensions><gpxtpx:TrackPointExtension><gpxtpx:hr>153</gpxtpx:hr></gpxtpx:TrackPointExtension></extensions>
      </trkpt>
      <trkpt lat="59.9829372" lon="15.8289189">
        <ele>99.6</ele>
        <time>2013-04-18T21:24:22Z</time>
        <extensions><gpxtpx:TrackPointExtension><gpxtpx:hr>157</gpxtpx:hr></gpxtpx:TrackPointExtension></extensions>
      </trkpt>
      <trkpt lat="59.9829598" lon="15.8288472">
        <ele>99.6</ele>
        <time>2013-04-18T21:24:23Z</time>
        <extensions><gpxtpx:TrackPointExtension><gpxtpx:hr>158</gpxtpx:hr></gpxtpx:TrackPointExtension></extensions>
      </trkpt>
      <trkpt lat="59.9830121" lon="15.8287013">
        <ele>99.6</ele>
        <time>2013-04-18T21:24:25Z</time>
        <extensions><gpxtpx:TrackPointExtension><gpxtpx:hr>162</gpxtpx:hr></gpxtpx:TrackPointExtension></extensions>
      </trkpt>
      <trkpt lat="59.9830361" lon="15.8286361">
        <ele>101.8</ele>
        <time>2013-04-18T21:24:26Z</time>
        <extensions><gpxtpx:TrackPointExtension><gpxtpx:hr>163</gpxtpx:hr></gpxtpx:TrackPointExtension></extensions>
      </trkpt>
      <trkpt lat="59.9830657" lon="15.8285579">
        <ele>101.8</ele>
        <time>2013-04-18T21:24:27Z</time>
        <extensions><gpxtpx:TrackPointExtension><gpxtpx:hr>164</gpxtpx:hr></gpxtpx:TrackPointExtension></extensions>
      </trkpt>
      <trkpt lat="59.9830851" lon="15.8285009">
        <ele>101.8</ele>
        <time>2013-04-18T21:24:28Z</time>
        <extensions><gpxtpx:TrackPointExtension><gpxtpx:hr>165</gpxtpx:hr></gpxtpx:TrackPointExtension></extensions>
      </trkpt>
      <trkpt lat="59.9831115" lon="15.8284255">
        <ele>101.8</ele>
        <time>2013-04-18T21:24:29Z</time>
        <extensions><gpxtpx:TrackPointExtension><gpxtpx:hr>166</gpxtpx:hr></gpxtpx:TrackPointExtension></extensions>
      </trkpt>
      <trkpt lat="59.983138" lon="15.8283545">
        <ele>102</ele>
        <time>2013-04-18T21:24:30Z</time>
        <extensions><gpxtpx:TrackPointExtension><gpxtpx:hr>167</gpxtpx:hr></gpxtpx:TrackPointExtension></extensions>
      </trkpt>
      <trkpt lat="59.9831613" lon="15.8282798">
        <ele>102</ele>
        <time>2013-04-18T21:24:31Z</time>
        <extensions><gpxtpx:TrackPointExtension><gpxtpx:hr>168</gpxtpx:hr></gpxtpx:TrackPointExtension></extensions>
      </trkpt>
      <trkpt lat="59.9831837" lon="15.8282226">
        <ele>101.8</ele>
        <time>2013-04-18T21:24:32Z</time>
        <extensions><gpxtpx:TrackPointExtension><gpxtpx:hr>169</gpxtpx:hr></gpxtpx:TrackPointExtension></extensions>
      </trkpt>
      <trkpt lat="59.9832172" lon="15.8281465">
        <ele>102</ele>
        <time>2013-04-18T21:24:33Z</time>
        <extensions><gpxtpx:TrackPointExtension><gpxtpx:hr>169</gpxtpx:hr></gpxtpx:TrackPointExtension></extensions>
      </trkpt>
      <trkpt lat="59.9832399" lon="15.8280963">
        <ele>102</ele>
        <time>2013-04-18T21:24:34Z</time>
        <extensions><gpxtpx:TrackPointExtension><gpxtpx:hr>170</gpxtpx:hr></gpxtpx:TrackPointExtension></extensions>
      </trkpt>
      <trkpt lat="59.9832686" lon="15.8280333">
        <ele>102</ele>
        <time>2013-04-18T21:24:35Z</time>
        <extensions><gpxtpx:TrackPointExtension><gpxtpx:hr>171</gpxtpx:hr></gpxtpx:TrackPointExtension></extensions>
      </trkpt>
      <trkpt lat="59.983293" lon="15.8279786">
        <ele>101.8</ele>
        <time>2013-04-18T21:24:36Z</time>
        <extensions><gpxtpx:TrackPointExtension><gpxtpx:hr>171</gpxtpx:hr></gpxtpx:TrackPointExtension></extensions>
      </trkpt>
      <trkpt lat="59.9833244" lon="15.8279133">
        <ele>101.8</ele>
        <time>2013-04-18T21:24:37Z</time>
        <extensions><gpxtpx:TrackPointExtension><gpxtpx:hr>172</gpxtpx:hr></gpxtpx:TrackPointExtension></extensions>
      </trkpt>
      <trkpt lat="59.9833464" lon="15.8278648">
        <ele>101.8</ele>
        <time>2013-04-18T21:24:38Z</time>
        <extensions><gpxtpx:TrackPointExtension><gpxtpx:hr>173</gpxtpx:hr></gpxtpx:TrackPointExtension></extensions>
      </trkpt>
      <trkpt lat="59.9833797" lon="15.8277916">
        <ele>101.8</ele>
        <time>2013-04-18T21:24:39Z</time>
        <extensions><gpxtpx:TrackPointExtension><gpxtpx:hr>173</gpxtpx:hr></gpxtpx:TrackPointExtension></extensions>
      </trkpt>
      <trkpt lat="59.9834013" lon="15.8277449">
        <ele>101.8</ele>
        <time>2013-04-18T21:24:40Z</time>
        <extensions><gpxtpx:TrackPointExtension><gpxtpx:hr>174</gpxtpx:hr></gpxtpx:TrackPointExtension></extensions>
      </trkpt>
      <trkpt lat="59.9834314" lon="15.827683">
        <ele>101.8</ele>
        <time>2013-04-18T21:24:41Z</time>
        <extensions><gpxtpx:TrackPointExtension><gpxtpx:hr>174</gpxtpx:hr></gpxtpx:TrackPointExtension></extensions>
      </trkpt>
      <trkpt lat="59.98349" lon="15.82757">
        <ele>101.8</ele>
        <time>2013-04-18T21:24:43Z</time>
        <extensions><gpxtpx:TrackPointExtension><gpxtpx:hr>175</gpxtpx:hr></gpxtpx:TrackPointExtension></extensions>
      </trkpt>
      <trkpt lat="59.98351" lon="15.8275258">
        <ele>101.8</ele>
        <time>2013-04-18T21:24:44Z</time>
        <extensions><gpxtpx:TrackPointExtension><gpxtpx:hr>175</gpxtpx:hr></gpxtpx:TrackPointExtension></extensions>
      </trkpt>
      <trkpt lat="59.9835955" lon="15.8273438">
        <ele>101.8</ele>
        <time>2013-04-18T21:24:47Z</time>
        <extensions><gpxtpx:TrackPointExtension><gpxtpx:hr>177</gpxtpx:hr></gpxtpx:TrackPointExtension></extensions>
      </trkpt>
      <trkpt lat="59.9836536" lon="15.8272263">
        <ele>101.8</ele>
        <time>2013-04-18T21:24:49Z</time>
        <extensions><gpxtpx:TrackPointExtension><gpxtpx:hr>177</gpxtpx:hr></gpxtpx:TrackPointExtension></extensions>
      </trkpt>
      <trkpt lat="59.9836817" lon="15.8271666">
        <ele>101.8</ele>
        <time>2013-04-18T21:24:50Z</time>
        <extensions><gpxtpx:TrackPointExtension><gpxtpx:hr>177</gpxtpx:hr></gpxtpx:TrackPointExtension></extensions>
      </trkpt>
      <trkpt lat="59.98371" lon="15.8271216">
        <ele>101.8</ele>
        <time>2013-04-18T21:24:51Z</time>
        <extensions><gpxtpx:TrackPointExtension><gpxtpx:hr>178</gpxtpx:hr></gpxtpx:TrackPointExtension></extensions>
      </trkpt>
      <trkpt lat="59.9837679" lon="15.8270162">
        <ele>101.8</ele>
        <time>2013-04-18T21:24:53Z</time>
        <extensions><gpxtpx:TrackPointExtension><gpxtpx:hr>178</gpxtpx:hr></gpxtpx:TrackPointExtension></extensions>
      </trkpt>
      <trkpt lat="59.9838503" lon="15.826863">
        <ele>104</ele>
        <time>2013-04-18T21:24:56Z</time>
        <extensions><gpxtpx:TrackPointExtension><gpxtpx:hr>180</gpxtpx:hr></gpxtpx:TrackPointExtension></extensions>
      </trkpt>
      <trkpt lat="59.9838882" lon="15.8268024">
        <ele>104</ele>
        <time>2013-04-18T21:24:58Z</time>
        <extensions><gpxtpx:TrackPointExtension><gpxtpx:hr>181</gpxtpx:hr></gpxtpx:TrackPointExtension></extensions>
      </trkpt>
      <trkpt lat="59.9839074" lon="15.8267724">
        <ele>104</ele>
        <time>2013-04-18T21:25:00Z</time>
        <extensions><gpxtpx:TrackPointExtension><gpxtpx:hr>181</gpxtpx:hr></gpxtpx:TrackPointExtension></extensions>
      </trkpt>
      <trkpt lat="59.9839188" lon="15.8267538">
        <ele>104</ele>
        <time>2013-04-18T21:25:01Z</time>
        <extensions><gpxtpx:TrackPointExtension><gpxtpx:hr>180</gpxtpx:hr></gpxtpx:TrackPointExtension></extensions>
      </trkpt>
      <trkpt lat="59.983926" lon="15.8267408">
        <ele>104</ele>
        <time>2013-04-18T21:25:02Z</time>
        <extensions><gpxtpx:TrackPointExtension><gpxtpx:hr>180</gpxtpx:hr></gpxtpx:TrackPointExtension></extensions>
      </trkpt>
      <trkpt lat="59.9839356" lon="15.8267206">
        <ele>104</ele>
        <time>2013-04-18T21:25:03Z</time>
        <extensions><gpxtpx:TrackPointExtension><gpxtpx:hr>179</gpxtpx:hr></gpxtpx:TrackPointExtension></extensions>
      </trkpt>
      <trkpt lat="59.9839422" lon="15.8267078">
        <ele>104</ele>
        <time>2013-04-18T21:25:04Z</time>
        <extensions><gpxtpx:TrackPointExtension><gpxtpx:hr>179</gpxtpx:hr></gpxtpx:TrackPointExtension></extensions>
      </trkpt>
      <trkpt lat="59.9839507" lon="15.8266911">
        <ele>103.8</ele>
        <time>2013-04-18T21:25:05Z</time>
        <extensions><gpxtpx:TrackPointExtension><gpxtpx:hr>179</gpxtpx:hr></gpxtpx:TrackPointExtension></extensions>
      </trkpt>
      <trkpt lat="59.9839623" lon="15.8266752">
        <ele>104</ele>
        <time>2013-04-18T21:25:06Z</time>
        <extensions><gpxtpx:TrackPointExtension><gpxtpx:hr>178</gpxtpx:hr></gpxtpx:TrackPointExtension></extensions>
      </trkpt>
      <trkpt lat="59.9839743" lon="15.8266566">
        <ele>104</ele>
        <time>2013-04-18T21:25:07Z</time>
        <extensions><gpxtpx:TrackPointExtension><gpxtpx:hr>177</gpxtpx:hr></gpxtpx:TrackPointExtension></extensions>
      </trkpt>
      <trkpt lat="59.9839822" lon="15.8266442">
        <ele>104</ele>
        <time>2013-04-18T21:25:08Z</time>
        <extensions><gpxtpx:TrackPointExtension><gpxtpx:hr>177</gpxtpx:hr></gpxtpx:TrackPointExtension></extensions>
      </trkpt>
      <trkpt lat="59.983994" lon="15.8266271">
        <ele>104</ele>
        <time>2013-04-18T21:25:09Z</time>
        <extensions><gpxtpx:TrackPointExtension><gpxtpx:hr>176</gpxtpx:hr></gpxtpx:TrackPointExtension></extensions>
      </trkpt>
      <trkpt lat="59.9840038" lon="15.8266131">
        <ele>104</ele>
        <time>2013-04-18T21:25:10Z</time>
        <extensions><gpxtpx:TrackPointExtension><gpxtpx:hr>176</gpxtpx:hr></gpxtpx:TrackPointExtension></extensions>
      </trkpt>
      <trkpt lat="59.9840171" lon="15.8265873">
        <ele>104</ele>
        <time>2013-04-18T21:25:11Z</time>
        <extensions><gpxtpx:TrackPointExtension><gpxtpx:hr>175</gpxtpx:hr></gpxtpx:TrackPointExtension></extensions>
      </trkpt>
      <trkpt lat="59.9840258" lon="15.8265684">
        <ele>104</ele>
        <time>2013-04-18T21:25:12Z</time>
        <extensions><gpxtpx:TrackPointExtension><gpxtpx:hr>175</gpxtpx:hr></gpxtpx:TrackPointExtension></extensions>
      </trkpt>
      <trkpt lat="59.9840902" lon="15.8264678">
        <ele>103.8</ele>
        <time>2013-04-18T21:25:17Z</time>
        <extensions><gpxtpx:TrackPointExtension><gpxtpx:hr>173</gpxtpx:hr></gpxtpx:TrackPointExtension></extensions>
      </trkpt>
      <trkpt lat="59.9841037" lon="15.8264599">
        <ele>103.8</ele>
        <time>2013-04-18T21:25:18Z</time>
        <extensions><gpxtpx:TrackPointExtension><gpxtpx:hr>173</gpxtpx:hr></gpxtpx:TrackPointExtension></extensions>
      </trkpt>
      <trkpt lat="59.9841224" lon="15.8264577">
        <ele>103.8</ele>
        <time>2013-04-18T21:25:19Z</time>
        <extensions><gpxtpx:TrackPointExtension><gpxtpx:hr>172</gpxtpx:hr></gpxtpx:TrackPointExtension></extensions>
      </trkpt>
      <trkpt lat="59.9841353" lon="15.8264557">
        <ele>103.8</ele>
        <time>2013-04-18T21:25:20Z</time>
        <extensions><gpxtpx:TrackPointExtension><gpxtpx:hr>172</gpxtpx:hr></gpxtpx:TrackPointExtension></extensions>
      </trkpt>
      <trkpt lat="59.9841554" lon="15.8264526">
        <ele>103.8</ele>
        <time>2013-04-18T21:25:21Z</time>
        <extensions><gpxtpx:TrackPointExtension><gpxtpx:hr>172</gpxtpx:hr></gpxtpx:TrackPointExtension></extensions>
      </trkpt>
      <trkpt lat="59.9841695" lon="15.8264586">
        <ele>103.8</ele>
        <time>2013-04-18T21:25:22Z</time>
        <extensions><gpxtpx:TrackPointExtension><gpxtpx:hr>172</gpxtpx:hr></gpxtpx:TrackPointExtension></extensions>
      </trkpt>
      <trkpt lat="59.9842017" lon="15.8264874">
        <ele>103.8</ele>
        <time>2013-04-18T21:25:24Z</time>
        <extensions><gpxtpx:TrackPointExtension><gpxtpx:hr>171</gpxtpx:hr></gpxtpx:TrackPointExtension></extensions>
      </trkpt>
      <trkpt lat="59.9842221" lon="15.8265058">
        <ele>103.8</ele>
        <time>2013-04-18T21:25:25Z</time>
        <extensions><gpxtpx:TrackPointExtension><gpxtpx:hr>171</gpxtpx:hr></gpxtpx:TrackPointExtension></extensions>
      </trkpt>
      <trkpt lat="59.9842674" lon="15.826567">
        <ele>103.8</ele>
        <time>2013-04-18T21:25:28Z</time>
        <extensions><gpxtpx:TrackPointExtension><gpxtpx:hr>170</gpxtpx:hr></gpxtpx:TrackPointExtension></extensions>
      </trkpt>
      <trkpt lat="59.9843027" lon="15.8266082">
        <ele>103.8</ele>
        <time>2013-04-18T21:25:30Z</time>
        <extensions><gpxtpx:TrackPointExtension><gpxtpx:hr>170</gpxtpx:hr></gpxtpx:TrackPointExtension></extensions>
      </trkpt>
      <trkpt lat="59.9843688" lon="15.8266906">
        <ele>103.8</ele>
        <time>2013-04-18T21:25:35Z</time>
        <extensions><gpxtpx:TrackPointExtension><gpxtpx:hr>169</gpxtpx:hr></gpxtpx:TrackPointExtension></extensions>
      </trkpt>
      <trkpt lat="59.9843793" lon="15.8267077">
        <ele>103.8</ele>
        <time>2013-04-18T21:25:36Z</time>
        <extensions><gpxtpx:TrackPointExtension><gpxtpx:hr>169</gpxtpx:hr></gpxtpx:TrackPointExtension></extensions>
      </trkpt>
      <trkpt lat="59.9844246" lon="15.8267607">
        <ele>103.8</ele>
        <time>2013-04-18T21:25:40Z</time>
        <extensions><gpxtpx:TrackPointExtension><gpxtpx:hr>168</gpxtpx:hr></gpxtpx:TrackPointExtension></extensions>
      </trkpt>
      <trkpt lat="59.9844341" lon="15.8267778">
        <ele>103.8</ele>
        <time>2013-04-18T21:25:41Z</time>
        <extensions><gpxtpx:TrackPointExtension><gpxtpx:hr>168</gpxtpx:hr></gpxtpx:TrackPointExtension></extensions>
      </trkpt>
      <trkpt lat="59.9844834" lon="15.8268475">
        <ele>103.8</ele>
        <time>2013-04-18T21:25:46Z</time>
        <extensions><gpxtpx:TrackPointExtension><gpxtpx:hr>166</gpxtpx:hr></gpxtpx:TrackPointExtension></extensions>
      </trkpt>
      <trkpt lat="59.9844948" lon="15.8268634">
        <ele>103.8</ele>
        <time>2013-04-18T21:25:47Z</time>
        <extensions><gpxtpx:TrackPointExtension><gpxtpx:hr>165</gpxtpx:hr></gpxtpx:TrackPointExtension></extensions>
      </trkpt>
      <trkpt lat="59.9845094" lon="15.8268823">
        <ele>103.8</ele>
        <time>2013-04-18T21:25:48Z</time>
        <extensions><gpxtpx:TrackPointExtension><gpxtpx:hr>165</gpxtpx:hr></gpxtpx:TrackPointExtension></extensions>
      </trkpt>
      <trkpt lat="59.9845788" lon="15.826963">
        <ele>103.8</ele>
        <time>2013-04-18T21:25:51Z</time>
        <extensions><gpxtpx:TrackPointExtension><gpxtpx:hr>165</gpxtpx:hr></gpxtpx:TrackPointExtension></extensions>
      </trkpt>
      <trkpt lat="59.9846212" lon="15.8270093">
        <ele>106</ele>
        <time>2013-04-18T21:25:53Z</time>
        <extensions><gpxtpx:TrackPointExtension><gpxtpx:hr>165</gpxtpx:hr></gpxtpx:TrackPointExtension></extensions>
      </trkpt>
      <trkpt lat="59.9846442" lon="15.8270322">
        <ele>106</ele>
        <time>2013-04-18T21:25:54Z</time>
        <extensions><gpxtpx:TrackPointExtension><gpxtpx:hr>166</gpxtpx:hr></gpxtpx:TrackPointExtension></extensions>
      </trkpt>
      <trkpt lat="59.9846694" lon="15.8270481">
        <ele>106</ele>
        <time>2013-04-18T21:25:55Z</time>
        <extensions><gpxtpx:TrackPointExtension><gpxtpx:hr>166</gpxtpx:hr></gpxtpx:TrackPointExtension></extensions>
      </trkpt>
      <trkpt lat="59.9847301" lon="15.8271138">
        <ele>106</ele>
        <time>2013-04-18T21:25:58Z</time>
        <extensions><gpxtpx:TrackPointExtension><gpxtpx:hr>166</gpxtpx:hr></gpxtpx:TrackPointExtension></extensions>
      </trkpt>
      <trkpt lat="59.9847725" lon="15.8271501">
        <ele>106</ele>
        <time>2013-04-18T21:26:00Z</time>
        <extensions><gpxtpx:TrackPointExtension><gpxtpx:hr>166</gpxtpx:hr></gpxtpx:TrackPointExtension></extensions>
      </trkpt>
      <trkpt lat="59.9847996" lon="15.8271702">
        <ele>106</ele>
        <time>2013-04-18T21:26:01Z</time>
        <extensions><gpxtpx:TrackPointExtension><gpxtpx:hr>167</gpxtpx:hr></gpxtpx:TrackPointExtension></extensions>
      </trkpt>
      <trkpt lat="59.9848168" lon="15.8271852">
        <ele>106</ele>
        <time>2013-04-18T21:26:02Z</time>
        <extensions><gpxtpx:TrackPointExtension><gpxtpx:hr>167</gpxtpx:hr></gpxtpx:TrackPointExtension></extensions>
      </trkpt>
      <trkpt lat="59.9848352" lon="15.8272125">
        <ele>107</ele>
        <time>2013-04-18T21:26:03Z</time>
        <extensions><gpxtpx:TrackPointExtension><gpxtpx:hr>166</gpxtpx:hr></gpxtpx:TrackPointExtension></extensions>
      </trkpt>
      <trkpt lat="59.9848463" lon="15.8272476">
        <ele>107</ele>
        <time>2013-04-18T21:26:04Z</time>
        <extensions><gpxtpx:TrackPointExtension><gpxtpx:hr>166</gpxtpx:hr></gpxtpx:TrackPointExtension></extensions>
      </trkpt>
      <trkpt lat="59.9848334" lon="15.8274635">
        <ele>107</ele>
        <time>2013-04-18T21:26:08Z</time>
        <extensions><gpxtpx:TrackPointExtension><gpxtpx:hr>168</gpxtpx:hr></gpxtpx:TrackPointExtension></extensions>
      </trkpt>
      <trkpt lat="59.9848207" lon="15.8275235">
        <ele>107</ele>
        <time>2013-04-18T21:26:09Z</time>
        <extensions><gpxtpx:TrackPointExtension><gpxtpx:hr>167</gpxtpx:hr></gpxtpx:TrackPointExtension></extensions>
      </trkpt>
      <trkpt lat="59.9848111" lon="15.8275701">
        <ele>108.2</ele>
        <time>2013-04-18T21:26:10Z</time>
        <extensions><gpxtpx:TrackPointExtension><gpxtpx:hr>168</gpxtpx:hr></gpxtpx:TrackPointExtension></extensions>
      </trkpt>
      <trkpt lat="59.9848106" lon="15.8275805">
        <ele>108</ele>
        <time>2013-04-18T21:26:11Z</time>
        <extensions><gpxtpx:TrackPointExtension><gpxtpx:hr>168</gpxtpx:hr></gpxtpx:TrackPointExtension></extensions>
      </trkpt>
    </trkseg>
  </trk>
</gpx>